[[{"header":{"parameterUnit":"m.s-1","parameterCategory":1,"la1":30.6,"la2":28.766,"lo1":-90.7593,"lo2":-88.6598,"dy":0.0162,"dx":0.0183,"nx":116,"ny":114,"refTime":"2023-04-17T12:00:00:Z","depth":0,"parameterNumber":2,"parameterNumberName":"U-component_of_WINDS"},"data":[0.0,0.0,0.0,0.0,0.0,0.0,0.0,0.0,0.0,0.0,0.0,0.0,0.0,0.0,0.0,0.0,0.0,0.0,0.0,0.0,0.0,0.0,0.0,0.0,0.0,0.0,0.0,0.0,0.0,0.0,0.0,0.0,0.0,0.0,0.0,0.0,0.0,0.0,0.0,0.0,0.0,0.0,0.0,0.0,0.0,0.0,0.0,0.0,0.0,0.0,0.0,0.0,0.0,0.0,0.0,0.0,0.0,0.0,0.0,0.0,0.0,0.0,0.0,0.0,0.0,0.0,0.0,0.0,0.0,0.0,0.0,0.0,0.0,0.0,0.0,0.0,0.0,0.0,0.0,0.0,0.0,0.0,0.0,0.0,0.0,0.0,0.0,0.0,0.0,0.0,0.0,0.0,0.0,0.0,0.0,0.0,0.0,0.0,0.0,0.0,0.0,0.0,0.0,0.0,0.0,0.0,0.0,0.0,0.0,0.0,0.0,0.0,0.0,0.0,0.0,0.0,0.0,0.0,0.0,0.0,0.0,0.0,0.0,0.0,0.0,0.0,0.0,0.0,0.0,0.0,0.0,0.0,0.0,0.0,0.0,0.0,0.0,0.0,0.0,0.0,0.0,0.0,0.0,0.0,0.0,0.0,0.0,0.0,0.0,0.0,0.0,0.0,0.0,0.0,0.0,0.0,0.0,0.0,0.0,0.0,0.0,0.0,0.0,0.0,0.0,0.0,0.0,0.0,0.0,0.0,0.0,0.0,0.0,0.0,0.0,0.0,0.0,0.0,0.0,0.0,0.0,0.0,0.0,0.0,0.0,0.0,0.0,0.0,0.0,0.0,0.0,0.0,0.0,0.0,0.0,0.0,0.0,0.0,0.0,0.0,0.0,0.0,0.0,0.0,0.0,0.0,0.0,0.0,0.0,0.0,0.0,0.0,0.0,0.0,0.0,0.0,0.0,0.0,0.0,0.0,0.0,0.0,0.0,0.0,0.0,0.0,0.0,0.0,0.0,0.0,0.0,0.0,0.0,0.0,0.0,0.0,0.0,0.0,0.0,0.0,0.0,0.0,0.0,0.0,0.0,0.0,0.0,0.0,0.0,0.0,0.0,0.0,0.0,0.0,0.0,0.0,0.0,0.0,0.0,0.0,0.0,0.0,0.0,0.0,0.0,0.0,0.0,0.0,0.0,0.0,0.0,0.0,0.0,0.0,0.0,0.0,0.0,0.0,0.0,0.0,0.0,0.0,0.0,0.0,0.0,0.0,0.0,0.0,0.0,0.0,0.0,0.0,0.0,0.0,0.0,0.0,0.0,0.0,0.0,0.0,0.0,0.0,0.0,0.0,0.0,0.0,0.0,0.0,0.0,0.0,0.0,0.0,0.0,0.0,0.0,0.0,0.0,0.0,0.0,0.0,0.0,0.0,0.0,0.0,0.0,0.0,0.0,0.0,0.0,0.0,0.0,0.0,0.0,0.0,0.0,0.0,0.0,0.0,0.0,0.0,0.0,0.0,0.0,0.0,0.0,0.0,0.0,0.0,0.0,0.0,0.0,0.0,0.0,0.0,0.0,0.0,0.0,0.0,0.0,0.0,0.0,0.0,0.0,0.0,0.0,0.0,0.0,0.0,0.0,0.0,0.0,0.0,0.0,0.0,0.0,0.0,0.0,0.0,0.0,0.0,0.0,0.0,0.0,0.0,0.0,0.0,0.0,0.0,0.0,0.0,0.0,0.0,0.0,0.0,0.0,0.0,0.0,0.0,0.0,0.0,0.0,0.0,0.0,0.0,0.0,0.0,0.0,0.0,0.0,0.0,0.0,0.0,0.0,0.0,0.0,0.0,0.0,0.0,0.0,0.0,0.0,0.0,0.0,0.0,0.0,0.0,0.0,0.0,0.0,0.0,0.0,0.0,0.0,0.0,0.0,0.0,0.0,0.0,0.0,0.0,0.0,0.0,0.0,0.0,0.0,0.0,0.0,0.0,0.0,0.0,0.0,0.0,0.0,0.0,0.0,0.0,0.0,0.0,0.0,0.0,0.0,0.0,0.0,0.0,0.0,0.0,0.0,0.0,0.0,0.0,0.0,0.0,0.0,0.0,0.0,0.0,0.0,0.0,0.0,0.0,0.0,0.0,0.0,0.0,0.0,0.0,0.0,0.0,0.0,0.0,0.0,0.0,0.0,0.0,0.0,0.0,0.0,0.0,0.0,0.0,0.0,0.0,0.0,0.0,0.0,0.0,0.0,0.0,0.0,0.0,0.0,0.0,0.0,0.0,0.0,0.0,0.0,0.0,0.0,0.0,0.0,0.0,0.0,0.0,0.0,0.0,0.0,0.0,0.0,0.0,0.0,0.0,0.0,0.0,0.0,0.0,0.0,0.0,0.0,0.0,0.0,0.0,0.0,0.0,0.0,0.0,0.0,0.0,0.0,0.0,0.0,0.0,0.0,0.0,0.0,0.0,0.0,0.0,0.0,0.0,0.0,0.0,0.0,0.0,0.0,0.0,0.0,0.0,0.0,0.0,0.0,0.0,0.0,0.0,0.0,0.0,0.0,0.0,0.0,0.0,0.0,0.0,0.0,0.0,0.0,0.0,0.0,0.0,0.0,0.0,0.0,0.0,0.0,0.0,0.0,0.0,0.0,0.0,0.0,0.0,0.0,0.0,0.0,0.0,0.0,0.0,0.0,0.0,0.0,0.0,0.0,0.0,0.0,0.0,0.0,0.0,0.0,0.0,0.0,0.0,0.0,0.0,0.0,0.0,0.0,0.0,0.0,0.0,0.0,0.0,0.0,0.0,0.0,0.0,0.0,0.0,0.0,0.0,0.0,0.0,0.0,0.0,0.0,0.0,0.0,0.0,0.0,0.0,0.0,0.0,0.0,0.0,0.0,0.0,0.0,0.0,0.0,0.0,0.0,0.0,0.0,0.0,0.0,0.0,0.0,0.0,0.0,0.0,0.0,0.0,0.0,0.0,0.0,0.0,0.0,0.0,0.0,0.0,0.0,0.0,0.0,0.0,0.0,0.0,0.0,0.0,0.0,0.0,0.0,0.0,0.0,0.0,0.0,0.0,0.0,0.0,0.0,0.0,0.0,0.0,0.0,0.0,0.0,0.0,0.0,0.0,0.0,0.0,0.0,0.0,0.0,0.0,0.0,0.0,0.0,0.0,0.0,0.0,0.0,0.0,0.0,0.0,0.0,0.0,0.0,0.0,0.0,0.0,0.0,0.0,0.0,0.0,0.0,0.0,0.0,0.0,0.0,0.0,0.0,0.0,0.0,0.0,0.0,0.0,0.0,0.0,0.0,0.0,0.0,0.0,0.0,0.0,0.0,0.0,0.0,0.0,0.0,0.0,0.0,0.0,0.0,0.0,0.0,0.0,0.0,0.0,0.0,0.0,0.0,0.0,0.0,0.0,0.0,0.0,0.0,0.0,0.0,0.0,0.0,0.0,0.0,0.0,0.0,0.0,0.0,0.0,0.0,0.0,0.0,0.0,0.0,0.0,0.0,0.0,0.0,0.0,0.0,0.0,0.0,0.0,0.0,0.0,0.0,0.0,0.0,0.0,0.0,0.0,0.0,0.0,0.0,0.0,0.0,0.0,0.0,0.0,0.0,0.0,0.0,0.0,0.0,0.0,0.0,0.0,0.0,0.0,0.0,0.0,0.0,0.0,0.0,0.0,0.0,0.0,0.0,0.0,0.0,0.0,0.0,0.0,0.0,0.0,0.0,0.0,0.0,0.0,0.0,0.0,0.0,0.0,0.0,0.0,0.0,0.0,0.0,0.0,0.0,0.0,0.0,0.0,0.0,0.0,0.0,0.0,0.0,0.0,0.0,0.0,0.0,0.0,0.0,0.0,0.0,0.0,0.0,0.0,0.0,0.0,0.0,0.0,0.0,0.0,0.0,0.0,0.0,0.0,0.0,0.0,0.0,0.0,0.0,0.0,0.0,0.0,0.0,0.0,0.0,0.0,0.0,0.0,0.0,0.0,0.0,0.0,0.0,0.0,0.0,0.0,0.0,0.0,0.0,0.0,0.0,0.0,0.0,0.0,0.0,0.0,0.0,0.0,0.0,0.0,0.0,0.0,0.0,0.0,0.0,0.0,0.0,0.0,0.0,0.0,0.0,0.0,0.0,0.0,0.0,0.0,0.0,0.0,0.0,0.0,0.0,0.0,0.0,0.0,0.0,0.0,0.0,0.0,0.0,0.0,0.0,0.0,0.0,0.0,0.0,0.0,0.0,0.0,0.0,0.0,0.0,0.0,0.0,0.0,0.0,0.0,0.0,0.0,0.0,0.0,0.0,0.0,0.0,0.0,0.0,0.0,0.0,0.0,0.0,0.0,0.0,0.0,0.0,0.0,0.0,0.0,0.0,0.0,0.0,0.0,0.0,0.0,0.0,0.0,0.0,0.0,0.0,0.0,0.0,0.0,0.0,0.0,0.0,0.0,0.0,0.0,0.0,0.0,0.0,0.0,0.0,0.0,0.0,0.0,0.0,0.0,0.0,0.0,0.0,0.0,0.0,0.0,0.0,0.0,0.0,0.0,0.0,0.0,0.0,0.0,0.0,0.0,0.0,0.0,0.0,0.0,0.0,0.0,0.0,0.0,0.0,0.0,0.0,0.0,0.0,0.0,0.0,0.0,0.0,0.0,0.0,0.0,0.0,0.0,0.0,0.0,0.0,0.0,0.0,0.0,0.0,0.0,0.0,0.0,0.0,0.0,0.0,0.0,0.0,0.0,0.0,0.0,0.0,0.0,0.0,0.0,0.0,0.0,0.0,0.0,0.0,0.0,0.0,0.0,0.0,0.0,0.0,0.0,0.0,0.0,0.0,0.0,0.0,0.0,0.0,0.0,0.0,0.0,0.0,0.0,0.0,0.0,0.0,0.0,0.0,0.0,0.0,0.0,0.0,0.0,0.0,0.0,0.0,0.0,0.0,0.0,0.0,0.0,0.0,0.0,0.0,0.0,0.0,0.0,0.0,0.0,0.0,0.0,0.0,0.0,0.0,0.0,0.0,0.0,0.0,0.0,0.0,0.0,0.0,0.0,0.0,0.0,0.0,0.0,0.0,0.0,0.0,0.0,0.0,0.0,0.0,0.0,0.0,0.0,0.0,0.0,0.0,0.0,0.0,0.0,0.0,0.0,0.0,0.0,0.0,0.0,0.0,0.0,0.0,0.0,0.0,0.0,0.0,0.0,0.0,0.0,0.0,0.0,0.0,0.0,0.0,0.0,0.0,0.0,0.0,0.0,0.0,0.0,0.0,0.0,0.0,0.0,0.0,0.0,0.0,0.0,0.0,0.0,0.0,0.0,0.0,0.0,0.0,0.0,0.0,0.0,0.0,0.0,0.0,0.0,0.0,0.0,0.0,0.0,0.0,0.0,0.0,0.0,0.0,0.0,0.0,0.0,0.0,0.0,0.0,0.0,0.0,0.0,0.0,0.0,0.0,0.0,0.0,0.0,0.0,0.0,0.0,0.0,0.0,0.0,0.0,0.0,0.0,0.0,0.0,0.0,0.0,0.0,0.0,0.0,0.0,0.0,0.0,0.0,0.0,0.0,0.0,0.0,0.0,0.0,0.0,0.0,0.0,0.0,0.0,0.0,0.0,0.0,0.0,0.0,0.0,0.0,0.0,0.0,0.0,0.0,0.0,0.0,0.0,0.0,0.0,0.0,0.0,0.0,0.0,0.0,0.0,0.0,0.0,0.0,0.0,0.0,0.0,0.0,0.0,0.0,0.0,0.0,0.0,0.0,0.0,0.0,0.0,0.0,0.0,0.0,0.0,0.0,0.0,0.0,0.0,0.0,0.0,0.0,0.0,0.0,0.0,0.0,0.0,0.0,0.0,0.0,0.0,0.0,0.0,0.0,0.0,0.0,0.0,0.0,0.0,0.0,0.0,0.0,0.0,0.0,0.0,0.0,0.0,0.0,0.0,0.0,0.0,0.0,0.0,0.0,0.0,0.0,0.0,0.0,0.0,0.0,0.0,0.0,0.0,0.0,0.0,0.0,0.0,0.0,0.0,0.0,0.0,0.0,0.0,0.0,0.0,0.0,0.0,0.0,0.0,0.0,0.0,0.0,0.0,0.0,0.0,0.0,-0.9418,-0.9997,0.0,0.0,0.0,0.0,0.0,0.0,0.0,0.0,0.0,0.0,0.0,0.0,0.0,0.0,0.0,0.0,0.0,0.0,0.0,0.0,0.0,0.0,0.0,0.0,0.0,0.0,0.0,0.0,0.0,0.0,0.0,0.0,0.0,0.0,0.0,0.0,0.0,0.0,0.0,0.0,0.0,0.0,0.0,0.0,0.0,0.0,0.0,0.0,0.0,0.0,0.0,0.0,0.0,0.0,0.0,0.0,0.0,0.0,0.0,0.0,0.0,0.0,0.0,0.0,0.0,0.0,0.0,0.0,0.0,0.0,0.0,0.0,0.0,0.0,0.0,0.0,0.0,0.0,0.0,0.0,0.0,0.0,0.0,0.0,0.0,0.0,0.0,0.0,0.0,0.0,0.0,0.0,0.0,0.0,0.0,0.0,0.0,0.0,0.0,0.0,0.0,0.0,0.0,0.0,0.0,0.0,0.0,0.0,0.0,0.0,0.0,0.0,0.0,0.0,-1.088,-0.9914,0.0,0.0,0.0,0.0,0.0,0.0,0.0,0.0,0.0,0.0,0.0,0.0,0.0,0.0,0.0,0.0,0.0,0.0,0.0,0.0,0.0,0.0,0.0,0.0,0.0,0.0,0.0,0.0,0.0,0.0,0.0,0.0,0.0,0.0,0.0,0.0,0.0,0.0,0.0,0.0,0.0,0.0,0.0,0.0,0.0,0.0,0.0,0.0,0.0,0.0,0.0,0.0,0.0,0.0,0.0,0.0,0.0,0.0,0.0,0.0,0.0,0.0,0.0,0.0,0.0,0.0,0.0,0.0,0.0,0.0,0.0,0.0,0.0,0.0,0.0,0.0,0.0,0.0,0.0,0.0,0.0,0.0,0.0,0.0,0.0,0.0,0.0,0.0,0.0,0.0,0.0,0.0,0.0,0.0,0.0,0.0,0.0,0.0,0.0,0.0,0.0,0.0,0.0,0.0,0.0,0.0,0.0,0.0,-1.9113,-1.9377,-1.9432,-1.8975,-1.8722,-1.8408,-1.3169,-1.0752,-1.0632,-1.1046,0.0,0.0,0.0,0.0,0.0,0.0,0.0,0.0,0.0,0.0,0.0,0.0,0.0,0.0,0.0,0.0,0.0,0.0,0.0,0.0,0.0,0.0,0.0,0.0,0.0,0.0,0.0,0.0,0.0,0.0,0.0,0.0,0.0,0.0,0.0,0.0,0.0,0.0,-3.2911,-3.2871,-3.2211,-3.0924,-2.7105,0.0,0.0,0.0,0.0,0.0,0.0,0.0,0.0,0.0,0.0,0.0,0.0,0.0,0.0,0.0,0.0,0.0,0.0,0.0,0.0,0.0,0.0,0.0,0.0,0.0,0.0,0.0,0.0,0.0,0.0,0.0,0.0,0.0,0.0,0.0,0.0,0.0,0.0,0.0,0.0,0.0,0.0,0.0,-2.039,-1.926,0.0,0.0,0.0,0.0,0.0,0.0,0.0,0.0,0.0,0.0,0.0,0.0,0.0,-2.2309,-2.2643,-2.3428,-2.3484,-2.2739,-2.3426,-2.3206,-2.2127,-2.0724,-2.0015,-1.9816,-1.741,0.0,-1.5691,-1.401,0.0,0.0,0.0,0.0,0.0,0.0,0.0,0.0,0.0,0.0,0.0,0.0,0.0,0.0,0.0,0.0,0.0,0.0,0.0,0.0,0.0,0.0,0.0,0.0,0.0,0.0,0.0,0.0,0.0,0.0,0.0,0.0,0.0,0.0,0.0,0.0,-3.4189,-3.5202,-3.603,-3.5938,-3.5834,-3.5608,-3.241,-2.9566,-2.7063,-2.535,0.0,0.0,0.0,0.0,0.0,0.0,0.0,0.0,0.0,0.0,0.0,0.0,0.0,0.0,0.0,0.0,0.0,0.0,0.0,0.0,0.0,0.0,0.0,0.0,0.0,0.0,0.0,0.0,0.0,0.0,0.0,0.0,0.0,0.0,0.0,0.0,0.0,0.0,0.0,-2.2864,-2.3264,-2.0957,-2.1988,-2.2408,0.0,0.0,0.0,0.0,0.0,0.0,0.0,0.0,0.0,-2.5324,-2.6074,-2.6372,-2.6114,-2.6979,-2.7001,-2.6206,-2.6477,-2.6433,-2.6078,-2.5181,-2.4802,-2.4659,-2.3166,-2.2339,-2.1669,-1.6938,-1.5021,-1.4957,0.0,0.0,0.0,0.0,-1.4143,-1.4356,0.0,0.0,0.0,0.0,0.0,0.0,0.0,0.0,0.0,0.0,0.0,0.0,0.0,0.0,0.0,-3.0573,0.0,0.0,0.0,0.0,0.0,0.0,0.0,0.0,0.0,0.0,0.0,0.0,-3.6959,-3.8109,-3.8998,-3.9043,-3.9162,-3.927,-3.7436,-3.3978,-2.9444,-2.7784,-2.6123,0.0,0.0,0.0,0.0,0.0,0.0,0.0,0.0,0.0,0.0,0.0,0.0,0.0,0.0,0.0,0.0,0.0,0.0,0.0,0.0,0.0,0.0,0.0,0.0,0.0,0.0,0.0,0.0,0.0,0.0,0.0,0.0,0.0,0.0,0.0,0.0,0.0,0.0,-2.493,-2.5518,-2.2631,-2.3927,-2.4335,0.0,0.0,0.0,0.0,0.0,0.0,-2.6202,-2.7138,-2.7924,-2.8607,-2.9518,-2.9835,-2.9527,-3.0172,-3.0278,-2.9783,-2.9629,-2.9575,-2.9657,-2.9032,-2.8633,-2.8388,-2.7071,-2.6201,-2.5361,-1.9856,-1.726,-1.6624,-1.6102,-1.5819,-1.5741,-1.5892,-1.5855,-1.5757,0.0,0.0,0.0,0.0,0.0,0.0,0.0,0.0,0.0,0.0,0.0,0.0,0.0,0.0,-3.2346,-3.399,-3.4293,-3.4319,0.0,0.0,0.0,0.0,0.0,0.0,0.0,0.0,0.0,-3.8501,-3.9155,-4.0331,-4.2002,-4.2475,-4.2345,-4.1582,-4.0972,-3.8562,-3.4696,-2.9945,-2.7994,-2.7788,0.0,0.0,0.0,0.0,0.0,0.0,0.0,0.0,0.0,0.0,0.0,0.0,0.0,0.0,0.0,0.0,0.0,0.0,0.0,0.0,0.0,0.0,0.0,0.0,0.0,0.0,0.0,0.0,0.0,0.0,0.0,0.0,0.0,0.0,0.0,0.0,0.0,0.0,0.0,-2.4653,-2.5634,0.0,0.0,0.0,0.0,-2.6438,-2.8048,-2.9083,-2.9104,-2.9973,-3.0491,-3.0553,-3.1422,-3.2256,-3.3103,-3.3165,-3.3393,-3.3767,-3.3334,-3.2806,-3.2072,-3.0529,-2.9483,-2.878,-2.7211,-2.5927,-2.4806,-2.2811,-2.1574,-2.0802,-1.9031,-1.8022,-1.761,-1.7319,-1.7217,-1.7124,0.0,0.0,0.0,0.0,0.0,0.0,0.0,0.0,0.0,0.0,0.0,0.0,0.0,-3.3456,-3.4999,-3.5992,-3.7116,-3.7116,-3.56,0.0,0.0,0.0,0.0,0.0,0.0,0.0,-3.7874,-4.0383,-4.135,-4.2683,-4.4408,-4.4591,-4.4533,-4.4235,-4.364,-4.1974,-3.9262,-3.4342,-3.1501,-3.009,-2.7031,-2.5414,0.0,0.0,0.0,0.0,0.0,0.0,0.0,0.0,0.0,0.0,0.0,0.0,0.0,0.0,0.0,0.0,0.0,0.0,0.0,0.0,0.0,0.0,0.0,0.0,0.0,0.0,0.0,0.0,0.0,0.0,0.0,0.0,0.0,0.0,0.0,0.0,0.0,-2.8732,-2.9282,0.0,-2.811,-2.8752,-2.9332,-2.9622,-3.0479,-3.1319,-3.1899,-3.223,-3.2685,-3.3344,-3.3906,-3.4362,-3.4693,-3.4983,-3.4776,-3.4132,-3.4017,-3.3366,-3.2268,-3.1544,-3.1113,-3.084,-3.0073,-2.9325,-2.8632,-2.7259,-2.5035,-2.2418,-2.0763,-2.0022,-1.9787,-1.9152,-1.8891,-1.8921,0.0,0.0,0.0,0.0,0.0,0.0,0.0,0.0,0.0,0.0,0.0,-3.0962,-3.3326,-3.526,-3.6881,-3.8057,-3.8867,-3.8579,-3.6828,0.0,0.0,0.0,0.0,0.0,0.0,-3.824,-4.0095,-4.2186,-4.3337,-4.4591,-4.5924,-4.5924,-4.5924,-4.5898,-4.5506,-4.4398,-4.262,-3.8885,-3.5673,-3.2825,-2.9866,-2.8362,-2.7662,0.0,0.0,0.0,0.0,0.0,0.0,0.0,0.0,0.0,0.0,0.0,0.0,0.0,0.0,0.0,0.0,0.0,0.0,0.0,0.0,0.0,0.0,0.0,0.0,0.0,0.0,0.0,0.0,0.0,0.0,0.0,0.0,0.0,0.0,-3.1645,-3.2944,-3.2252,-3.2652,-3.2517,-3.127,-3.1567,-3.2023,-3.2457,-3.3021,-3.3679,-3.4258,-3.43,-3.4507,-3.4962,-3.5273,-3.55,-3.5645,-3.5811,-3.5418,-3.4527,-3.4655,-3.3981,-3.2717,-3.2493,-3.2336,-3.2197,-3.1701,-3.1367,-3.1035,-3.0077,-2.8087,-2.5432,-2.3178,-2.2022,-2.147,-2.0818,-2.0291,-1.9945,0.0,0.0,0.0,0.0,0.0,0.0,0.0,0.0,0.0,0.0,-2.9849,-3.151,-3.4999,-3.6436,-3.8031,-4.0278,-3.9416,-3.8501,-3.7978,-3.5037,0.0,0.0,0.0,0.0,-3.8004,-4.0252,-4.2239,-4.4017,-4.5114,-4.5976,-4.6499,-4.6525,-4.6499,-4.6473,-4.6499,-4.5872,-4.4694,-4.3364,-4.0377,-3.6162,-3.3006,-3.1806,-3.1523,0.0,0.0,0.0,0.0,0.0,0.0,0.0,0.0,0.0,0.0,0.0,0.0,0.0,0.0,0.0,0.0,0.0,0.0,0.0,0.0,0.0,0.0,0.0,0.0,0.0,0.0,0.0,0.0,0.0,0.0,0.0,0.0,0.0,-3.3947,-3.5844,-3.6621,-3.5109,-3.5681,-3.5208,-3.2523,-3.3468,-3.4422,-3.4899,-3.5666,-3.6142,-3.6142,-3.6121,-3.5894,-3.5438,-3.5418,-3.5645,-3.608,-3.5666,-3.5438,-3.5418,-3.5459,-3.4799,-3.3636,-3.3356,-3.3055,-3.2673,-3.1858,-3.1562,-3.1523,-3.1113,-3.0664,-2.987,-2.6363,-2.4132,-2.2779,-2.2333,-2.1341,-2.0281,0.0,0.0,0.0,0.0,0.0,0.0,0.0,0.0,0.0,0.0,-3.1496,-3.3796,-3.6854,-3.8945,-4.054,-4.1585,-4.0106,-3.8912,-3.8527,0.0,0.0,0.0,0.0,0.0,-4.0958,-4.2422,-4.4016,-4.5767,-4.6499,-4.6944,-4.71,-4.7519,-4.7257,-4.6499,-4.6917,-4.6682,-4.5976,-4.5597,-4.4042,-4.1347,-3.6407,-3.4193,-3.3448,0.0,0.0,0.0,0.0,0.0,0.0,0.0,0.0,0.0,0.0,0.0,0.0,0.0,0.0,0.0,0.0,0.0,0.0,0.0,0.0,0.0,0.0,0.0,0.0,0.0,0.0,0.0,0.0,0.0,0.0,0.0,-3.6257,-3.7487,-3.6433,-3.7726,-3.906,-3.9783,-3.9197,-3.8488,-3.8008,-3.7129,-3.6742,-3.7198,-3.7156,-3.697,-3.6639,-3.6287,-3.5894,-3.5438,-3.5418,-3.548,-3.5604,-3.5811,-3.5749,-3.5438,-3.5848,-3.5369,-3.4184,-3.3895,-3.3585,-3.3172,-3.2698,-3.2441,-3.2402,-3.1992,-3.1562,-3.084,-2.8103,-2.6762,-2.6299,-2.5292,-2.3958,-2.2529,0.0,0.0,0.0,0.0,0.0,0.0,0.0,0.0,0.0,0.0,-3.2124,-3.4685,-3.7586,-3.952,-4.0749,-4.1063,-3.9585,-3.8236,-3.7215,0.0,0.0,0.0,0.0,-4.0644,-4.2474,-4.4121,-4.5584,-4.6839,-4.7414,-4.7832,-4.8068,-4.8407,-4.8198,-4.7571,-4.7911,-4.7597,-4.6839,-4.6839,-4.6009,-4.4476,-4.0786,-3.8438,-3.6725,-3.3244,-3.1808,-3.1502,-2.9965,-2.9551,-2.9554,-2.8163,0.0,0.0,0.0,0.0,0.0,0.0,0.0,0.0,0.0,0.0,0.0,0.0,0.0,0.0,0.0,0.0,0.0,0.0,0.0,0.0,0.0,0.0,0.0,0.0,-3.9088,-4.1053,-4.1003,-4.175,-4.2525,-4.3132,-4.2452,-4.1678,-4.0892,-3.9495,-3.8603,-3.8486,-3.8046,-3.7591,-3.7115,-3.6825,-3.639,-3.5728,-3.5707,-3.5625,-3.5418,-3.5687,-3.5687,-3.5438,-3.6031,-3.5672,-3.461,-3.4372,-3.4037,-3.3587,-3.3031,-3.2793,-3.2754,-3.2344,-3.1914,-3.1347,0.0,0.0,0.0,0.0,-2.4811,-2.3435,0.0,0.0,0.0,0.0,0.0,0.0,0.0,0.0,0.0,0.0,0.0,-3.4528,-3.722,-3.8658,-3.9416,-3.9416,-3.8376,-3.7007,0.0,0.0,0.0,-3.63,-3.9607,-4.1977,-4.318,-4.5428,-4.6813,-4.7278,-4.7911,-4.846,-4.8982,-4.9061,-4.9087,-4.9087,-4.9139,-4.859,-4.7623,-4.7545,-4.695,-4.6093,-4.5217,-4.324,-4.0449,-3.6892,-3.5357,-3.4901,-3.3327,-3.1679,-3.0207,-3.0088,0.0,0.0,0.0,0.0,0.0,0.0,0.0,0.0,0.0,0.0,0.0,0.0,0.0,0.0,0.0,0.0,0.0,0.0,0.0,0.0,0.0,0.0,0.0,0.0,-4.1323,-4.4242,-4.6301,-4.6702,-4.6425,-4.5532,-4.5242,-4.4418,-4.246,-4.1001,-3.9929,-3.9276,-3.8548,-3.8005,-3.7591,-3.7529,0.0,0.0,0.0,-3.5914,-3.55,-3.5438,-3.5438,-3.55,-3.6011,-3.5799,-3.496,-3.4736,-3.4358,-3.3918,-3.3172,-3.2871,-3.2832,-3.2422,-3.1953,-3.1445,-3.0605,-2.9623,-2.8413,-2.6465,-2.5013,-2.3958,0.0,0.0,0.0,0.0,0.0,0.0,0.0,0.0,0.0,-2.8475,-3.1151,-3.343,-3.492,-3.6959,-3.824,-3.824,-3.7404,-3.6767,0.0,0.0,-3.6992,-3.9372,-4.1141,-4.2762,-4.4356,-4.6212,-4.7231,-4.7278,-4.7911,-4.825,-4.8381,-4.8852,-4.9087,-4.9113,-4.9531,-4.961,-4.9374,-4.893,-4.8113,-4.699,-4.6367,-4.4769,-4.2519,-3.9462,-3.8007,-3.724,-3.528,-3.5352,-3.6209,-3.5001,-3.5141,-3.5278,-3.245,0.0,0.0,0.0,0.0,0.0,0.0,0.0,0.0,0.0,0.0,0.0,0.0,0.0,0.0,0.0,0.0,0.0,0.0,0.0,0.0,-4.1684,-4.4803,-4.728,-4.8159,-4.9063,-4.9035,-4.7571,-4.6392,-4.5693,-4.5633,-4.2359,-4.0606,-4.1596,-3.9509,-3.815,-3.8046,-3.7695,-3.7239,-3.668,-3.6308,-3.608,-3.5976,-3.5604,-3.5604,-3.5976,-3.61,0.0,-3.5618,-3.5228,-3.4664,-3.4054,-3.3496,-3.3301,-3.3262,-3.2851,-3.2226,-3.1465,-3.0957,-3.0645,-3.0219,-2.8394,-2.7416,-2.6619,0.0,0.0,0.0,0.0,0.0,0.0,0.0,0.0,0.0,0.0,-3.0241,-3.2291,-3.3416,-3.5103,-3.5913,-3.5338,-3.4552,0.0,0.0,-3.6538,-3.8069,-4.0749,-4.2526,-4.4016,-4.5166,-4.6547,-4.7278,-4.7278,-4.7911,-4.8486,-4.9035,-4.9348,-4.9636,-4.9949,-5.0211,-5.0159,-4.9845,-4.9117,-4.8428,-4.7675,-4.7026,-4.5955,-4.4383,-4.227,-4.0887,-3.9864,-3.8557,-3.8074,-3.7871,-3.7139,-3.6982,-3.6677,-3.4581,-3.286,-3.1437,0.0,0.0,0.0,0.0,0.0,0.0,0.0,0.0,0.0,0.0,0.0,0.0,0.0,0.0,-3.5064,-3.7304,0.0,-4.3044,-4.4388,-4.6935,-4.8862,-4.9138,-4.9665,-4.969,-4.8862,-4.7916,-4.7238,-4.7034,-4.463,-4.2781,-4.2075,-4.0531,-3.9178,-3.8258,-3.7964,-3.7632,-3.7156,-3.6929,-3.6701,-3.6453,-3.5997,-3.5894,-3.6121,-3.6159,-3.5942,-3.5429,-3.53,-3.4794,-3.4043,-3.3613,-3.3301,-3.3066,-3.2422,-3.1894,-3.1484,-3.1055,-3.0898,-3.0781,-2.9661,-2.8782,-2.7776,0.0,0.0,0.0,0.0,0.0,0.0,0.0,0.0,0.0,0.0,-2.9063,-3.083,-3.1617,-3.2842,-3.3247,0.0,0.0,0.0,0.0,-3.7111,-3.909,-4.1533,-4.3546,-4.4931,-4.5611,-4.6469,-4.7043,-4.7278,-4.7911,-4.8773,-4.9897,-5.0002,-5.0394,-5.0943,-5.0881,-5.062,-5.0063,-4.9084,-4.8498,-4.8119,-4.7428,-4.6603,-4.5699,-4.4515,-4.3407,-4.2345,-4.1573,-4.0074,-3.8382,-3.8523,-3.7977,-3.7076,-3.6207,-3.5151,-3.3981,-3.2277,-3.1317,0.0,0.0,0.0,0.0,0.0,0.0,0.0,0.0,0.0,-3.4676,-3.6552,-3.7681,-3.908,-4.1719,-4.4383,-4.6273,-4.6788,-4.8586,-4.9891,-4.9766,-4.9665,-4.9565,-4.9439,-4.9038,-4.8515,-4.7904,-4.6657,-4.4919,-4.2571,-4.1484,-4.0274,-3.8528,-3.8274,-3.8026,-3.7632,-3.755,-3.7322,-3.6949,-3.6473,-3.6204,-3.6121,-3.6239,-3.5858,-3.503,-3.5091,-3.473,-3.4054,-3.3574,-3.3223,-3.2851,-3.209,-3.1758,-3.1719,-3.1211,-3.1016,-3.0937,-3.0391,-2.9604,-2.8492,0.0,0.0,0.0,0.0,0.0,0.0,0.0,0.0,0.0,0.0,0.0,0.0,0.0,0.0,0.0,0.0,0.0,0.0,-3.6671,-3.8402,-4.0386,-4.2735,-4.3572,-4.4487,-4.5611,-4.5686,-4.626,-4.7278,-4.7911,-4.8773,-4.9897,-5.0446,-5.0969,-5.1518,-5.1205,-5.1053,-5.0861,-4.9466,-4.8723,-4.8339,-4.7272,-4.6332,-4.5481,-4.5143,-4.47,-4.4173,-4.261,-4.1232,-4.0207,-4.0743,-4.0342,-3.9467,-3.8741,-3.7847,-3.6614,-3.4342,0.0,-3.1583,-3.119,-3.1631,-3.2764,-3.5378,-3.568,-3.6175,0.0,-3.9496,-3.9448,-4.1658,-4.2552,-4.3503,-4.5415,-4.7218,-4.8611,-4.916,-5.0278,-5.0921,-5.0393,-4.9916,-4.9414,-4.8912,-4.8812,-4.8924,-4.9346,-4.7262,-4.5616,-4.4867,-4.246,-4.0509,-3.944,-3.8626,-3.8171,-3.8109,-3.7715,-3.7467,-3.7425,-3.697,-3.6515,-3.6121,-3.61,-3.5704,-3.4941,-3.4606,-3.4293,-3.3938,-3.3564,-3.3398,-3.332,-3.2851,-3.2656,-3.2578,-3.1758,-3.1445,-3.1348,-3.0508,-3.0138,-2.9775,0.0,0.0,0.0,0.0,0.0,0.0,0.0,0.0,0.0,0.0,0.0,0.0,0.0,0.0,0.0,0.0,0.0,0.0,-3.6279,-3.8449,-4.0775,-4.3415,-4.4408,-4.5114,-4.5555,-4.6234,-4.6808,-4.7278,-4.7911,-4.8616,-4.9427,-4.9688,-5.008,-5.0629,-5.0845,-5.0757,-5.0331,-4.9532,-4.884,-4.8176,-4.7231,-4.6203,-4.5193,-4.4428,-4.3444,-4.2418,-4.1894,-4.1102,0.0,0.0,-3.9652,-3.9474,-3.9164,-3.8288,-3.7072,-3.5787,-3.4502,0.0,-3.2982,-3.3524,-3.4659,-3.6438,-3.7889,-3.9387,-4.1306,-4.1577,-4.2083,-4.4352,-4.544,-4.6695,-4.8846,-5.0042,-5.0795,0.0,-5.1172,-5.0971,-5.0067,-4.9163,-4.841,-4.7883,-4.7531,-4.7682,-4.8535,-4.7954,-4.689,-4.5255,-4.3625,-4.1904,-3.9984,-3.8846,-3.8191,-3.8191,-3.8005,-3.7902,-3.7902,-3.7446,-3.7115,-3.6908,-3.6908,-3.6483,-3.5763,-3.5634,-3.4987,-3.398,-3.3598,-3.3418,-3.3379,-3.2969,-3.2656,-3.2363,-3.1758,-3.1367,-3.1113,-3.0742,-3.0605,-3.0393,0.0,0.0,0.0,0.0,0.0,0.0,0.0,0.0,0.0,0.0,0.0,0.0,0.0,0.0,0.0,0.0,0.0,0.0,0.0,-3.7573,-4.0357,-4.3049,-4.4434,-4.5297,-4.5555,-4.6447,-4.6887,-4.71,-4.7832,-4.8407,-4.8852,-4.9165,-4.9427,-4.9688,-5.0106,-4.9967,-4.9455,-4.9092,-4.848,-4.7769,-4.7056,-4.5796,-4.43,-4.3239,-4.1725,-4.0126,-4.026,-3.9695,0.0,0.0,-3.7785,-3.782,-3.818,-3.763,-3.6729,-3.6128,-3.5127,-3.4274,-3.4349,-3.5315,-3.6726,-3.8191,-4.0526,-4.2712,-4.3723,-4.4317,-4.5269,-4.74,-4.8428,-4.9436,-5.1214,-5.195,-5.2277,-5.2126,-5.1649,-5.0946,-4.9967,-4.8586,-4.7431,-4.6753,-4.605,-4.5924,-4.6702,-4.7707,-4.7507,-4.5435,-4.4765,-4.3483,-4.1261,-3.9774,-3.8937,-3.8937,-3.8433,-3.8191,-3.8191,-3.786,-3.7612,-3.7488,-3.7488,-3.7016,-3.6183,-3.5847,-3.5057,-3.3887,-3.3555,-3.3418,-3.3398,-3.3086,-3.2793,-3.2461,-3.1914,-3.1523,-3.1211,-3.0976,-3.0898,-3.0762,0.0,0.0,0.0,0.0,0.0,0.0,0.0,0.0,0.0,0.0,0.0,0.0,0.0,0.0,0.0,0.0,0.0,0.0,0.0,-3.5781,-3.8972,-4.1298,-4.3023,-4.446,-4.5611,-4.5607,-4.595,-4.6499,-4.7623,-4.8198,-4.8224,-4.9348,-4.9584,-4.9139,-4.9022,-4.8823,-4.8498,-4.7921,-4.7469,-4.7172,-4.6642,-4.4908,-4.2624,-4.1771,-4.0054,-3.7983,-3.8009,0.0,0.0,0.0,-3.4845,-3.4384,-3.5607,-3.5953,0.0,-3.4997,-3.3997,-3.347,-3.5031,-3.6661,-3.8567,-4.1383,-4.3689,-4.5924,-4.8109,-4.8974,-4.9851,-5.1557,-5.1933,-5.1983,-5.2076,-5.2528,-5.2729,-5.2201,-5.1649,-5.1071,-5.0469,-4.8535,-4.6753,-4.5673,-4.4543,-4.389,0.0,-4.5899,-4.6737,-4.5854,-4.5814,-4.5148,-4.3671,-4.186,-4.0891,-4.0891,-3.9178,-3.8191,-3.8191,-3.8171,-3.7943,-3.7488,-3.7488,-3.6817,-3.5572,-3.4495,-3.3773,-3.3437,-3.3437,-3.3418,-3.3418,-3.3418,-3.3398,-3.3301,-3.248,-3.2148,-3.2031,-3.1191,-3.0898,-3.0898,0.0,0.0,0.0,0.0,0.0,0.0,0.0,0.0,0.0,0.0,0.0,0.0,0.0,0.0,0.0,0.0,0.0,0.0,0.0,-3.4364,-3.7037,-3.8972,-4.1063,-4.2709,-4.3885,-4.4643,-4.5506,-4.6473,-4.7231,-4.7623,-4.7623,-4.8407,-4.8669,-4.8512,-4.8849,-4.8529,-4.7704,-4.7892,-4.7386,-4.6263,-4.4616,-4.3496,-4.2509,-3.9287,-3.7334,-3.6083,0.0,0.0,0.0,0.0,-3.3209,-3.354,-3.3964,-3.4016,-3.3819,-3.3376,-3.3683,-3.4525,-3.6182,-3.8642,-4.143,-4.4217,-4.6301,-4.8159,-5.0017,-5.0594,-5.067,-5.0469,-5.0142,-4.9665,-4.8937,-4.8962,-4.9389,-5.0293,-4.9967,-4.9665,-4.9841,-4.8586,-4.6979,-4.5146,-4.4568,0.0,0.0,0.0,0.0,-4.5561,-4.4523,-4.3525,-4.2729,-4.0693,-3.9428,-3.9112,-3.852,-3.8191,-3.8191,-3.8191,-3.8109,-3.7943,-3.7678,-3.7085,-3.6082,-3.5251,-3.4507,-3.3828,-3.3555,-3.3418,-3.3418,-3.3418,-3.3262,-3.2969,-3.2695,-3.2226,-3.166,-3.1094,-3.0703,-3.043,0.0,0.0,0.0,0.0,0.0,0.0,0.0,0.0,0.0,0.0,0.0,0.0,0.0,0.0,0.0,0.0,0.0,0.0,0.0,0.0,-3.4234,-3.5971,-3.8069,-3.9599,-4.054,-4.169,-4.2552,-4.3101,-4.4278,-4.4774,-4.4591,-4.5584,-4.5924,-4.5767,-4.6673,-4.6595,-4.5764,-4.6074,-4.5441,-4.4165,-4.2086,-4.0818,-3.9719,-3.6199,-3.4486,0.0,0.0,0.0,0.0,-3.1837,-3.1863,-3.2289,-3.2289,-3.2371,-3.2612,-3.3233,-3.4432,-3.6107,-3.8341,-4.1157,-4.3966,-4.6552,-4.8284,-4.964,-5.072,-5.082,-5.0368,-4.9213,-4.8259,-4.7305,-4.6401,-4.5924,-4.62,-4.7857,-4.7657,-4.7682,-4.8837,-4.7883,-4.632,-4.4423,-4.3844,-4.3299,0.0,0.0,0.0,-4.466,-4.407,-4.3363,-4.2752,-4.0867,-3.9812,-3.9685,-3.8687,-3.8253,-3.8419,-3.8253,-3.8125,-3.7971,-3.731,-3.6587,-3.5956,-3.5032,-3.4359,-3.3828,-3.3535,-3.3418,-3.3418,-3.3418,-3.3262,-3.3008,-3.2851,-3.2266,-3.1484,-3.1211,-3.0625,-2.998,0.0,0.0,0.0,0.0,0.0,0.0,0.0,0.0,0.0,0.0,0.0,0.0,0.0,0.0,0.0,0.0,0.0,0.0,0.0,0.0,0.0,-3.2352,-3.4098,-3.5305,-3.5878,-3.7071,-3.7436,-3.6914,-3.9107,-3.9991,-3.952,-4.1167,-4.1638,-4.1117,-4.2528,-4.2917,-4.2605,-4.2398,-4.1826,-4.0906,-3.9107,-3.7007,-3.4641,-3.2695,0.0,0.0,0.0,0.0,0.0,-3.0823,-3.0965,-3.0879,-3.0905,-3.1368,-3.2396,-3.4654,-3.6319,-3.8215,-4.1534,-4.3966,-4.6175,-4.836,-4.964,-5.0368,-5.0343,-4.9891,-4.9113,-4.7883,-4.6351,-4.502,0.0,0.0,-4.3388,-4.5121,-4.5045,-4.5522,-4.7732,-4.6702,-4.5196,0.0,0.0,0.0,0.0,0.0,0.0,-4.3068,-4.4108,-4.4324,-4.3628,-4.2327,-4.1806,-4.2264,-3.9618,-3.8419,-3.8786,-3.8398,-3.7971,-3.7616,-3.6431,-3.5681,-3.5276,-3.4059,-3.3457,-3.3418,-3.3418,-3.3418,-3.3418,-3.3398,-3.3398,-3.3379,-3.2969,-3.2305,-3.1582,-3.1543,-3.0723,-2.9629,0.0,0.0,0.0,0.0,0.0,0.0,0.0,0.0,0.0,0.0,0.0,0.0,0.0,0.0,0.0,0.0,0.0,0.0,0.0,0.0,0.0,0.0,0.0,0.0,0.0,0.0,0.0,0.0,0.0,-3.7795,-3.7691,-3.8579,-3.8684,0.0,-3.8929,-3.8747,-3.79,-3.8251,-3.8017,-3.7227,0.0,-3.4552,-3.422,0.0,0.0,0.0,0.0,0.0,0.0,0.0,-3.1967,-3.3491,-3.3685,-3.4504,-3.5782,-3.7642,-3.9626,-4.1799,-4.4526,-4.6552,-4.836,-5.0193,-5.0218,-4.969,-4.9289,-4.846,-4.6979,-4.4192,-4.2635,-4.1229,-3.9421,0.0,0.0,-4.384,-4.5497,0.0,-4.9464,-4.9414,0.0,-4.5507,0.0,-4.3891,-4.1594,-4.1263,0.0,-4.1388,-4.1343,-4.159,-4.2126,-4.1139,-4.0486,-4.0255,-3.9176,-3.8662,-3.8786,-3.8398,-3.7971,-3.7616,-3.7325,-3.6461,-3.5295,-3.4947,-3.43,-3.3418,-3.3418,-3.3418,-3.3398,-3.3086,-3.3144,-3.3379,-3.2969,-3.2656,-3.2402,-3.1758,-3.1113,-3.0469,0.0,0.0,0.0,0.0,0.0,0.0,0.0,0.0,0.0,0.0,0.0,0.0,0.0,0.0,0.0,0.0,0.0,0.0,0.0,0.0,0.0,0.0,0.0,0.0,0.0,0.0,0.0,0.0,0.0,0.0,0.0,-3.4842,-3.5008,-3.4721,-3.5365,-3.5234,-3.4607,0.0,0.0,0.0,0.0,0.0,0.0,0.0,0.0,0.0,0.0,0.0,0.0,0.0,0.0,-3.3612,-3.5527,-3.6763,-3.8061,-4.0917,-4.2996,-4.4922,-4.7115,-4.8611,-4.9665,-5.0368,-4.969,-4.846,-4.6928,-4.5748,-4.3991,-4.0704,-3.9094,-3.7815,-3.6383,-3.7061,-3.8843,0.0,0.0,0.0,-4.9289,-4.9464,-4.8625,0.0,-4.5735,0.0,-4.2051,-4.1199,-4.0756,-4.0533,-4.0597,-4.0774,-4.1006,-4.0494,-4.0199,-4.0137,-3.922,-3.875,-3.8564,-3.8316,-3.7904,-3.7348,-3.7145,-3.6349,-3.5034,-3.4837,-3.4255,-3.3418,-3.3418,-3.3418,-3.3379,-3.2969,-3.3047,-3.3379,-3.2969,-3.2676,-3.248,-3.2187,-3.1582,-3.084,0.0,0.0,0.0,0.0,0.0,0.0,0.0,0.0,0.0,0.0,0.0,0.0,0.0,0.0,0.0,0.0,0.0,0.0,0.0,0.0,0.0,0.0,0.0,0.0,0.0,0.0,0.0,0.0,0.0,0.0,0.0,0.0,0.0,0.0,0.0,0.0,0.0,0.0,0.0,0.0,0.0,0.0,0.0,0.0,0.0,0.0,0.0,0.0,0.0,0.0,-3.296,-3.3379,-3.7318,-3.8874,-4.0079,-4.4457,-4.6382,-4.7439,-4.9492,-5.0218,-5.0393,-4.9841,-4.8686,-4.7004,-4.4292,-4.266,-4.0855,-3.7538,-3.6056,-3.5082,-3.4455,-3.5031,-3.6686,-3.9998,0.0,-4.4543,-4.8435,-4.856,-4.804,-4.7588,-4.5809,-4.3849,-4.1915,-4.0546,-3.9972,-4.0386,-4.1034,-4.1087,-4.0373,-4.0323,-4.0468,-4.0779,-3.964,-3.8792,-3.8274,-3.8274,-3.7898,-3.7146,-3.6676,-3.5944,-3.4831,-3.442,-3.3926,-3.3496,-3.3437,-3.3418,-3.3379,-3.2969,-3.3008,-3.3301,-3.293,-3.2578,-3.2285,-3.2656,-3.209,-3.1191,0.0,0.0,0.0,0.0,0.0,0.0,0.0,0.0,0.0,0.0,-2.1683,-2.2731,0.0,0.0,0.0,0.0,0.0,0.0,0.0,0.0,0.0,0.0,0.0,0.0,0.0,0.0,0.0,0.0,0.0,0.0,0.0,0.0,0.0,0.0,0.0,0.0,0.0,0.0,0.0,0.0,0.0,0.0,0.0,0.0,0.0,0.0,0.0,0.0,0.0,0.0,-3.4439,-3.7958,-4.1538,-4.2781,-4.3808,-4.8382,-4.901,-4.878,-5.1405,-5.1598,-5.0996,-5.0419,-4.841,-4.5974,-4.3639,-4.1257,0.0,-3.573,-3.4625,-3.3872,-3.2842,-3.46,-3.7161,-4.0049,-4.266,-4.5698,-4.959,-5.0042,-4.9249,0.0,-4.6335,-4.4701,-4.1909,-4.1357,0.0,-4.1338,-4.1471,-4.1355,-4.0779,-4.0758,-4.0634,-4.0344,-4.0096,-3.9558,-3.8662,-3.8662,-3.8274,-3.7482,-3.7132,-3.6536,-3.5679,-3.4916,-3.4355,-3.3945,-3.3574,-3.3418,-3.3379,-3.2969,-3.2832,-3.2891,-3.2832,-3.2754,-3.2695,-3.2773,-3.2656,-3.2422,0.0,0.0,0.0,0.0,0.0,0.0,0.0,-1.9409,-2.0062,-2.0099,-2.191,-2.3017,-2.2593,-2.3545,0.0,0.0,0.0,0.0,0.0,0.0,0.0,0.0,0.0,0.0,0.0,0.0,0.0,0.0,0.0,0.0,0.0,0.0,0.0,0.0,0.0,0.0,0.0,0.0,0.0,0.0,0.0,0.0,0.0,0.0,0.0,0.0,0.0,0.0,0.0,0.0,-3.3727,-3.7239,-4.1446,-4.3357,-4.4768,-4.8124,-4.9488,-5.0147,-5.1419,-5.1674,-5.1261,-4.9906,-4.7255,-4.4192,-4.1103,0.0,0.0,-3.3169,-3.2591,-3.2416,-3.1888,-3.3822,-3.6307,-3.8818,-4.1053,-4.394,-4.8134,-4.8711,-4.8417,-4.7732,-4.7098,-4.5743,-4.3007,-4.2282,-4.1814,-4.1586,-4.1338,-4.111,-4.0882,-4.0882,-4.0675,-4.0241,-4.022,-3.9889,-3.9137,-3.8889,-3.8527,-3.7963,-3.7402,-3.6703,-3.5865,-3.51,-3.459,-3.4355,-3.3711,-3.3555,-3.3711,-3.3066,-3.2793,-3.2773,-3.2559,-3.248,-3.25,-3.2715,-3.2793,-3.2793,0.0,0.0,0.0,0.0,0.0,0.0,0.0,-1.9353,-2.0102,-2.006,-2.1873,-2.273,-2.1539,-2.2832,-2.352,0.0,0.0,0.0,0.0,0.0,0.0,0.0,0.0,0.0,0.0,0.0,0.0,-2.4838,0.0,0.0,0.0,0.0,0.0,0.0,0.0,0.0,0.0,0.0,0.0,0.0,0.0,0.0,0.0,0.0,0.0,0.0,0.0,0.0,0.0,0.0,-3.2032,-3.4472,-3.8984,-4.1845,-4.4007,-4.659,-4.8656,-5.0277,-5.09,-5.1245,-5.1043,-4.9252,-4.6175,-4.2635,-3.8868,-3.6107,0.0,-3.1135,-3.0934,-3.126,-3.1361,-3.3018,-3.5102,0.0,-3.8969,-4.148,-4.5824,-4.6728,-4.7133,0.0,-4.7423,0.0,-4.3729,-4.2752,0.0,-4.1607,-4.1131,-4.0882,-4.0882,-4.0882,-4.0717,-4.0386,-4.0365,-4.0096,-3.9468,-3.9117,-3.8691,-3.8146,-3.7462,-3.6696,-3.6003,-3.5237,-3.4844,-3.4805,-3.3926,-3.375,-3.4023,-3.3242,-3.2871,-3.2754,-3.2422,-3.2307,-3.2226,-3.2637,-3.2793,-3.2851,0.0,0.0,0.0,0.0,0.0,0.0,0.0,-1.8976,-1.9351,-2.0719,-2.1465,-2.1419,-2.0223,-2.157,-2.2387,0.0,0.0,0.0,0.0,0.0,0.0,0.0,0.0,0.0,0.0,0.0,0.0,-2.4273,-2.4345,0.0,0.0,0.0,0.0,0.0,0.0,0.0,0.0,0.0,0.0,0.0,0.0,0.0,0.0,0.0,0.0,0.0,0.0,0.0,0.0,0.0,0.0,-3.1204,-3.4578,-3.8021,-4.1484,-4.5386,0.0,0.0,-5.0665,-5.0907,-5.0048,-4.906,-4.5899,-4.2158,-3.8793,0.0,-3.2742,-3.0984,-3.0658,-3.0834,-3.1311,-3.239,-3.3947,-3.6204,0.0,-3.9597,-4.3564,-4.5422,-4.6104,-4.5499,0.0,0.0,-4.2701,-4.2375,-4.2136,-4.1607,-4.1131,-4.0882,-4.0882,-4.0882,-4.0862,-4.082,-4.082,-4.0406,-3.9468,-3.9426,-3.8856,-3.7677,-3.7301,-3.6856,-3.644,-3.5642,-3.5332,-3.5273,-3.4394,-3.4043,-3.4043,-3.3555,-3.3144,-3.2793,-3.2754,-3.25,-3.2226,-3.2637,-3.2793,-3.2851,0.0,0.0,0.0,0.0,0.0,0.0,-1.8395,-1.9107,-1.9659,-1.9935,-2.1041,-2.1236,-1.9703,-2.0375,-2.0936,-2.0992,0.0,0.0,0.0,0.0,0.0,0.0,0.0,0.0,0.0,0.0,0.0,-2.4636,-2.4039,0.0,0.0,0.0,0.0,0.0,0.0,-2.4539,0.0,0.0,0.0,0.0,0.0,0.0,0.0,0.0,0.0,0.0,0.0,0.0,-2.6306,0.0,0.0,0.0,-3.14,-3.3716,0.0,0.0,-4.4549,-4.66,-4.8886,-4.9199,-4.8748,-4.7933,-4.4011,-3.9717,-3.7517,0.0,-3.1687,-3.0382,-3.0131,-3.0382,-3.1235,-3.1763,-3.2692,-3.4575,0.0,0.0,-3.9823,-4.148,-4.2503,-4.3028,-4.4662,-4.4913,0.0,0.0,-4.2032,-4.1214,-4.0986,-4.0882,-4.0882,-4.0882,-4.0882,-4.0882,-4.0882,-4.0696,-4.0344,-3.9795,-3.9204,-3.8432,-3.7554,-3.6933,-3.6499,-3.5768,-3.5391,-3.5351,-3.4453,-3.4082,-3.4043,-3.3594,-3.3027,-3.2422,-3.2422,-3.2012,-3.1484,-3.2168,-3.2422,-3.2519,0.0,0.0,0.0,0.0,0.0,-1.7147,-1.7844,-1.8919,-1.9545,-1.9169,-2.0391,-2.0799,-1.9463,-1.9457,-1.9638,-1.9927,-2.0854,0.0,0.0,0.0,0.0,0.0,0.0,0.0,0.0,0.0,0.0,-2.4705,-2.4118,-2.4278,0.0,0.0,-2.4026,-2.4407,0.0,0.0,0.0,0.0,0.0,0.0,0.0,0.0,0.0,0.0,0.0,0.0,0.0,0.0,0.0,0.0,0.0,0.0,0.0,0.0,0.0,0.0,-4.1749,-4.4948,-4.6786,-4.7439,-4.742,-4.6488,-4.2283,-3.7911,0.0,0.0,-3.045,-2.9927,-2.9585,-2.9831,-3.1145,-3.1386,-3.1888,0.0,0.0,-3.4259,-3.6898,-3.8336,-3.9564,-4.0564,0.0,-4.3054,-4.1991,-4.2,-4.1845,-4.1131,-4.1089,-4.1027,-4.0882,-4.0882,-4.0882,-4.0882,-4.0882,-4.082,-4.0696,-4.0083,-3.9482,-3.8824,-3.7846,-3.7103,-3.6513,-3.5897,-3.5508,-3.5351,-3.4726,-3.4316,-3.4043,-3.375,-3.3184,-3.2519,-3.2266,-3.1797,-3.1328,-3.1797,-3.2051,-3.2266,0.0,0.0,0.0,0.0,0.0,0.0,-1.744,-1.8192,-1.8724,-1.8724,-1.9439,-1.9769,-1.9347,-1.8962,-1.8724,-1.8724,-1.9812,0.0,0.0,0.0,0.0,0.0,0.0,0.0,0.0,0.0,0.0,-2.42,-2.4659,-2.5164,-2.5693,-2.5164,-2.4889,-2.4889,0.0,0.0,0.0,0.0,0.0,0.0,0.0,0.0,0.0,0.0,0.0,0.0,0.0,0.0,0.0,0.0,0.0,0.0,0.0,0.0,0.0,0.0,-3.7938,-4.1573,-4.4435,-4.5828,-4.6032,-4.4595,-4.1176,-3.7436,-3.4486,-3.1196,-2.893,-2.9653,-2.9131,-2.9107,-3.1063,-3.1386,-3.1763,-3.2893,0.0,0.0,-3.5379,-3.6888,-3.7926,0.0,-3.9051,-3.9715,-3.9571,-4.0779,-4.1565,-4.1565,-4.1565,-4.1358,-4.0903,-4.0882,-4.0882,-4.0882,-4.0882,-4.0675,-4.0241,-4.0241,-3.9573,-3.8386,-3.7964,-3.7419,-3.6641,-3.6211,-3.5781,-3.5391,-3.5391,-3.4883,-3.4082,-3.4062,-3.3809,-3.332,-3.25,-3.2168,-3.2109,-3.168,-3.1797,-3.2226,0.0,0.0,0.0,0.0,0.0,0.0,0.0,-1.7532,-1.788,-1.788,-1.8357,-1.8612,-1.8504,-1.8394,-1.8283,-1.8283,-1.8898,0.0,0.0,0.0,0.0,0.0,0.0,0.0,0.0,0.0,-2.4164,-2.5233,-2.4682,-2.505,-2.626,-2.5325,-2.5119,-2.5463,-2.5302,0.0,0.0,0.0,0.0,0.0,0.0,0.0,0.0,0.0,0.0,0.0,0.0,0.0,0.0,0.0,0.0,0.0,0.0,0.0,0.0,0.0,0.0,0.0,-3.9844,-4.0044,-3.9922,-4.0495,-3.6843,-3.3124,-3.3004,-3.1233,-2.9457,-2.901,-2.8712,-2.897,-3.0548,-3.0647,-3.1196,-3.3308,-3.4098,0.0,0.0,0.0,-3.838,-3.8799,-4.0684,-4.1863,-4.1814,-4.1959,-4.199,-4.1586,-4.1276,-4.1027,-4.0882,-4.0882,-4.0882,-4.0882,-4.0882,-4.082,-4.0675,-4.0083,-3.9342,-3.8476,-3.7777,-3.6986,-3.623,-3.6094,-3.5801,-3.5391,-3.5391,-3.4902,-3.4082,-3.4082,-3.3652,-3.2969,-3.2695,-3.2422,-3.2248,-3.2324,-3.248,-3.2656,0.0,0.0,0.0,0.0,0.0,0.0,0.0,-1.7147,-1.7385,-1.7092,-1.7532,-1.788,-1.788,-1.7752,-1.7715,-1.788,-1.8119,0.0,0.0,0.0,0.0,0.0,0.0,0.0,0.0,-2.3299,-2.4347,-2.5716,-2.5073,-2.5555,-2.7042,-2.5968,-2.567,-2.5991,-2.5807,0.0,0.0,0.0,0.0,0.0,0.0,0.0,-2.6536,0.0,0.0,0.0,0.0,0.0,0.0,0.0,0.0,0.0,0.0,0.0,0.0,0.0,-3.0761,-3.3423,0.0,-3.6295,-3.5926,-3.6621,-3.3581,-3.0493,-3.0743,-2.9452,-2.8149,-2.8015,-2.7971,-2.8418,-2.9843,-3.0212,-3.0942,-3.2932,-3.3545,-3.406,-3.4968,-3.6208,-3.7494,-3.8719,-4.0805,-4.2207,-4.2393,-4.2311,-4.2219,-4.1928,-4.14,-4.1069,-4.0882,-4.0882,-4.0882,-4.0882,-4.0882,-4.08,-4.0613,-4.0297,-3.9646,-3.8705,-3.8006,-3.7233,-3.6455,-3.6162,-3.5801,-3.541,-3.5566,-3.5039,0.0,-3.4238,-3.3809,-3.3008,-3.2851,-3.2539,-3.2187,-3.2285,-3.2422,-3.2598,0.0,0.0,0.0,0.0,0.0,0.0,0.0,-1.6982,-1.7183,-1.6416,-1.7,-1.7458,-1.7458,-1.7128,-1.7073,-1.7458,0.0,0.0,0.0,0.0,0.0,0.0,0.0,0.0,0.0,-2.3568,-2.4613,-2.5716,-2.5761,-2.6519,-2.7966,-2.7042,-2.6605,-2.6582,-2.6037,-2.5807,0.0,0.0,0.0,0.0,0.0,0.0,0.0,0.0,0.0,0.0,0.0,0.0,0.0,0.0,0.0,0.0,0.0,0.0,0.0,0.0,0.0,0.0,0.0,-3.3944,-3.3474,-3.2935,-3.1109,-2.9198,-2.8067,-2.653,0.0,-2.6761,-2.7017,-2.7487,-2.9073,-2.991,-3.0792,-3.2064,-3.2247,-3.2381,-3.2948,-3.4306,-3.6024,-3.8124,-3.9951,-4.1193,-4.1483,-4.1959,-4.2322,-4.2281,-4.1845,-4.1338,-4.0903,-4.0882,-4.0862,-4.082,-4.082,-4.0613,-4.0199,-4.0572,-4.0203,-3.8922,-3.8555,-3.7966,-3.7153,-3.6348,-3.5801,-3.5469,-3.5859,-3.5312,-3.4199,-3.4551,-3.4219,-3.3418,-3.2969,-3.2559,-3.2168,-3.1719,-3.1836,-3.2207,0.0,0.0,0.0,0.0,0.0,0.0,0.0,0.0,0.0,0.0,-1.6927,-1.7037,-1.7037,-1.6963,-1.7073,0.0,0.0,0.0,0.0,0.0,0.0,0.0,0.0,0.0,0.0,-2.2373,-2.3925,-2.5716,-2.6106,-2.6864,-2.7966,-2.7778,-2.7663,-2.7598,-2.7093,-2.6657,-2.6352,0.0,0.0,0.0,0.0,0.0,0.0,0.0,0.0,0.0,-2.6393,-2.6213,0.0,0.0,0.0,0.0,0.0,0.0,0.0,0.0,-2.5216,-2.4964,-2.6864,0.0,-2.8243,-2.8651,-2.7479,-2.6398,0.0,-2.6563,-2.6174,-2.6137,-2.611,-2.6877,-2.9427,-2.892,-2.9155,-3.2502,-3.2695,-3.286,-3.4175,-3.6885,-3.898,-3.9633,-4.1648,-4.2456,-4.1172,-4.1772,-4.2177,-4.1752,-4.1296,-4.0986,-4.0882,-4.0882,-4.0717,-4.0386,-4.0386,-4.0323,-4.022,-3.9972,-3.9371,-3.8453,-3.7766,-3.7205,-3.6697,-3.6191,-3.5976,-3.5879,-3.5976,-3.5664,-3.5059,-3.4805,-3.4394,-3.3848,-3.3086,-3.2734,-3.2598,-3.2168,-3.2285,-3.2656,0.0,0.0,0.0,0.0,0.0,0.0,0.0,0.0,0.0,0.0,0.0,0.0,0.0,0.0,0.0,0.0,0.0,0.0,0.0,0.0,0.0,0.0,0.0,0.0,-2.1808,-2.3054,-2.4705,-2.6749,-2.6795,-2.7461,-2.8677,-2.8195,-2.7989,-2.7966,-2.7461,-2.7094,-2.6909,-2.7822,-2.7545,0.0,-2.7165,0.0,0.0,0.0,0.0,0.0,-2.5983,-2.5737,0.0,-2.5338,-2.5253,-2.5253,0.0,0.0,0.0,0.0,-2.457,-2.3944,-2.4409,-2.5008,-2.5612,-2.6253,-2.5786,-2.5365,-2.5913,0.0,0.0,-2.5274,-2.5678,-2.6619,-2.8153,-2.8107,-2.872,-3.1363,-3.1739,-3.2495,-3.4795,-3.705,-3.907,-4.0643,-4.2104,-4.2766,-4.2186,-4.2207,-4.2136,-4.1607,-4.1131,-4.0882,-4.0882,-4.0882,-4.0675,-4.0241,-4.022,-3.9964,-3.953,-3.935,-3.8863,-3.7983,-3.7401,-3.6921,-3.6539,-3.6152,-3.6016,-3.6016,-3.6016,-3.5781,-3.5351,-3.4883,-3.4453,-3.4004,-3.334,-3.2969,-3.2773,-3.2539,-3.248,-3.2539,0.0,0.0,0.0,0.0,0.0,0.0,0.0,0.0,0.0,0.0,0.0,0.0,0.0,0.0,0.0,0.0,0.0,0.0,0.0,0.0,0.0,0.0,0.0,-2.2094,-2.3208,-2.4265,-2.5761,-2.7759,-2.7483,-2.8035,-2.9366,-2.8494,-2.8008,-2.7778,-2.73,-2.7099,-2.7081,-2.7806,-2.7503,-2.6615,-2.7276,0.0,0.0,0.0,0.0,0.0,0.0,0.0,0.0,-2.4615,-2.4507,-2.4507,-2.4507,0.0,0.0,0.0,0.0,0.0,-2.3929,-2.4364,-2.4864,-2.4956,-2.5079,-2.5168,-2.5106,0.0,0.0,0.0,-2.5592,-2.652,-2.6911,-2.7744,-2.8835,-3.0123,-3.0841,-3.2265,-3.5365,-3.6645,-3.8316,-4.1027,-4.2021,-4.2621,-4.3035,-4.258,-4.2115,-4.1503,-4.1089,-4.0882,-4.0882,-4.082,-4.0572,-4.0137,-4.0054,-3.953,-3.8683,-3.8863,-3.8521,-3.7616,-3.7325,-3.6944,-3.6519,-3.6132,-3.6016,-3.6016,-3.6016,-3.582,-3.5449,-3.4922,-3.4492,-3.4101,-3.3555,-3.3066,-3.2695,-3.2695,-3.2441,-3.2129,0.0,0.0,0.0,0.0,0.0,0.0,0.0,0.0,0.0,0.0,0.0,0.0,0.0,0.0,0.0,0.0,0.0,0.0,0.0,0.0,0.0,0.0,-2.1446,-2.1848,-2.2546,-2.3704,-2.5096,-2.6743,-2.7483,-2.8195,-2.8815,-2.8654,-2.792,-2.6743,-2.6651,-2.6368,-2.6024,-2.7141,-2.7171,-2.6617,-2.7792,0.0,0.0,0.0,0.0,0.0,0.0,0.0,0.0,-2.4529,-2.4507,-2.4507,-2.4507,0.0,0.0,0.0,0.0,0.0,-2.3929,-2.5047,-2.5941,-2.4449,-2.4655,-2.5086,-2.4693,0.0,0.0,0.0,-2.555,-2.6623,-2.8675,-2.8485,-2.8864,-3.1505,-3.2876,-3.4425,-3.6853,-3.8657,-3.9847,-4.0365,-4.2186,-4.2704,-4.0882,-4.1648,-4.1897,-4.1048,-4.0924,-4.0882,-4.0882,-4.053,-4.0116,-3.9592,-3.9199,-3.8812,-3.8295,-3.8662,-3.8418,-3.7616,-3.7274,-3.6937,-3.6519,-3.6132,-3.6016,-3.6016,-3.6016,-3.5976,-3.5859,-3.5039,-3.4668,-3.4492,-3.334,-3.2637,-3.2266,-3.2266,-3.1992,-3.1719,0.0,0.0,0.0,0.0,0.0,0.0,0.0,0.0,0.0,0.0,0.0,0.0,0.0,0.0,0.0,0.0,0.0,0.0,0.0,0.0,0.0,-2.2983,-2.2992,-2.3464,-2.4574,-2.5401,-2.6588,-2.8103,-2.8563,-2.9045,-2.9504,-2.8953,-2.7897,-2.6513,-2.6513,-2.6232,-2.5831,-2.699,-2.7103,-2.6564,0.0,0.0,0.0,0.0,0.0,0.0,0.0,0.0,0.0,0.0,-2.4507,-2.4507,-2.4507,0.0,0.0,0.0,0.0,0.0,-2.424,-2.5192,-2.6107,-2.5526,-2.6206,-2.6806,-2.5854,-2.5792,0.0,0.0,-2.631,-2.716,-2.8703,-2.9249,-3.0318,-3.3212,-3.4512,-3.5707,-3.7281,-3.8212,-3.9185,-4.0427,-4.1296,-4.1648,-4.1338,-4.1648,-4.1607,-4.0924,-4.0882,-4.0779,-4.0551,-4.0344,-3.9909,-3.9117,-3.8889,-3.8647,-3.8191,-3.8398,-3.8109,-3.7348,-3.6944,-3.6606,-3.62,-3.6084,-3.6016,-3.6016,-3.6016,-3.5898,-3.5625,-3.4961,-3.457,-3.4277,-3.3457,-3.3008,-3.2793,-3.2344,-3.1876,-3.1513,0.0,0.0,0.0,0.0,0.0,0.0,0.0,0.0,0.0,0.0,0.0,0.0,0.0,0.0,0.0,0.0,0.0,0.0,0.0,0.0,-2.3075,-2.3971,-2.4361,-2.5142,-2.6467,-2.6955,-2.792,-2.932,-2.9435,-2.9573,-2.9665,-2.8769,-2.7552,-2.6145,-2.6145,-2.5869,-2.5499,-2.6627,-2.684,-2.6567,0.0,0.0,0.0,0.0,0.0,0.0,0.0,0.0,0.0,0.0,0.0,0.0,0.0,0.0,0.0,-2.4507,-2.4507,-2.4528,-2.4631,-2.544,-2.6314,-2.6563,-2.7365,-2.7966,-2.7345,-2.7138,-2.7138,-2.7469,-2.7869,-2.8317,-2.9104,-3.0574,-3.2437,-3.492,-3.6266,-3.7363,-3.8171,-3.8378,-3.9102,-4.0841,-4.0737,-4.0944,-4.2073,-4.1772,-4.1379,-4.0924,-4.0779,-4.0572,-4.0241,-4.0013,-3.9509,-3.8807,-3.8683,-3.8523,-3.8191,-3.8125,-3.777,-3.7213,-3.6789,-3.6471,-3.6084,-3.6016,-3.6016,-3.6016,-3.5918,-3.5684,-3.5351,-3.4785,-3.4355,-3.4023,-3.3594,-3.3418,-3.3257,-3.2154,-3.1221,-3.0638,0.0,0.0,0.0,0.0,0.0,0.0,0.0,0.0,0.0,0.0,0.0,0.0,0.0,0.0,0.0,0.0,0.0,0.0,0.0,0.0,-2.2914,-2.343,-2.4806,-2.5876,-2.649,-2.6955,-2.7736,-2.8746,-2.9251,-2.9045,-2.8126,-2.7575,-2.6519,-2.5027,-2.5027,-2.4728,-2.4391,-2.5538,-2.6159,-2.6589,-2.8533,0.0,0.0,0.0,0.0,0.0,0.0,0.0,0.0,0.0,0.0,0.0,0.0,0.0,-2.4507,-2.4507,-2.4507,-2.459,-2.5024,-2.6144,-2.7102,-2.6708,-2.6687,-2.7185,-2.8752,-2.8773,-2.8835,-3.0118,-3.0408,-3.0594,-3.1091,-3.3033,-3.5002,-3.6411,-3.8502,-4.0096,-4.0572,-4.1007,-4.1338,-4.1503,-4.1483,-4.1503,-4.1607,-4.1586,-4.1379,-4.0924,-4.051,-4.0261,-4.022,-3.9344,-3.8848,-3.8786,-3.846,-3.8212,-3.8191,-3.7837,-3.7616,-3.7549,-3.7213,-3.6876,-3.6451,-3.6152,-3.6016,-3.5996,-3.5605,-3.543,-3.5332,-3.4473,-3.4101,-3.4023,-3.3594,-3.3418,-3.3131,-3.1003,-2.9484,-2.857,0.0,0.0,0.0,0.0,0.0,0.0,0.0,0.0,0.0,0.0,0.0,0.0,0.0,0.0,0.0,0.0,0.0,0.0,0.0,0.0,-2.2914,-2.3384,-2.4554,-2.5601,-2.649,-2.7575,-2.8632,-2.9642,-2.955,-2.9137,-2.8425,-2.792,-2.6887,-2.5417,-2.5417,-2.5119,-2.465,-2.5159,-2.5373,-2.5664,-2.7737,-2.8025,0.0,0.0,0.0,0.0,0.0,0.0,0.0,0.0,-2.4507,-2.4549,-2.4838,-2.4921,-2.4921,-2.4921,-2.4921,-2.49,-2.4797,-2.5792,-2.6895,-2.7019,-2.7427,-2.8255,-2.9808,-3.047,-3.105,-3.2126,-3.2582,-3.2991,-3.3447,-3.4879,-3.639,-3.7488,-3.9102,-4.0386,-4.082,-4.1027,-4.1255,-4.1545,-4.1317,-4.1255,-4.1545,-4.1317,-4.0944,-4.051,-4.0303,-3.9972,-3.9323,-3.8972,-3.873,-3.844,-3.8274,-3.8191,-3.8191,-3.7837,-3.7616,-3.7616,-3.7011,-3.6539,-3.62,-3.6084,-3.5879,-3.5625,-3.5469,-3.5078,-3.4551,-3.4219,-3.3906,-3.3589,-3.2504,-3.211,-3.1843,-2.9859,-2.8486,-2.7621,0.0,0.0,0.0,0.0,0.0,0.0,0.0,0.0,0.0,0.0,0.0,0.0,0.0,0.0,0.0,0.0,0.0,0.0,0.0,-2.234,-2.2823,-2.3614,-2.4032,-2.5013,-2.668,-2.7588,-2.8685,-2.9986,-2.9481,-2.8907,-2.8218,-2.7736,-2.6955,-2.5945,-2.5784,-2.5524,-2.518,-2.5252,-2.5154,-2.5112,-2.6962,-2.7396,0.0,0.0,0.0,0.0,0.0,0.0,0.0,0.0,-2.4507,-2.4569,-2.5044,-2.5086,-2.5003,-2.5148,-2.5086,-2.49,-2.459,-2.542,-2.6501,-2.6978,-2.8048,-2.9518,-3.134,-3.2126,-3.2892,-3.4362,-3.459,-3.459,-3.49,-3.5976,-3.7115,-3.8026,-3.9578,-4.08,-4.1255,-4.1317,-4.1379,-4.1545,-4.1276,-4.1151,-4.1338,-4.0944,-4.0551,-4.0241,-3.993,-3.9495,-3.8807,-3.8641,-3.8502,-3.8191,-3.8191,-3.8191,-3.8191,-3.7703,-3.7354,-3.7191,-3.6542,-3.6071,-3.5936,-3.5731,-3.5449,-3.5176,-3.5039,-3.4629,-3.4062,-3.3926,-3.3691,-3.3292,-3.1835,-3.1322,-3.1029,-2.8939,-2.7573,-2.6853,0.0,0.0,0.0,0.0,0.0,0.0,0.0,0.0,0.0,0.0,0.0,0.0,0.0,0.0,0.0,0.0,0.0,0.0,0.0,-2.2226,-2.2582,-2.4131,-2.3325,-2.419,-2.7121,-2.6798,-2.7544,-2.9481,-2.8953,-2.8153,-2.719,-2.6726,-2.6513,-2.649,-2.5945,-2.574,-2.5788,-2.5883,-2.5592,-2.5189,-2.641,-2.6875,-2.6997,0.0,0.0,0.0,0.0,0.0,0.0,0.0,-2.4507,-2.4569,-2.5044,-2.4879,-2.459,-2.5044,-2.4859,-2.4507,-2.4507,-2.5213,-2.6044,-2.6521,-2.8317,-3.0719,-3.3509,-3.372,-3.4176,-3.6929,-3.6411,-3.5438,-3.5438,-3.6204,-3.7115,-3.8046,-4.0075,-4.171,-4.226,-4.2322,-4.2083,-4.1607,-4.1565,-4.1379,-4.0924,-4.0489,-4.022,-4.0179,-3.9351,-3.8786,-3.8765,-3.8419,-3.8171,-3.8171,-3.8171,-3.8171,-3.8171,-3.7482,-3.6837,-3.6415,-3.5705,-3.5571,-3.5865,-3.51,-3.4707,-3.4668,-3.4258,-3.4082,-3.4023,-3.3594,-3.3418,-3.3228,-3.1835,-3.124,-3.0918,-2.8131,-2.6708,-2.6087,0.0,0.0,0.0,0.0,0.0,0.0,0.0,0.0,0.0,0.0,0.0,0.0,0.0,0.0,0.0,0.0,0.0,0.0,0.0,-2.2731,-2.2823,-2.3591,-2.4032,-2.4853,-2.6129,-2.6742,-2.7512,-2.8517,-2.7996,-2.7377,-2.6747,-2.6637,-2.6371,-2.5975,-2.5842,-2.5782,-2.5788,-2.5112,-2.4777,-2.4762,-2.5739,-2.5956,-2.5769,0.0,0.0,0.0,0.0,0.0,0.0,0.0,0.0,0.0,-2.5044,-2.5337,-2.5461,-2.5275,-2.5357,-2.542,-2.5065,-2.5689,-2.662,-2.7738,-2.9497,-3.1671,-3.4403,-3.4672,-3.5045,-3.7488,-3.7653,-3.7363,-3.7363,-3.7839,-3.8336,-3.8605,-3.9765,-4.0779,-4.1234,-4.1276,-4.1234,-4.1089,-4.1089,-4.0903,-4.0468,-4.0303,-3.9951,-3.9288,-3.8931,-3.8497,-3.7922,-3.7777,-3.755,-3.7218,-3.7218,-3.7218,-3.7218,-3.6546,-3.6093,-3.5952,-3.4936,-3.4851,-3.5505,-3.4968,-3.4707,-3.4668,-3.4258,-3.3906,-3.3613,-3.3476,-3.2829,-3.1771,-3.0354,-2.9248,-2.8131,-2.6368,-2.5591,-2.5345,0.0,0.0,0.0,0.0,0.0,0.0,0.0,0.0,0.0,0.0,0.0,0.0,0.0,0.0,0.0,0.0,0.0,0.0,0.0,0.0,-2.3879,-2.4613,-2.4671,-2.5028,-2.5756,-2.6531,-2.7035,-2.7232,-2.7048,-2.6854,-2.6605,-2.6627,-2.6628,-2.6671,-2.6432,-2.6368,-2.6303,-2.5376,-2.4825,-2.4577,-2.5054,-2.5104,-2.488,0.0,0.0,0.0,0.0,0.0,0.0,0.0,0.0,0.0,-2.5044,-2.5295,-2.5357,-2.5461,-2.542,-2.5357,-2.5461,-2.602,-2.6998,-2.8504,-3.0408,-3.2623,-3.5355,-3.6473,-3.7363,-3.8937,-3.8833,-3.8502,-3.8688,-3.8792,-3.8848,-3.9034,-3.9889,-4.0634,-4.1089,-4.1151,-4.1089,-4.0903,-4.0882,-4.0634,-4.0013,-3.9716,-3.9302,-3.8647,-3.8419,-3.7984,-3.726,-3.7218,-3.7094,-3.6804,-3.6804,-3.674,-3.6612,-3.6095,-3.5606,-3.5296,-3.4522,-3.4355,-3.4863,-3.4394,-3.4199,-3.418,-3.3926,-3.3672,-3.3418,-3.3418,-3.2575,-3.1176,-2.9595,-2.8278,-2.6937,-2.5427,-2.4929,-2.4914,0.0,0.0,0.0,0.0,0.0,0.0,0.0,0.0,0.0,0.0,0.0,0.0,0.0,0.0,0.0,0.0,0.0,0.0,0.0,0.0,-2.544,-2.6467,-2.5315,-2.5053,-2.5949,-2.6251,-2.6237,-2.5841,-2.6171,-2.6417,-2.6455,-2.6541,-2.6997,-2.7844,-2.7366,-2.7185,-2.7186,-2.6294,-2.5418,-2.4611,-2.4611,-2.4535,-2.444,-2.5017,0.0,0.0,0.0,0.0,0.0,0.0,0.0,0.0,-2.5003,-2.4859,-2.4714,-2.5523,-2.5233,-2.4817,-2.5709,-2.631,-2.7158,-2.9083,-3.1381,-3.3844,-3.6453,-3.8709,-4.0323,-4.0634,-3.9806,-3.9096,-3.9578,-3.9241,-3.9096,-3.9468,-4.0282,-4.0944,-4.1317,-4.1379,-4.1234,-4.08,-4.0758,-4.0406,-3.9495,-3.8972,-3.8585,-3.8088,-3.7674,-3.7239,-3.6763,-3.6742,-3.6722,-3.668,-3.668,-3.6488,-3.6167,-3.5844,-3.53,-3.4516,-3.4196,-3.4023,-3.4004,-3.3594,-3.3418,-3.3418,-3.3418,-3.3355,-3.3228,-3.3228,-3.2301,-3.0771,-2.9258,-2.7916,-2.6722,-2.5248,-2.4679,-2.4723,0.0,0.0,0.0,0.0,0.0,0.0,0.0,0.0,0.0,0.0,0.0,0.0,0.0,0.0,0.0,0.0,0.0,0.0,0.0,0.0,-2.5807,-2.6467,-2.6554,-2.6537,-2.6394,-2.6114,-2.5757,-2.5254,-2.5376,-2.5461,-2.5497,-2.5897,-2.6358,-2.6882,-2.6777,-2.6752,-2.6702,-2.616,-2.5757,-2.5585,-2.5585,-2.5342,-2.5037,-2.5141,-2.4787,0.0,0.0,0.0,0.0,0.0,0.0,0.0,-2.4611,-2.4838,-2.5003,-2.4838,-2.5192,-2.5709,-2.6314,-2.7013,-2.8235,-3.0768,-3.3989,-3.6908,-3.8564,-3.955,-4.0054,-3.9344,-3.9909,-4.0468,-4.0572,-4.051,-4.0365,-4.0116,-4.0241,-4.0282,-4.0013,-3.9972,-3.993,-3.9847,-3.9827,-3.9475,-3.8564,-3.8378,-3.7984,-3.7156,-3.7011,-3.6742,-3.6287,-3.6266,-3.6101,-3.5728,-3.5707,-3.552,-3.5207,-3.4893,-3.4475,-3.4061,-3.3681,-3.3555,-3.3555,-3.3457,-3.3418,-3.3418,-3.3418,-3.2765,-3.1771,-3.1771,-3.0272,-2.7982,-2.7587,-2.669,-2.551,-2.5113,-2.5017,-2.5031,0.0,0.0,0.0,0.0,0.0,0.0,0.0,0.0,0.0,0.0,0.0,0.0,0.0,0.0,0.0,0.0,0.0,0.0,0.0,0.0,0.0,-2.6512,-2.6744,-2.6685,-2.621,-2.5924,-2.5705,-2.5505,-2.5902,-2.5957,-2.5544,-2.5999,-2.6501,-2.6957,-2.6957,-2.6957,-2.6915,-2.6459,-2.6252,-2.6231,-2.6003,-2.5627,-2.5168,-2.4941,-2.4569,-2.4157,-2.395,0.0,0.0,0.0,0.0,0.0,0.0,0.0,-2.4859,-2.4838,-2.5168,-2.5709,-2.6438,-2.7386,-2.9083,-3.2499,-3.5273,-3.7529,-3.8827,-3.9488,-3.9695,-3.922,-4.0075,-4.0882,-4.0882,-4.0717,-4.0489,-4.0261,-4.0034,-3.9736,-3.9509,-3.9468,-3.9385,-3.9158,-3.9019,-3.8626,-3.7922,-3.7653,-3.7239,-3.6535,-3.6473,-3.6266,-3.5811,-3.5769,-3.5666,-3.5438,-3.5418,-3.5232,-3.4922,-3.4548,-3.4235,-3.3922,-3.3544,-3.3418,-3.3418,-3.3418,-3.3418,-3.3418,-3.3418,-3.2638,-3.1322,-3.1322,-2.9583,-2.6899,-2.6899,-2.5962,-2.4613,-2.4826,-2.4899,-2.4914,0.0,0.0,0.0,0.0,0.0,0.0,0.0,0.0,0.0,0.0,0.0,0.0,0.0,0.0,0.0,0.0,0.0,0.0,0.0,0.0,0.0,0.0,-2.6528,-2.6365,-2.6142,-2.591,-2.5894,-2.604,-2.6953,-2.702,-2.6273,-2.6823,-2.7273,-2.7547,-2.7547,-2.7452,-2.7289,-2.6895,-2.6729,-2.6708,-2.6314,-2.5813,-2.5251,-2.4879,-2.459,-2.4342,-2.4012,-2.4115,-2.4383,-2.4383,0.0,0.0,0.0,0.0,-2.4569,-2.4962,-2.5127,-2.542,-2.6227,-2.7676,-2.9891,-3.3699,-3.5604,-3.6929,-3.8228,-3.8916,-3.9206,-3.9288,-4.0013,-4.0655,-4.0655,-4.0344,-4.0075,-4.0013,-3.9599,-3.9288,-3.9206,-3.9123,-3.8916,-3.8476,-3.8171,-3.7757,-3.7301,-3.6908,-3.6494,-3.6039,-3.5997,-3.5832,-3.5438,-3.5418,-3.5418,-3.5418,-3.5418,-3.5232,-3.4922,-3.461,-3.4298,-3.3922,-3.3544,-3.3418,-3.3418,-3.334,-3.3359,-3.3418,-3.334,-3.2524,-3.1148,-3.0883,-2.9163,-2.6644,-2.6448,-2.5474,-2.4276,-2.4554,-2.4723,-2.4753,0.0,0.0,0.0,0.0,0.0,0.0,0.0,0.0,0.0,0.0,0.0,0.0,0.0,0.0,0.0,0.0,0.0,0.0,0.0,0.0,0.0,0.0,-2.6715,-2.6688,-2.705,-2.6281,-2.6084,-2.653,-2.7431,-2.7807,-2.7634,-2.8651,-2.8925,-2.8491,-2.8491,-2.8045,-2.7309,-2.7247,-2.7206,-2.7206,-2.7143,-2.6604,-2.5792,-2.573,-2.4985,-2.395,-2.3908,-2.3908,-2.3971,-2.3971,-2.4219,0.0,0.0,0.0,-2.4507,-2.4569,-2.4879,-2.5292,-2.5834,-2.8152,-3.1008,-3.3592,-3.49,-3.5976,-3.7363,-3.7715,-3.7881,-3.8274,-3.9081,-3.9723,-3.9723,-3.9682,-3.9426,-3.9034,-3.8647,-3.8233,-3.7819,-3.7425,-3.7156,-3.7074,-3.7032,-3.6804,-3.6349,-3.6246,-3.6018,-3.5542,-3.5521,-3.548,-3.5418,-3.5418,-3.5418,-3.5418,-3.5418,-3.5232,-3.4922,-3.4859,-3.4548,-3.3922,-3.3544,-3.3418,-3.3418,-3.3047,-3.3086,-3.3398,-3.3027,-3.2104,-3.0646,-2.9168,-2.7741,-2.6448,-2.5282,-2.4915,-2.5002,-2.5046,-2.5061,-2.5061,0.0,0.0,0.0,0.0,0.0,0.0,0.0,0.0,0.0,0.0,0.0,0.0,0.0,0.0,0.0,0.0,0.0,0.0,0.0,0.0,0.0,-2.6467,-2.626,-2.6014,-2.568,-2.5844,-2.6248,-2.6973,-2.8477,-2.9481,-2.9961,-3.0974,-3.0465,-2.8597,-2.8137,-2.7668,-2.7309,-2.7309,-2.7309,-2.7309,-2.7309,-2.675,-2.5875,0.0,0.0,0.0,0.0,0.0,-2.426,-2.426,-2.4342,-2.4507,-2.4507,0.0,0.0,0.0,-2.4817,-2.5458,-2.6703,-2.8069,-2.9808,-3.2623,-3.3803,-3.4714,-3.6349,-3.6929,-3.7177,-3.7363,-3.7736,-3.8171,-3.8688,-3.8771,-3.8626,-3.8171,-3.7715,-3.7343,-3.7136,-3.6929,-3.6804,-3.6804,-3.6577,-3.6349,-3.6121,-3.5873,-3.5645,-3.5438,-3.5418,-3.5418,-3.5418,-3.5418,-3.5418,-3.5418,-3.5418,-3.5356,-3.517,-3.4984,-3.4548,-3.3922,-3.3309,-3.3066,-3.3066,-3.2637,-3.2793,-3.3379,-3.2734,-3.1932,-3.0947,-2.9699,-2.8472,-2.7259,-2.6109,-2.5524,-2.5336,-2.5182,-2.5002,-2.487,0.0,0.0,0.0,0.0,0.0,0.0,0.0,0.0,0.0,0.0,0.0,0.0,0.0,0.0,0.0,0.0,0.0,0.0,0.0,0.0,0.0,-2.626,-2.6032,-2.5613,-2.506,-2.5511,-2.6307,-2.7502,-2.9195,-3.0629,-3.1773,-3.2629,-3.1821,-2.9488,-2.8614,-2.7923,-2.7427,-2.7427,-2.7413,-2.7289,-2.7185,-2.6646,0.0,0.0,0.0,0.0,0.0,0.0,-2.4652,-2.4528,-2.4569,-2.4652,-2.4528,-2.4507,0.0,0.0,0.0,-2.5354,-2.6972,-2.7572,-2.8421,-3.1174,-3.2375,-3.3285,-3.4879,-3.5687,-3.6142,-3.6266,-3.6473,-3.6804,-3.7384,-3.7674,-3.7715,-3.7384,-3.6929,-3.6618,-3.6618,-3.6535,-3.6453,-3.6453,-3.6142,-3.5935,-3.5935,-3.5625,-3.5418,-3.5418,-3.5418,-3.5418,-3.5418,-3.5418,-3.5418,-3.5418,-3.5418,-3.5376,-3.5252,-3.4697,-3.4143,-3.3605,-3.2979,-3.2637,-3.2617,-3.2207,-3.2402,-3.3066,-3.2324,-3.185,-3.1418,-3.0401,-2.9163,-2.7843,-2.6923,-2.6004,-2.5275,-2.5145,-2.4973,-2.473,0.0,0.0,0.0,0.0,0.0,0.0,0.0,0.0,0.0,0.0,0.0,0.0,0.0,0.0,0.0,-2.7098,0.0,0.0,0.0,0.0,0.0,-2.7149,-2.6365,0.0,-2.6497,-2.5672,-2.6114,-2.796,-2.9013,-3.0514,-3.2348,-3.3007,-3.288,-3.2049,-3.1091,-2.9565,-2.7883,-2.7883,-2.7655,-2.7268,-2.6832,0.0,0.0,0.0,0.0,0.0,0.0,-2.4776,-2.5086,-2.4652,-2.4797,-2.5086,-2.4631,-2.4507,-2.4507,0.0,0.0,0.0,-2.573,-2.6667,-2.7703,-2.9125,-3.0491,-3.1733,-3.2685,-3.3575,-3.4401,-3.4837,-3.5542,-3.6039,-3.5645,-3.6287,-3.6867,-3.6846,-3.6453,-3.6142,-3.6142,-3.5769,-3.55,-3.55,-3.548,-3.5459,-3.5459,-3.5438,-3.5418,-3.5418,-3.5418,-3.5418,-3.5418,-3.5418,-3.5418,-3.5418,-3.5418,-3.5211,-3.4857,-3.374,-3.3055,-3.2773,-3.2389,-3.2207,-3.2248,-3.1758,-3.1797,-3.2268,-3.1758,-3.1756,-3.2005,-3.0293,-2.8814,-2.7469,-2.6938,-2.5843,-2.4687,-2.4987,-2.5119,-2.5105,0.0,0.0,0.0,0.0,0.0,0.0,0.0,0.0,0.0,0.0,0.0,0.0,0.0,-2.8343,-2.8203,-2.8345,-2.736,0.0,0.0,0.0,0.0,-2.5946,-2.5633,-2.5381,-2.5252,-2.5786,-2.6846,-2.8515,-2.9732,-3.1187,-3.2795,-3.2371,-3.2354,-3.265,-3.1219,-2.9719,-2.8317,-2.7738,-2.7455,-2.7289,-2.7123,-2.677,-2.6356,-2.6144,-2.5813,-2.5399,-2.5399,-2.5502,-2.5585,-2.5086,-2.5044,-2.5148,-2.5003,-2.4735,-2.4507,-2.4507,-2.4507,-2.4631,-2.5295,-2.5709,-2.6351,-2.8007,-2.9021,-2.9994,-3.1526,-3.2561,-3.3327,-3.3782,-3.4362,-3.4838,-3.4983,-3.5749,-3.6266,-3.5956,-3.5769,-3.5666,-3.5666,-3.5521,-3.5418,-3.5418,-3.5418,-3.5418,-3.5418,-3.5418,-3.5418,-3.5418,-3.5418,-3.5418,-3.5418,-3.5418,-3.5293,-3.5004,-3.4983,-3.4776,-3.438,-3.3557,-3.3055,-3.2935,-3.2116,-3.1758,-3.1738,-3.1309,-3.1348,-3.1719,-3.1289,-3.1161,-3.1165,-2.9984,-2.8816,-2.7792,-2.689,-2.6111,-2.5482,-2.5182,-2.5119,-2.5119,0.0,0.0,0.0,0.0,0.0,0.0,0.0,0.0,0.0,0.0,0.0,0.0,0.0,0.0,-2.9649,-2.9608,-2.86,-2.7824,-2.7602,-2.7261,-2.6739,-2.5904,-2.5737,-2.5359,-2.4743,-2.5445,-2.6627,-2.8287,-2.9519,-3.0876,-3.2299,-3.2488,-3.2458,-3.2234,-3.1326,-3.0241,-2.9091,-2.8112,-2.7579,-2.7289,-2.7143,-2.6895,-2.6625,-2.6625,-2.6335,-2.5941,-2.6107,-2.6103,-2.6041,-2.5606,-2.5544,-2.5647,-2.5502,-2.5233,0.0,0.0,0.0,0.0,-2.4921,-2.5065,-2.5499,-2.691,-2.7696,-2.8566,-3.0098,-3.1153,-3.2023,-3.2768,-3.3285,-3.3803,-3.4463,-3.5024,-3.5418,-3.5418,-3.5169,-3.5024,-3.519,-3.5066,-3.4962,-3.4962,-3.4962,-3.4962,-3.4962,-3.4962,-3.4962,-3.4962,-3.4962,-3.4962,-3.4962,-3.4962,-3.4838,-3.4588,-3.4443,-3.4155,-3.3726,-3.303,-3.2613,-3.2475,-3.1663,-3.1309,-3.1289,-3.1016,-3.1055,-3.1289,-3.1016,-3.0711,-3.0296,-2.9831,-2.8694,-2.7181,-2.6841,-2.6205,-2.5532,-2.5182,-2.5119,-2.5119,0.0,0.0,0.0,0.0,0.0,0.0,0.0,0.0,0.0,0.0,0.0,0.0,0.0,0.0,0.0,-3.0803,-3.0803,-3.0483,-2.9772,-2.9707,-2.8954,-2.7336,0.0,0.0,0.0,-2.4807,-2.5463,-2.7327,-2.8352,-2.9612,-3.1044,-3.3427,-3.3288,-3.0976,-3.1485,-3.1115,-3.01,-2.8992,-2.8069,-2.7289,-2.6832,-2.6646,-2.6646,-2.6646,-2.6376,-2.6044,-2.648,-2.6646,-2.6584,-2.6061,-2.6206,-2.6542,-2.6065,0.0,0.0,0.0,0.0,0.0,0.0,0.0,0.0,-2.5751,-2.6604,-2.7517,-2.838,-2.929,-3.0325,-3.1616,-3.2277,-3.2934,-3.3824,-3.4049,-3.4279,-3.519,-3.4631,-3.4277,-3.4733,-3.4401,-3.4132,-3.4132,-3.4132,-3.4132,-3.4132,-3.4132,-3.4132,-3.4132,-3.4132,-3.4132,-3.4132,-3.4111,-3.4111,-3.4111,-3.3596,-3.3231,-3.2881,-3.2183,-3.1614,-3.1325,-3.1054,-3.0898,-3.0898,-3.0898,-3.0898,-3.0898,-3.0898,-3.0386,-2.9604,-2.9886,-2.8206,-2.5565,-2.6593,-2.6004,-2.4665,-2.4987,-2.5119,-2.5119,0.0,0.0,0.0,0.0,0.0,0.0,0.0,0.0,0.0,0.0,0.0,0.0,0.0,0.0,-3.1953,-3.1533,-3.0951,-3.034,-2.9779,-2.9636,-2.923,-2.8411,-2.7265,-2.6668,-2.6737,0.0,0.0,0.0,0.0,0.0,0.0,0.0,0.0,-3.1903,-2.9855,-2.9257,-2.9598,-2.8242,-2.7676,-2.7738,-2.7593,-2.7552,-2.7552,-2.7552,-2.7469,-2.7324,-2.7185,-2.7282,-2.7427,-2.6641,-2.6501,-2.6542,-2.6065,0.0,0.0,0.0,0.0,0.0,-2.5106,0.0,0.0,0.0,0.0,0.0,-2.7537,-2.8338,-2.9187,-2.9911,-3.0429,-3.1029,-3.1961,-3.1836,-3.2023,-3.3265,-3.3803,-3.4173,-3.4297,-3.4214,-3.4132,-3.4132,-3.4132,-3.4132,-3.4132,-3.4132,-3.4132,-3.4132,-3.4132,-3.4132,-3.4132,-3.38,-3.3575,-3.3575,-3.3141,-3.2855,-3.274,-3.2136,-3.173,-3.1672,-3.1112,-3.0898,-3.0898,-3.0898,-3.0898,-3.0898,-3.0898,-3.0214,-2.9062,-2.8473,-2.6599,-2.4205,-2.473,-2.4684,-2.4262,-2.4583,-2.4914,-2.5119,0.0,0.0,0.0,0.0,0.0,0.0,0.0,0.0,0.0,0.0,0.0,0.0,0.0,0.0,0.0,-3.2926,-3.2355,-3.1755,-3.1132,-3.0922,-3.0362,-2.9381,-2.8165,-2.7455,-2.7305,-2.6998,0.0,0.0,0.0,0.0,0.0,0.0,0.0,0.0,0.0,-2.8354,-2.8524,-2.7651,-2.751,-2.7945,-2.8131,-2.8214,-2.8255,-2.8649,-2.8545,-2.8193,-2.8131,-2.8152,-2.809,-2.7386,-2.7013,-2.6853,-2.6584,0.0,0.0,0.0,0.0,0.0,0.0,0.0,0.0,0.0,0.0,0.0,-2.6957,-2.7531,-2.8173,-2.8628,-2.9104,-2.9704,-3.0636,-3.0574,-3.0657,-3.1464,-3.2188,-3.2789,-3.3161,-3.3223,-3.3223,-3.3223,-3.3389,-3.3513,-3.3513,-3.3513,-3.3513,-3.3513,-3.3513,-3.3513,-3.3513,-3.3265,-3.3099,-3.3099,-3.2851,-3.2669,-3.2669,-3.2076,-3.1787,-3.1787,-3.117,-3.0898,-3.0898,-3.0898,-3.0898,-3.0898,-3.0898,-2.9844,-2.8044,-2.7531,-2.6183,-2.4396,-2.4361,-2.4291,-2.432,-2.4657,-2.4958,-2.5119,0.0,0.0,0.0,0.0,0.0,0.0,0.0,0.0,0.0,0.0,0.0,0.0,0.0,0.0,0.0,0.0,-3.4199,-3.373,-3.3008,-3.2775,-3.2006,-3.0482,-2.9456,-2.8596,-2.7767,-2.7635,0.0,0.0,0.0,0.0,0.0,0.0,0.0,0.0,0.0,0.0,-2.7309,-2.7309,-2.751,-2.7966,-2.8421,-2.8649,-2.8773,-2.9601,-2.9415,-2.8731,-2.9104,-2.9001,-2.8607,-2.809,-2.7655,-2.7372,-2.733,-2.7309,-2.7226,0.0,-2.6687,0.0,0.0,0.0,0.0,0.0,-2.6625,0.0,-2.6625,-2.6936,-2.7351,-2.7759,-2.8131,-2.8669,-2.9601,-2.9766,-2.9787,-2.9829,-3.018,-3.0781,-3.1636,-3.1843,-3.1884,-3.1843,-3.2235,-3.2582,-3.2582,-3.2582,-3.2545,-3.2587,-3.2649,-3.2706,-3.2664,-3.2607,-3.2607,-3.2607,-3.2607,-3.2628,-3.2669,-3.2076,-3.1787,-3.1787,-3.117,-3.0898,-3.0898,-3.0898,-3.0898,-3.0898,-3.0898,-2.949,-2.7185,-2.7048,-2.6293,-2.5203,-2.4645,-2.4466,-2.4598,-2.4914,-2.5061,-2.5119,0.0,0.0,0.0,0.0,0.0,0.0,0.0,0.0,0.0,0.0,0.0,0.0,0.0,0.0,0.0,0.0,-3.3922,-3.3462,-3.3318,-3.3106,-3.2867,-3.2529,-3.1204,-3.0553,-3.0761,-2.9658,-2.9193,0.0,0.0,0.0,0.0,0.0,0.0,0.0,0.0,0.0,-2.7309,-2.7309,-2.751,-2.7966,-2.8421,-2.8835,-2.9187,-2.9373,-2.9332,-2.9145,-2.8856,-2.8938,-2.9042,-2.8214,-2.7862,-2.7738,-2.7413,-2.7309,-2.7289,-2.7206,0.0,0.0,0.0,0.0,0.0,0.0,-2.6625,0.0,-2.6708,-2.6687,-2.6874,-2.733,-2.7206,-2.7241,-2.8152,-2.8317,-2.8442,-2.8814,-2.8959,-2.9332,-3.0263,-3.1029,-3.136,-3.0988,-3.136,-3.165,-3.165,-3.165,-3.1795,-3.2091,-3.2463,-3.2504,-3.2132,-3.2112,-3.2112,-3.2112,-3.2112,-3.2297,-3.2727,-3.2076,-3.1787,-3.1787,-3.117,-3.0898,-3.0898,-3.0898,-3.0898,-3.0898,-3.0898,-2.9981,-2.8444,-2.7426,-2.5818,-2.3955,-2.3569,-2.3881,-2.4606,-2.4349,-2.4679,-2.5119,0.0,0.0,0.0,0.0,0.0,0.0,0.0,0.0,0.0,0.0,0.0,0.0,0.0,0.0,0.0,0.0,0.0,0.0,0.0,-3.3197,-3.3111,-3.3111,-3.1907,-3.136,-3.1581,-3.092,-3.0454,-3.0215,0.0,0.0,0.0,0.0,0.0,0.0,0.0,0.0,-2.7309,-2.7309,-2.7655,-2.8297,-2.8773,-2.9104,-2.9352,-2.9829,-2.9849,-2.9622,-2.9394,-2.9311,-2.9228,-2.8773,-2.8297,-2.7834,-2.7655,-2.7448,-2.7309,-2.7309,-2.7309,-2.7247,0.0,0.0,-2.7206,-2.6729,-2.6957,0.0,0.0,-2.6791,-2.6957,-2.6957,-2.6957,-2.7102,-2.751,-2.7593,-2.7676,-2.7903,-2.8131,-2.8359,-2.8587,-2.9622,-3.0263,-3.0036,-3.0408,-3.0677,-3.0677,-3.0905,-3.1215,-3.1671,-3.1919,-3.1961,-3.1712,-3.1712,-3.1712,-3.1712,-3.1712,-3.1919,-3.2318,-3.1751,-3.1566,-3.1787,-3.117,-3.0898,-3.0898,-3.0898,-3.0898,-3.0898,-3.0898,-2.9785,-2.7907,-2.7246,-2.5649,-2.3588,-2.3588,-2.3896,-2.4349,-2.451,-2.4841,-2.5119,0.0,0.0,0.0,0.0,0.0,0.0,0.0,0.0,0.0,0.0,0.0,0.0,0.0,0.0,0.0,0.0,0.0,0.0,0.0,-3.3449,-3.3111,-3.3111,-3.2307,-3.1889,-3.1889,-3.1889,-3.1536,-3.0756,0.0,0.0,0.0,0.0,0.0,0.0,0.0,0.0,-2.7594,-2.7678,-2.7994,-2.8524,-2.9083,-2.9352,-2.9518,-3.0263,-3.0325,-2.9994,-2.9994,-2.9766,-2.9415,-2.9332,-2.8814,-2.8152,-2.7986,-2.7676,-2.7413,-2.733,-2.7309,-2.7309,-2.7309,-2.7309,-2.7309,-2.7309,-2.7309,-2.7206,0.0,0.0,0.0,-2.6812,-2.6978,-2.7206,-2.7289,-2.7309,-2.7268,-2.7185,-2.751,-2.7634,-2.7226,-2.809,0.0,-2.9021,-2.9456,-2.9725,-2.9725,-3.0139,-3.0574,-3.0946,-3.1153,-3.1215,-3.1112,-3.1195,-3.1236,-3.1236,-3.1236,-3.1505,-3.1988,-3.1406,-3.1345,-3.1787,-3.117,-3.0898,-3.0898,-3.0898,-3.0898,-3.0898,-3.0898,-2.9431,-2.7021,-2.7004,-2.5601,-2.353,-2.3793,-2.4013,-2.4232,-2.4701,-2.5017,-2.5119,-3.0784,-3.1095,0.0,0.0,0.0,0.0,0.0,0.0,0.0,0.0,0.0,0.0,-3.8642,-3.7736,-3.7459,-3.8315,-3.56,-3.4469,-3.5977,-3.4218,-3.3111,-3.3111,-3.2982,-3.2939,-3.2939,-3.2939,-3.2896,-3.2766,0.0,0.0,0.0,0.0,0.0,0.0,-3.089,-3.026,-2.8581,-2.8994,-2.8727,-2.809,-2.8959,-2.9559,-2.9932,-3.0036,-3.0036,-2.9994,-2.9994,-2.9973,-2.9849,-2.9435,-2.9228,-2.9001,-2.8173,-2.7883,-2.7779,-2.7413,-2.7309,-2.7309,-2.7309,-2.7309,-2.7309,-2.7309,-2.7309,-2.7289,-2.7247,0.0,-2.6791,-2.7164,0.0,-2.6812,-2.7226,0.0,0.0,0.0,-2.7081,-2.7226,-2.675,-2.6832,-2.7179,-2.7986,-2.8483,-2.8773,-2.8773,-2.9187,-2.9477,-2.9539,-3.0305,-3.0594,-3.018,-3.0532,-3.076,-3.076,-3.076,-3.1174,-3.1967,-3.1406,-3.1345,-3.1787,-3.117,-3.0898,-3.0898,-3.0898,-3.0898,-3.0898,-3.0898,-2.9431,-2.7021,-2.6987,-2.5501,-2.3164,-2.3208,-2.3749,-2.4496,-2.4276,-2.4554,-2.5119,-3.1634,-3.2072,0.0,0.0,0.0,0.0,0.0,0.0,0.0,0.0,0.0,-4.0978,-4.1229,-3.9973,-3.932,-3.9798,-3.7362,-3.5981,-3.6383,-3.4926,0.0,-3.4022,-3.3721,-3.3545,-3.3545,-3.3244,-3.3111,-3.3111,-3.3111,0.0,0.0,0.0,0.0,0.0,-3.1403,-3.0845,-2.9577,-2.9437,-2.9332,-2.9147,-2.9295,-2.958,-2.9994,-2.9994,-2.9994,-2.9994,-2.9994,-2.9994,-2.9973,-2.9766,-2.9352,-2.8835,-2.8442,-2.7966,-2.751,-2.7372,-2.7309,-2.7309,-2.7309,-2.7448,-2.7593,-2.7372,-2.7496,-2.7572,-2.7372,-2.7164,-2.7081,-2.7268,0.0,0.0,0.0,0.0,0.0,0.0,-2.7185,-2.7247,-2.704,0.0,-2.7061,-2.7117,-2.7303,-2.7634,-2.8152,-2.838,-2.8607,-2.8876,-2.927,-2.9518,-2.9601,-2.9787,-3.0015,-3.0284,-3.0284,-3.0541,-3.0943,-3.0767,-3.085,-3.1197,-3.0994,-3.0898,-3.0898,-3.0898,-3.0898,-3.0898,-3.0898,-2.9431,-2.7021,-2.7004,-2.5485,-2.3106,-2.3106,-2.3588,-2.4291,-2.4349,-2.4657,-2.5119,-3.234,0.0,0.0,-3.3571,-3.3671,0.0,0.0,-3.7739,-3.9647,-4.0425,-4.143,-4.2359,-4.3112,-4.2007,-4.143,-4.2057,-3.9798,-3.809,-3.7563,-3.6056,-3.4901,-3.4299,-3.4173,-3.3972,-3.3671,-3.342,-3.3262,-3.3111,-3.3111,0.0,0.0,0.0,0.0,0.0,-3.2337,-3.1827,-3.0787,-3.0653,-3.0607,-3.0454,-2.9887,-2.9891,-3.018,-3.0036,-2.9994,-2.9994,-2.9994,-2.9994,-2.9994,-2.9994,-2.9559,-2.898,-2.8835,-2.8359,-2.7849,-2.7676,-2.7766,-2.7849,-2.7676,-2.7966,-2.8173,-2.7593,-2.7676,-2.78,-2.7413,-2.7309,-2.7309,-2.7309,-2.7309,0.0,0.0,0.0,0.0,0.0,0.0,-2.7268,0.0,-2.7123,-2.6998,-2.6646,-2.6625,-2.6868,-2.7655,-2.7738,-2.7883,-2.8214,-2.8359,-2.8566,-2.8918,-2.9166,-2.9456,-2.9787,-2.9932,-3.0105,-3.0391,-3.0267,-3.0454,-3.0869,-3.0779,-3.0762,-3.0898,-3.0898,-3.0898,-3.0898,-3.0898,-2.9431,-2.7021,-2.7021,-2.5423,-2.3106,-2.3106,-2.3501,-2.4115,-2.4349,-2.4701,-2.5119,-3.2943,-3.2616,-3.2416,-3.2993,-3.3136,-3.3646,-3.5257,-3.6081,-3.7462,-4.0174,-4.0099,-4.0827,-4.3489,-4.3237,-4.3765,-4.5924,-4.3056,-4.0924,-4.0425,-3.7814,-3.5399,-3.3262,-3.4148,-3.4198,-3.3162,-3.3621,-3.3621,-3.3111,-3.3111,0.0,0.0,0.0,0.0,0.0,-3.4154,-3.374,-3.24,-3.3363,-3.2932,-3.1483,-3.0905,-3.0657,-3.0615,-3.016,-2.9994,-2.9994,-2.9994,-2.9994,-2.9994,-2.9994,-2.9973,-2.987,-2.9415,-2.927,-2.9145,-2.8711,-2.8876,-2.9145,-2.869,-2.8918,-2.9042,-2.8131,-2.7903,-2.78,-2.7413,-2.7309,-2.7309,-2.7309,-2.7309,-2.7309,-2.7309,0.0,0.0,0.0,0.0,0.0,0.0,0.0,-2.6625,-2.6625,-2.6625,-2.6812,-2.7289,-2.733,-2.733,0.0,-2.7696,-2.7945,-2.7917,-2.8814,-2.9311,-2.9332,-2.9766,-3.0249,-3.086,-3.018,-3.0314,-3.1247,-3.0525,-3.0449,-3.0898,-3.0898,-3.0898,-3.0898,-3.0898,-2.9431,-2.7021,-2.7021,-2.5423,-2.3106,-2.3106,-2.3501,-2.4086,-2.4101,-2.451,-2.5119,0.0,0.0,-3.2842,-3.3043,-3.3111,-3.3872,-3.6257,-3.7739,-3.9823,-4.3338,-4.4292,-4.5673,-4.846,-4.8234,-4.8209,-4.8962,-4.6326,-4.4242,-4.3288,-4.0651,-3.8617,-3.7513,-3.6383,-3.5676,-3.5299,-3.404,-3.3453,-3.3621,-3.2936,0.0,0.0,0.0,0.0,0.0,0.0,-3.387,-3.3395,-3.3305,-3.2855,-3.2022,-3.1084,-3.0864,-3.105,-3.0284,-3.018,-3.0408,-3.0098,-2.9994,-2.9994,-2.9994,-2.9787,-2.9518,-2.9352,-2.9104,-2.8814,-2.8669,-2.8938,-2.927,-2.9125,-2.9622,-2.9932,-2.869,-2.8607,-2.8566,-2.7537,-2.7309,-2.7309,-2.7309,-2.7309,-2.7309,-2.7309,0.0,0.0,0.0,0.0,0.0,0.0,0.0,-2.6729,-2.704,-2.6812,-2.6687,-2.6832,-2.7123,0.0,0.0,-2.7455,0.0,-2.7903,-2.8504,-2.898,-2.929,-2.9766,-3.0072,-3.018,-2.993,-2.9959,-3.017,-2.992,-3.0019,-3.043,-3.043,-3.0605,-3.0898,-3.0898,-2.9431,-2.6987,-2.7004,-2.5423,-2.3106,-2.3106,-2.3501,-2.4086,-2.4086,-2.4496,-2.5119,-3.3621,-3.347,-3.337,-3.337,-3.3696,-3.4675,-3.686,-3.927,-4.2108,-4.5623,-4.7205,-4.8987,-5.1599,-5.1523,-5.1222,-5.1021,-4.9038,-4.6803,-4.4493,-4.2861,-4.1103,-3.917,-3.8291,-3.7462,-3.6732,-3.4721,-3.3683,-3.3612,-3.2354,-3.216,0.0,0.0,0.0,0.0,0.0,-3.407,-3.3375,-3.3702,-3.3398,-3.2491,-3.1189,-3.0967,-3.1298,-3.0532,-3.0532,-3.0864,-3.0408,-3.0139,-3.0015,-3.018,-3.0036,-2.9829,-2.9994,-2.9829,-2.9601,-2.9601,-2.9911,-3.0243,-3.0077,-3.0594,-3.0864,-2.9663,-2.9456,-2.927,-2.8235,-2.7738,-2.7552,-2.7717,-2.7537,-2.7351,-2.7469,0.0,0.0,0.0,0.0,0.0,0.0,-2.704,-2.6915,-2.704,-2.6791,-2.6687,-2.6853,-2.6978,0.0,0.0,0.0,0.0,0.0,-2.8276,-2.8752,-2.9042,-2.9663,-3.0072,-3.018,-2.9769,-2.9744,-3.0189,-2.9783,-2.9785,-3.0195,-3.0371,-3.0508,-3.0644,-3.082,-2.9431,-2.6987,-2.7004,-2.5423,-2.312,-2.3237,-2.3618,-2.4086,-2.4086,-2.4496,-2.5119,-3.337,-3.3621,-3.4022,-3.4022,-3.4831,-3.5884,-3.7136,-4.0526,-4.4016,-4.6954,-4.8812,-5.072,-5.2929,-5.3181,-5.2929,-5.2327,-5.1222,-4.8736,-4.4443,-4.4543,-4.2861,-3.8567,-3.9798,-3.9572,-3.7387,-3.5746,-3.4318,-3.3236,-3.1739,0.0,0.0,0.0,0.0,0.0,-3.423,-3.4237,-3.2565,-3.4504,-3.4429,-3.2818,-3.138,-3.1008,-3.134,-3.0905,-3.1008,-3.1319,-3.0843,-3.0408,-3.0098,-3.0532,-3.0698,-3.0801,-3.1236,-3.1381,-3.1381,-3.1381,-3.1692,-3.1884,-3.1526,-3.1733,-3.1857,-3.0946,-3.0387,-2.9932,-2.9456,-2.8649,-2.8152,-2.8566,-2.7966,-2.7469,-2.7862,0.0,0.0,0.0,0.0,0.0,0.0,0.0,-2.7143,-2.6708,-2.6646,-2.6812,-2.7226,-2.6895,-2.6832,0.0,0.0,0.0,0.0,-2.8131,-2.8607,-2.8607,-2.9518,-3.0249,-3.086,-2.9682,-2.9853,-3.1187,-3.0131,-2.9785,-3.0215,-3.0644,-3.0625,-3.0254,-3.0703,-2.9431,-2.7021,-2.7021,-2.5423,-2.3135,-2.3471,-2.3808,-2.4101,-2.413,-2.4525,-2.5119,-3.4349,-3.5077,-3.5776,-3.5776,-3.5629,-3.6285,-3.8693,-4.1279,-4.4719,-4.959,-5.2377,-5.4587,-5.642,-5.662,-5.6068,-5.4662,-5.3155,-5.1448,-4.949,-4.7933,-4.6024,-4.3664,-4.2384,-4.1078,-3.9697,-3.7262,-3.5843,-3.5531,-3.3979,0.0,-3.3474,0.0,0.0,0.0,0.0,-3.277,-3.2999,-3.3923,-3.3605,-3.2457,-3.1885,-3.1567,-3.1402,-3.1609,-3.1567,-3.1319,-3.0843,-3.0615,-3.0532,-3.0657,-3.0905,-3.1215,-3.134,-3.1381,-3.1381,-3.1381,-3.1692,-3.1967,-3.1843,-3.2209,-3.2333,-3.1422,-3.1112,-3.0822,-2.9994,-2.9622,-2.9394,-2.9166,-2.8938,-2.8607,-2.8028,-2.7841,0.0,0.0,0.0,0.0,0.0,0.0,-2.7268,-2.7143,-2.7123,-2.704,-2.6812,-2.6998,-2.7185,-2.7309,0.0,0.0,-2.7309,-2.8131,-2.8607,-2.8607,-2.9518,-3.0105,-3.0357,-2.9863,-2.9853,-3.0297,-2.9856,-2.9785,-3.0195,-3.0312,-3.0488,-3.0723,-3.084,-2.9431,-2.7021,-2.7021,-2.5423,-2.3135,-2.3471,-2.394,-2.4466,-2.4782,-2.4987,-2.5119,-3.5082,-3.6358,-3.7662,-3.809,-3.8919,-3.9997,-4.1605,-4.3313,-4.6175,-5.0996,-5.3607,-5.539,-5.6344,-5.7323,-5.7223,-5.5541,-5.4084,-5.2603,-5.1021,-4.9715,-4.8159,-4.6276,-4.4769,-4.3338,-4.1982,-3.8753,-3.6911,-3.6431,-3.3694,-3.2559,-3.2892,0.0,0.0,0.0,0.0,-3.1825,-3.1527,-3.2248,-3.2493,-3.2402,-3.1683,-3.1547,0.0,-3.1884,-3.1754,-3.136,-3.1298,-3.1029,-3.0739,-3.1133,-3.1443,-3.1712,-3.1899,-3.1961,-3.1961,-3.1961,-3.2147,-3.2277,-3.2277,-3.2483,-3.2602,-3.2106,-3.1816,-3.1526,-3.1008,-3.0574,-3.0222,-2.9973,-2.958,-2.9145,-2.8628,-2.8193,0.0,0.0,0.0,0.0,0.0,-2.7309,-2.7309,-2.7309,-2.7309,-2.7206,-2.6936,-2.6978,-2.7081,-2.7289,-2.7123,0.0,-2.7289,-2.8131,-2.8607,-2.8607,-2.9911,-3.0665,-3.0717,-3.0518,-3.0489,-3.0761,-3.0167,-2.9961,-3.0195,-3.041,-3.0238,-2.9773,-2.9944,-2.8582,-2.6172,-2.6172,-2.5028,-2.3369,-2.3837,-2.4335,-2.487,-2.5061,-2.5119,-2.5119,-3.5834,-3.7613,-3.9471,-4.035,-4.2911,-4.4995,-4.5422,-4.6577,-4.8661,-5.2176,-5.421,-5.5265,-5.5114,-5.6721,-5.7148,-5.5541,-5.4361,-5.2854,-5.087,-5.0619,-4.964,-4.7657,-4.6828,-4.5673,-4.4066,-4.034,-3.7855,-3.6713,-3.2692,-3.1109,-3.1852,0.0,0.0,0.0,0.0,-3.1311,-2.9917,-3.0751,-3.1675,-3.244,-3.127,-3.1174,-3.1719,-3.1781,-3.1588,-3.1257,-3.1774,-3.1485,-3.0988,-3.1719,-3.2029,-3.2153,-3.2545,-3.2669,-3.2669,-3.2669,-3.2669,-3.2669,-3.2669,-3.2669,-3.2669,-3.2669,-3.238,-3.207,-3.207,-3.1526,-3.0926,-3.0884,-3.018,-2.9539,-2.9415,-2.8628,0.0,0.0,0.0,0.0,-2.7392,-2.7351,-2.7309,-2.7309,-2.7309,0.0,-2.7309,-2.6936,-2.6874,-2.7268,-2.6936,-2.6874,-2.7289,-2.8131,-2.8607,-2.8607,-3.0346,-3.1319,-3.1381,-3.1238,-3.1402,-3.1787,-3.0813,-3.035,-3.0293,-3.0529,-2.983,-2.8367,-2.8596,-2.7289,-2.5071,-2.5119,-2.4563,-2.3779,-2.4349,-2.4774,-2.5119,-2.5119,-2.5119,-2.5119,-3.701,-3.9069,-4.0827,-4.0551,-4.3564,-4.6928,-4.969,-5.1825,-5.3683,-5.529,-5.7725,-5.8981,-5.8102,-5.7524,-5.6696,-5.5491,-5.4361,-5.3356,-5.2553,-5.1624,-5.0745,-4.9891,-4.8008,-4.6426,-4.5221,-4.1868,-3.9563,-3.8441,-3.509,-3.3267,-3.2978,0.0,0.0,0.0,0.0,0.0,-3.2514,-3.2574,-3.2307,-3.1789,-3.1407,-3.0884,-3.0387,-3.0781,-3.0636,-3.0346,-3.1195,-3.1629,-3.1836,-3.1926,-3.2235,-3.2566,-3.2649,-3.2669,-3.2669,-3.2669,-3.2669,-3.2669,-3.2669,-3.2669,-3.2669,-3.2669,-3.2607,-3.2545,-3.2545,-3.2421,-3.2271,-3.1822,-3.1381,-3.0781,-3.0015,-2.9125,-2.8462,0.0,-2.8048,-2.78,-2.78,-2.7489,-2.7309,-2.7309,-2.7309,-2.7309,-2.7309,-2.7226,-2.7226,-2.7309,-2.7226,-2.7226,-2.7309,-2.8131,-2.8607,-2.8607,-3.0036,-3.0988,-3.1381,-3.1461,-3.1629,-3.1787,-3.1303,-3.0994,-3.0762,-2.9747,-2.9061,-2.8769,-2.7769,-2.6459,-2.5087,-2.5311,-2.5055,-2.4408,-2.4525,-2.4774,-2.5119,-2.5119,-2.5119,-2.5119,-4.0174,-4.1505,-4.2986,-4.4141,-4.7104,-5.0243,-5.298,-5.5767,-5.7123,-5.5942,-5.6696,-5.7022,-5.6219,-5.6671,-5.6595,-5.5491,-5.4637,-5.3909,-5.3356,-5.2051,-5.1147,-5.087,-4.9012,-4.733,-4.5949,-4.2936,-4.0676,-3.9295,-3.5258,-3.2983,-3.2465,0.0,0.0,-2.9397,0.0,-3.1345,-3.2705,-3.2336,-3.2001,-3.1784,-3.1496,-3.1236,-3.1071,-3.1298,-3.1257,-3.1153,-3.1836,-3.2209,-3.2339,-3.2339,-3.2483,-3.2669,-3.2669,-3.2669,-3.2669,-3.2669,-3.2669,-3.2669,-3.2669,-3.2669,-3.2669,-3.2669,-3.2669,-3.2669,-3.2669,-3.2669,-3.2545,-3.207,-3.1878,-3.136,-3.0201,-2.9435,-2.8897,-2.8649,-2.8421,-2.8276,-2.8276,-2.809,-2.7862,-2.7634,-2.7593,-2.751,-2.733,-2.7309,-2.7309,-2.7309,-2.7309,-2.7309,-2.7309,-2.8131,-2.8731,-2.8959,-3.0372,-3.1264,-3.1491,-3.1714,-3.1692,-3.1556,-3.1228,-3.0995,-3.084,-2.9695,-2.8811,-2.8069,-2.6806,-2.5624,-2.4571,-2.4921,-2.4865,-2.465,-2.4826,-2.4987,-2.5119,-2.5119,-2.5119,-2.5119,-4.3564,-4.4317,-4.5623,-4.8033,-5.087,-5.3381,-5.5114,-5.8102,-5.9207,-5.6595,-5.5792,-5.5239,-5.4662,-5.5842,-5.6294,-5.529,-5.4712,-5.4135,-5.3582,-5.2126,-5.1322,-5.1448,-4.9741,-4.8109,-4.6677,-4.3915,-4.163,-3.9873,-3.517,-3.254,-3.1871,0.0,0.0,0.0,-3.0759,-3.1581,-3.1979,-3.1958,-3.1772,-3.1588,-3.134,-3.1443,-3.1698,-3.1698,-3.1816,-3.1961,-3.2359,-3.2525,-3.2545,-3.2649,-3.2669,-3.2669,-3.2669,-3.2669,-3.2669,-3.2669,-3.2669,-3.2669,-3.2669,-3.2669,-3.2669,-3.2669,-3.2669,-3.2669,-3.2669,-3.2669,-3.2566,-3.2194,-3.205,-3.1616,-3.0512,-2.9911,-2.9477,-2.9125,-2.8897,-2.8752,-2.8752,-2.8587,-2.8359,-2.809,-2.7903,-2.7676,-2.7475,-2.7372,-2.7309,-2.7309,-2.7309,-2.7309,-2.7309,-2.8028,-2.8669,-2.9145,-3.0573,-3.1431,-3.1717,-3.191,-3.1879,-3.1741,-3.125,-3.1035,-3.1113,-2.9675,-2.8526,-2.7548,-2.5943,-2.483,-2.4203,-2.4466,-2.4613,-2.4701,-2.5017,-2.5119,-2.5119,-2.5119,-2.5119,-2.5119,-4.5773,-4.7255,-4.8711,-4.9967,-5.2904,-5.5139,-5.5365,-5.7775,-5.9458,-5.9156,-5.8654,-5.8127,-5.7575,-5.6344,-5.529,-5.4687,-5.411,-5.3557,-5.303,-5.1925,-5.1498,-5.2,-4.9941,-4.846,-4.7782,-4.507,-4.2585,-4.045,-3.6125,-3.3492,-3.24,-3.0807,0.0,-3.157,-3.2558,-3.2239,-3.114,-3.2915,-3.2325,-3.0222,-3.0594,-3.0781,-3.0822,-3.0822,-3.1071,-3.1505,-3.194,-3.205,-3.2112,-3.2582,-3.2669,-3.2669,-3.2669,-3.2669,-3.2669,-3.2669,-3.2669,-3.2669,-3.2669,-3.2669,-3.2669,-3.2669,-3.2669,-3.2669,-3.2669,-3.2669,-3.2669,-3.2607,-3.2277,-3.1878,-3.134,-3.0864,-3.0532,-3.0491,-2.9787,-2.9249,-2.9249,-2.8524,-2.8131,-2.8504,-2.7821,-2.7469,-2.7821,-2.7489,-2.7309,-2.7309,-2.7309,-2.7309,-2.7309,-2.7717,-2.8193,-2.8669,-2.9741,-3.0907,-3.2129,-3.1923,-3.2254,-3.3089,-3.184,-3.1564,-3.1971,-2.9,-2.7803,-2.7895,-2.5368,-2.4348,-2.4591,-2.4554,-2.4811,-2.509,-2.5119,-2.5119,-2.5119,-2.5119,-2.5119,-2.5119,-4.964,-5.0042,-5.1046,-5.3457,-5.4712,-5.5942,-5.76,-5.878,-5.9382,-5.9081,-5.8554,-5.8001,-5.7449,-5.6194,-5.5164,-5.4612,-5.4034,-5.3482,-5.2955,-5.2201,-5.1724,-5.1624,-5.0419,-4.9038,-4.7481,-4.5372,-4.3062,-4.0526,-3.7146,-3.4484,-3.2469,-3.1189,-3.0855,-3.1319,-3.2215,-3.2252,-3.1812,-3.2804,-3.2436,-3.1236,-3.1422,-3.1505,-3.1505,-3.1505,-3.1795,-3.225,-3.2685,-3.3016,-3.3285,-3.3472,-3.3348,-3.312,-3.312,-3.312,-3.312,-3.312,-3.2934,-3.2669,-3.2669,-3.2669,-3.2669,-3.2669,-3.2669,-3.2669,-3.2669,-3.2669,-3.2669,-3.2669,-3.2147,-3.1671,-3.1754,-3.0946,-3.0367,-3.0636,-3.0139,-2.9725,-2.9725,-2.9394,-2.9021,-2.8649,-2.8297,-2.8028,-2.7924,-2.751,-2.7413,-2.7634,-2.7455,-2.7309,-2.7309,-2.7798,-2.8366,-2.9021,-2.9728,-3.0665,-3.196,-3.0917,-3.0702,-3.138,-3.0808,-3.0246,-2.9635,-2.8626,-2.7352,-2.5934,-2.5099,-2.4627,-2.465,-2.4855,-2.5002,-2.5119,-2.5119,-2.5119,-2.5119,-2.5119,-2.5119,-2.5119,-5.2653,-5.2653,-5.3432,-5.642,-5.662,-5.7072,-5.9182,-5.9357,-5.9081,-5.8554,-5.8001,-5.7499,-5.7072,-5.6043,-5.5164,-5.4612,-5.4034,-5.3482,-5.2955,-5.2251,-5.1699,-5.1297,-5.0569,-4.9289,-4.7405,-4.605,-4.4016,-4.1229,-3.8631,-3.5904,-3.3135,-3.1548,-3.0961,-3.1112,-3.2001,-3.2192,-3.1899,-3.2695,-3.2563,-3.1857,-3.1926,-3.1988,-3.1988,-3.1988,-3.2277,-3.2789,-3.3223,-3.3575,-3.3945,-3.4031,-3.3948,-3.3762,-3.3617,-3.3634,-3.3634,-3.3634,-3.3368,-3.312,-3.312,-3.312,-3.312,-3.312,-3.312,-3.3099,-3.2954,-3.2913,-3.2892,-3.2747,-3.223,-3.1878,-3.2132,-3.134,-3.0698,-3.1029,-3.0594,-3.0201,-3.0201,-2.9973,-2.9601,-2.9083,-2.8773,-2.8545,-2.8359,-2.7924,-2.7779,-2.809,-2.7841,-2.7593,-2.7373,-2.7824,-2.845,-2.9219,-2.9836,-3.0661,-3.1794,-3.0351,-2.9904,-3.0479,-2.9805,-2.9055,-2.8332,-2.8202,-2.6903,-2.4797,-2.5017,-2.4987,-2.4797,-2.5031,-2.5119,-2.5119,-2.5119,-2.5119,-2.5119,-2.5119,-2.5119,-2.5134,-5.421,-5.4963,-5.6043,-5.8303,-5.8679,-5.8855,-5.9408,-5.9056,-5.8529,-5.7976,-5.7399,-5.7047,-5.7022,-5.6043,-5.5164,-5.4612,-5.4034,-5.3482,-5.2955,-5.19,-5.1297,-5.1272,-5.0193,-4.9063,-4.7933,-4.738,-4.5748,-4.2936,-4.074,-3.7982,-3.4728,-3.1997,-3.1021,-3.1607,-3.2494,-3.2052,-3.0847,-3.2792,-3.2724,-3.1422,-3.1857,-3.1988,-3.1988,-3.1988,-3.2277,-3.2789,-3.3223,-3.3389,-3.3451,-3.3906,-3.4422,-3.4733,-3.4256,-3.4051,-3.4051,-3.4051,-3.4111,-3.4111,-3.4111,-3.4111,-3.4111,-3.4111,-3.4111,-3.3986,-3.3472,-3.3368,-3.3244,-3.283,-3.2669,-3.2669,-3.2669,-3.2277,-3.1967,-3.1967,-3.1257,-3.0677,-3.0677,-2.9891,-2.9477,-2.9932,-2.9166,-2.8794,-2.9249,-2.8876,-2.8607,-2.8607,-2.8607,-2.8251,-2.7525,-2.7729,-2.8246,-2.9071,-2.9922,-3.0857,-3.188,-3.0724,-3.0453,-3.1286,-2.9031,-2.8447,-2.9165,-2.7734,-2.6352,-2.5119,-2.5119,-2.5119,-2.5119,-2.5119,-2.5119,-2.5119,-2.5119,-2.5119,-2.5119,-2.5119,-2.5119,-2.5163,-5.6068,-5.6394,-5.6972,-5.8453,-5.873,-5.8905,-5.9408,-5.9056,-5.8529,-5.7976,-5.7399,-5.6897,-5.652,-5.5491,-5.4587,-5.4034,-5.3482,-5.2955,-5.2402,-5.2026,-5.1498,-5.072,-5.0343,-4.9439,-4.7933,-4.7405,-4.5773,-4.2986,-4.1958,-3.9479,-3.5703,-3.3197,-3.2649,-3.3628,-3.3394,-3.3303,-3.3341,-3.3402,-3.3027,-3.2313,-3.2457,-3.2463,-3.2463,-3.2463,-3.2789,-3.3182,-3.3327,-3.3782,-3.4401,-3.4546,-3.4838,-3.519,-3.5024,-3.4776,-3.4608,-3.4608,-3.438,-3.4132,-3.4132,-3.4132,-3.4132,-3.4132,-3.4132,-3.409,-3.3945,-3.3596,-3.3265,-3.283,-3.2421,-3.2297,-3.2607,-3.2106,-3.1692,-3.1946,-3.1278,-3.0677,-3.0677,-3.016,-2.9829,-2.9973,-2.9746,-2.9746,-3.0201,-2.9405,-2.9024,-2.9539,-2.8777,-2.8316,-2.8251,-2.8523,-2.8897,-2.9343,-3.0266,-3.1091,-3.19,-3.0,-2.9328,-2.9835,-2.8161,-2.7523,-2.7734,-2.6368,-2.551,-2.5119,-2.5119,-2.5119,-2.5119,-2.5119,-2.5119,-2.5119,-2.5119,-2.5119,-2.5119,-2.5119,-2.5198,-2.5388,-5.6972,-5.7198,-5.77,-5.883,-5.8679,-5.8654,-5.9382,-5.8704,-5.7976,-5.7625,-5.7072,-5.6445,-5.5666,-5.4988,-5.4411,-5.4059,-5.3356,-5.2779,-5.2427,-5.2026,-5.1473,-5.077,-5.0343,-4.9515,-4.8259,-4.7707,-4.6376,-4.4217,-4.2476,-4.0105,-3.7169,-3.5291,-3.4787,-3.5536,-3.474,-3.4668,-3.5072,-3.3886,-3.3223,-3.2954,-3.2789,-3.2669,-3.2669,-3.2669,-3.2892,-3.3161,-3.3327,-3.38,-3.4318,-3.4505,-3.4797,-3.5169,-3.5169,-3.5107,-3.5004,-3.5004,-3.4797,-3.4569,-3.4569,-3.4569,-3.4569,-3.4569,-3.4569,-3.4527,-3.4422,-3.4028,-3.3555,-3.3285,-3.2871,-3.2623,-3.2913,-3.2375,-3.1981,-3.2194,-3.1547,-3.0946,-3.0946,-3.0408,-3.0056,-3.0243,-3.0243,-3.0376,-3.0722,-3.0089,-2.9697,-2.9925,-2.9509,-2.9225,-2.9034,-2.9355,-2.9668,-3.0028,-3.1029,-3.1741,-3.2214,-2.9978,-2.8943,-2.9182,-2.7286,-2.6368,-2.6301,-2.5457,-2.5119,-2.5119,-2.5119,-2.5119,-2.5119,-2.5119,-2.5119,-2.5119,-2.5119,-2.5119,-2.5119,-2.5119,-2.5257,-2.5549,-5.6972,-5.7449,-5.8177,-5.9207,-5.8554,-5.8252,-5.9282,-5.8077,-5.7022,-5.7022,-5.652,-5.5767,-5.4737,-5.4561,-5.4511,-5.4511,-5.3507,-5.2854,-5.2804,-5.1825,-5.1197,-5.1172,-5.0167,-4.9339,-4.8786,-4.8209,-4.7355,-4.625,-4.2561,-4.0168,-3.9099,-3.795,-3.7373,-3.7317,-3.6436,-3.6056,-3.5932,-3.4202,-3.341,-3.3348,-3.2913,-3.269,-3.2768,-3.2768,-3.2789,-3.2871,-3.3285,-3.3451,-3.3534,-3.4028,-3.4484,-3.4857,-3.4857,-3.5086,-3.5418,-3.5418,-3.5418,-3.5418,-3.5418,-3.5418,-3.5418,-3.5418,-3.5418,-3.5314,-3.4859,-3.4484,-3.4173,-3.4132,-3.372,-3.343,-3.343,-3.3078,-3.2768,-3.2768,-3.1981,-3.1381,-3.1381,-3.0574,-3.018,-3.0677,-3.076,-3.0838,-3.0997,-3.0982,-3.0709,-2.9977,-3.0585,-3.0706,-2.9962,-3.0106,-3.0394,-3.0918,-3.1918,-3.2566,-3.2669,-3.0223,-2.8986,-2.8854,-2.6301,-2.5119,-2.5119,-2.5119,-2.5119,-2.5119,-2.5119,-2.5119,-2.5119,-2.5119,-2.5119,-2.5119,-2.5119,-2.5119,-2.5134,-2.5149,-2.5286,-2.5608,-5.642,-5.6846,-5.7449,-5.8152,-5.8077,-5.8127,-5.8805,-5.7826,-5.7022,-5.7022,-5.6194,-5.5491,-5.5214,-5.4411,-5.3909,-5.3909,-5.2929,-5.2126,-5.1699,-5.1021,-5.0444,-5.0017,-4.9741,-4.9339,-4.8786,-4.8209,-4.7179,-4.5673,-4.3374,-4.1914,-4.1124,-3.9908,-3.9114,-3.8688,-3.751,-3.6784,-3.6354,-3.4665,-3.3758,-3.3348,-3.2913,-3.2934,-3.3223,-3.3223,-3.3451,-3.3762,-3.3865,-3.4194,-3.4505,-3.4629,-3.49,-3.5273,-3.5273,-3.5335,-3.5418,-3.5418,-3.5418,-3.5418,-3.5418,-3.5418,-3.5418,-3.5418,-3.5418,-3.5314,-3.4859,-3.4733,-3.4546,-3.4134,-3.4049,-3.3906,-3.3906,-3.3534,-3.3223,-3.3223,-3.2188,-3.1381,-3.1381,-3.0414,-3.0072,-3.1112,-3.134,-3.1543,-3.1937,-3.1751,-3.1482,-3.1325,-3.0658,-3.0568,-3.1363,-3.0431,-3.0314,-3.115,-3.1184,-3.1146,-3.1176,-2.8799,-2.7086,-2.6048,-2.539,-2.5119,-2.5119,-2.5119,-2.5119,-2.5119,-2.5119,-2.5119,-2.5119,-2.5119,-2.5119,-2.5119,-2.5119,-2.5119,-2.5149,-2.533,-2.5622,-2.5944,-5.6545,-5.7047,-5.76,-5.8177,-5.8052,-5.8001,-5.8303,-5.7374,-5.657,-5.6319,-5.5767,-5.5189,-5.4662,-5.4059,-5.3607,-5.3356,-5.2829,-5.2251,-5.1699,-5.1122,-5.0569,-4.9992,-4.9715,-4.9339,-4.8786,-4.8209,-4.7104,-4.5497,-4.4522,-4.3698,-4.3075,-4.219,-4.1258,-4.0388,-3.8834,-3.7695,-3.6834,-3.4918,-3.3927,-3.3637,-3.2996,-3.2871,-3.3078,-3.3078,-3.3368,-3.3762,-3.3762,-3.4111,-3.4505,-3.4505,-3.4755,-3.5128,-3.5128,-3.5252,-3.5418,-3.5418,-3.5418,-3.5418,-3.5418,-3.5418,-3.5418,-3.5418,-3.5418,-3.5355,-3.5107,-3.5231,-3.5314,-3.5045,-3.4838,-3.4693,-3.4693,-3.3969,-3.3306,-3.312,-3.2126,-3.1298,-3.1091,-3.0508,-3.0475,-3.1567,-3.1896,-3.226,-3.2624,-3.2509,-3.2113,-3.1422,-3.0723,-3.0348,-3.0462,-2.9867,-2.9963,-3.0997,-3.0382,-3.0035,-3.0035,-2.8097,-2.6435,-2.5119,-2.5198,-2.5271,-2.5271,-2.5432,-2.5418,-2.5271,-2.5271,-2.5183,-2.5119,-2.5119,-2.5119,-2.5134,-2.5213,-2.5271,-2.5315,-2.5637,-2.5959,-2.6266,-5.6821,-5.7374,-5.7926,-5.8378,-5.8077,-5.7775,-5.7775,-5.6872,-5.6018,-5.5465,-5.5315,-5.4863,-5.3808,-5.3632,-5.3406,-5.2955,-5.2854,-5.2578,-5.2026,-5.1448,-5.0896,-5.0318,-4.9841,-4.9364,-4.8912,-4.8234,-4.7154,-4.5623,-4.5623,-4.5321,-4.4744,-4.4019,-4.2922,-4.1494,-3.9741,-3.8209,-3.6881,-3.4987,-3.4235,-3.4152,-3.3265,-3.2975,-3.3037,-3.3037,-3.3306,-3.3679,-3.3679,-3.3948,-3.4279,-3.4279,-3.4527,-3.4859,-3.4859,-3.5128,-3.5418,-3.5418,-3.5418,-3.5418,-3.5418,-3.5418,-3.5418,-3.5418,-3.5418,-3.5418,-3.5418,-3.5728,-3.5997,-3.5997,-3.5707,-3.5418,-3.5418,-3.4362,-3.3368,-3.2996,-3.2064,-3.1236,-3.0843,-3.0781,-3.1037,-3.1884,-3.2525,-3.2933,-3.3095,-3.3155,-3.2535,-3.0994,-3.0728,-3.0116,-2.892,-2.883,-2.9237,-3.0112,-2.9336,-2.8789,-2.8592,-2.7419,-2.6264,-2.5125,-2.5403,-2.5549,-2.5608,-2.5886,-2.5871,-2.5608,-2.5608,-2.5447,-2.5266,-2.5266,-2.5266,-2.5227,-2.5491,-2.5608,-2.5637,-2.5974,-2.6266,-2.6515,-5.6319,-5.6796,-5.7198,-5.7273,-5.7223,-5.7173,-5.7173,-5.662,-5.6018,-5.5465,-5.4988,-5.4436,-5.3758,-5.3306,-5.3005,-5.2929,-5.2503,-5.2,-5.1448,-5.087,-5.0318,-4.9741,-4.964,-4.9565,-4.9464,-4.8435,-4.733,-4.6175,-4.6175,-4.5899,-4.5347,-4.3688,-4.1971,-4.025,-3.841,-3.6885,-3.5623,-3.498,-3.4712,-3.4671,-3.4072,-3.4093,-3.4445,-3.4445,-3.4714,-3.5107,-3.5107,-3.5148,-3.5211,-3.5211,-3.5252,-3.5314,-3.5314,-3.5376,-3.5418,-3.5418,-3.5418,-3.5418,-3.5418,-3.5418,-3.5418,-3.5418,-3.5418,-3.5418,-3.5418,-3.548,-3.5521,-3.5521,-3.548,-3.5418,-3.5418,-3.4631,-3.3948,-3.3865,-3.2457,-3.136,-3.1278,-3.1038,-3.1148,-3.1926,-3.2888,-3.3452,-3.3155,-3.3457,-3.2863,-3.0897,-3.0376,-2.9879,-2.9193,-2.7735,-2.7147,-2.7653,-2.7519,-2.6886,-2.5779,-2.551,-2.5387,-2.5461,-2.5505,-2.5681,-2.5944,-2.5988,-2.5988,-2.5944,-2.5944,-2.5915,-2.5871,-2.5871,-2.5871,-2.5871,-2.5915,-2.5944,-2.5974,-2.631,-2.6457,-2.6544,-5.6219,-5.6646,-5.6947,-5.6646,-5.6846,-5.6922,-5.6646,-5.6369,-5.5917,-5.5064,-5.4712,-5.4235,-5.3381,-5.308,-5.2929,-5.2929,-5.2427,-5.1875,-5.1322,-5.0745,-5.0167,-4.9615,-4.959,-4.9314,-4.8711,-4.7908,-4.7104,-4.6301,-4.6301,-4.6175,-4.5924,-4.4432,-4.2687,-4.0709,-3.9077,-3.7401,-3.5749,-3.5045,-3.4816,-3.4774,-3.4318,-3.4256,-3.4443,-3.4443,-3.4672,-3.5066,-3.5066,-3.5211,-3.5418,-3.5418,-3.5418,-3.5418,-3.5418,-3.5418,-3.5418,-3.5418,-3.5418,-3.5418,-3.5418,-3.5418,-3.5418,-3.5418,-3.5418,-3.548,-3.5728,-3.5976,-3.6246,-3.6494,-3.6349,-3.6163,-3.6163,-3.5024,-3.4132,-3.4132,-3.2561,-3.1464,-3.1692,-3.1435,-3.1615,-3.267,-3.3596,-3.4144,-3.4233,-3.4452,-3.3965,-3.2632,-3.1883,-3.0858,-2.9556,-2.8013,-2.6957,-2.6497,-2.6163,-2.5712,-2.5119,-2.5227,-2.5388,-2.5535,-2.5886,-2.6135,-2.6281,-2.6457,-2.6442,-2.6281,-2.6281,-2.6179,-2.6018,-2.6018,-2.6018,-2.6032,-2.6208,-2.6281,-2.631,-2.6647,-2.6764,-2.6808,-5.6219,-5.6545,-5.6721,-5.6294,-5.657,-5.6696,-5.6269,-5.6093,-5.5666,-5.4687,-5.4436,-5.4009,-5.303,-5.2929,-5.2929,-5.2929,-5.2427,-5.1875,-5.1322,-5.0745,-5.0167,-4.9615,-4.959,-4.9063,-4.7933,-4.7531,-4.6979,-4.6301,-4.6301,-4.612,-4.5828,-4.4477,-4.2868,-4.0961,-3.9235,-3.758,-3.6059,-3.5252,-3.4921,-3.4879,-3.4527,-3.4383,-3.4383,-3.4383,-3.461,-3.4921,-3.4921,-3.5128,-3.5418,-3.5418,-3.5418,-3.5418,-3.5418,-3.5418,-3.5418,-3.5418,-3.55,-3.5583,-3.5583,-3.5583,-3.5604,-3.5707,-3.5749,-3.5832,-3.6183,-3.6556,-3.6908,-3.726,-3.7053,-3.6804,-3.6804,-3.548,-3.4341,-3.4297,-3.2892,-3.1919,-3.2112,-3.2251,-3.2653,-3.3696,-3.4451,-3.5006,-3.5281,-3.521,-3.4811,-3.3849,-3.3049,-3.1671,-2.9497,-2.8467,-2.7314,-2.6003,-2.5535,-2.5286,-2.5286,-2.552,-2.5681,-2.5754,-2.6266,-2.6544,-2.6617,-2.6881,-2.6852,-2.6617,-2.6617,-2.6471,-2.6237,-2.6237,-2.6237,-2.6266,-2.6515,-2.6617,-2.6647,-2.6896,-2.7042,-2.7144,-5.6219,-5.6244,-5.6269,-5.6219,-5.6244,-5.6269,-5.6219,-5.5767,-5.5239,-5.4708,-5.411,-5.3557,-5.298,-5.2929,-5.2929,-5.2929,-5.2427,-5.1875,-5.1322,-5.0745,-5.0167,-4.9615,-4.959,-4.9063,-4.7933,-4.7883,-4.733,-4.6301,-4.6301,-4.5671,-4.4436,-4.2668,-4.1069,-3.9555,-3.7339,-3.6269,-3.608,-3.5583,-3.5376,-3.5376,-3.5335,-3.5314,-3.5314,-3.5314,-3.5335,-3.5376,-3.5376,-3.5397,-3.5418,-3.5418,-3.5418,-3.5418,-3.5418,-3.5418,-3.5418,-3.5418,-3.5728,-3.6059,-3.6059,-3.6059,-3.6163,-3.6597,-3.6701,-3.6701,-3.6742,-3.6784,-3.6825,-3.6846,-3.6825,-3.6804,-3.6804,-3.5997,-3.519,-3.4837,-3.3924,-3.3099,-3.2727,-3.3762,-3.459,-3.4693,-3.558,-3.6078,-3.5751,-3.5426,-3.4537,-3.2848,-3.2666,-3.1393,-2.8583,-2.8308,-2.7563,-2.6088,-2.5974,-2.5944,-2.5944,-2.5974,-2.6135,-2.6427,-2.6486,-2.6661,-2.6954,-2.6983,-2.6983,-2.6954,-2.6954,-2.6939,-2.6925,-2.6925,-2.6925,-2.6925,-2.6939,-2.6954,-2.6954,-2.6983,-2.7188,-2.7452,-5.6219,-5.6219,-5.6219,-5.6219,-5.6219,-5.6219,-5.6219,-5.6043,-5.5566,-5.4687,-5.4386,-5.3909,-5.303,-5.2929,-5.2929,-5.2929,-5.2427,-5.2026,-5.18,-5.0921,-5.0167,-4.9615,-4.959,-4.9238,-4.846,-4.8083,-4.7556,-4.6828,-4.6476,-4.5611,-4.4288,-4.3208,-4.1713,-3.9864,-3.8055,-3.7002,-3.6494,-3.5749,-3.5418,-3.5418,-3.5418,-3.5418,-3.5459,-3.5749,-3.5666,-3.55,-3.608,-3.6101,-3.5894,-3.6183,-3.608,-3.5894,-3.6183,-3.5894,-3.548,-3.5769,-3.6183,-3.6597,-3.6887,-3.6763,-3.6577,-3.6763,-3.6804,-3.6887,-3.7177,-3.7239,-3.7322,-3.7612,-3.7425,-3.7239,-3.7239,-3.6473,-3.5894,-3.6018,-3.5024,-3.4362,-3.4776,-3.4841,-3.5067,-3.5641,-3.6078,-3.634,-3.6203,-3.609,-3.5622,-3.4767,-3.47,-3.344,-3.0453,-2.8499,-2.7158,-2.6325,-2.6515,-2.6427,-2.6018,-2.6222,-2.6383,-2.65,-2.6705,-2.6866,-2.6983,-2.6983,-2.6983,-2.6983,-2.6983,-2.6983,-2.6983,-2.6983,-2.6983,-2.6983,-2.6983,-2.6983,-2.6983,-2.6983,-2.7203,-2.751,-5.6219,-5.6219,-5.6219,-5.6219,-5.6219,-5.6219,-5.6219,-5.6068,-5.5691,-5.4913,-5.4511,-5.4009,-5.3256,-5.303,-5.2929,-5.2929,-5.2578,-5.2277,-5.2126,-5.1046,-5.0167,-4.9615,-4.959,-4.9339,-4.8786,-4.8385,-4.7908,-4.738,-4.6828,-4.5858,-4.4553,-4.3507,-4.2028,-4.0148,-3.857,-3.7509,-3.697,-3.6183,-3.5852,-3.5852,-3.5852,-3.5769,-3.5666,-3.5997,-3.5914,-3.5728,-3.6349,-3.6473,-3.637,-3.6701,-3.6597,-3.639,-3.6701,-3.637,-3.5956,-3.6411,-3.6763,-3.7115,-3.7591,-3.7591,-3.7405,-3.7281,-3.7343,-3.7529,-3.7839,-3.8026,-3.8233,-3.8543,-3.8357,-3.8129,-3.8129,-3.7488,-3.7032,-3.7218,-3.6453,-3.5997,-3.6473,-3.6323,-3.6295,-3.6852,-3.6841,-3.6831,-3.6722,-3.6451,-3.6268,-3.6016,-3.6016,-3.4677,-3.1649,-2.8619,-2.6881,-2.6661,-2.6866,-2.6778,-2.6325,-2.6544,-2.6661,-2.6661,-2.6881,-2.6983,-2.6998,-2.71,-2.7144,-2.7144,-2.7247,-2.7291,-2.7291,-2.7291,-2.7291,-2.7291,-2.7291,-2.7291,-2.7291,-2.7291,-2.7495,-2.7803,-5.6219,-5.6219,-5.6219,-5.6219,-5.6219,-5.6219,-5.6219,-5.5742,-5.539,-5.539,-5.4411,-5.3708,-5.3708,-5.3256,-5.2929,-5.2929,-5.2929,-5.2678,-5.2126,-5.1046,-5.0167,-4.9615,-4.959,-4.9339,-4.8786,-4.8761,-4.8485,-4.7908,-4.738,-4.6402,-4.502,-4.3088,-4.146,-4.0127,-3.8329,-3.7488,-3.7467,-3.6991,-3.6804,-3.6804,-3.6804,-3.6515,-3.6121,-3.6121,-3.6121,-3.6121,-3.6121,-3.6411,-3.6804,-3.6825,-3.6804,-3.6804,-3.6804,-3.6804,-3.6908,-3.7363,-3.7508,-3.7612,-3.8067,-3.8523,-3.8683,-3.8295,-3.8523,-3.8786,-3.8786,-3.9137,-3.9468,-3.9468,-3.9468,-3.9468,-3.9468,-3.9096,-3.8641,-3.8274,-3.8191,-3.8026,-3.757,-3.8295,-3.8621,-3.8253,-3.7977,-3.765,-3.7139,-3.6423,-3.6035,-3.6035,-3.5967,-3.4677,-3.1649,-2.8619,-2.6998,-2.6998,-2.6998,-2.6998,-2.6998,-2.6998,-2.6998,-2.6983,-2.6998,-2.6998,-2.7013,-2.7335,-2.7481,-2.7495,-2.7817,-2.7874,-2.7874,-2.7874,-2.7874,-2.7874,-2.7874,-2.7874,-2.7874,-2.7874,-2.8078,-2.8432,-5.6219,-5.6219,-5.6219,-5.6219,-5.6219,-5.6219,-5.6219,-5.6068,-5.5817,-5.544,-5.5089,-5.4587,-5.3783,-5.3557,-5.3331,-5.2955,-5.2929,-5.2528,-5.1599,-5.082,-5.0167,-4.9615,-4.959,-4.9515,-4.9364,-4.8962,-4.8686,-4.851,-4.7581,-4.5906,-4.3688,-4.2645,-4.0946,-3.8726,-3.7892,-3.7488,-3.7467,-3.6991,-3.6618,-3.6328,-3.6328,-3.6246,-3.6142,-3.6473,-3.6597,-3.668,-3.7343,-3.7446,-3.7343,-3.7653,-3.755,-3.7239,-3.6908,-3.7467,-3.8212,-3.8026,-3.8419,-3.8957,-3.9102,-3.9226,-3.9158,-3.8703,-3.8931,-3.9261,-3.9261,-3.9364,-3.9468,-3.9468,-3.9468,-3.9468,-3.9468,-3.9364,-3.922,-3.9164,-3.9123,-3.9081,-3.8957,-3.889,-3.8876,-3.8801,-3.8138,-3.7666,-3.7589,-3.7124,-3.6878,-3.6894,-3.4889,-3.3231,-3.2296,-2.9101,-2.7335,-2.7335,-2.7335,-2.7335,-2.7335,-2.7335,-2.7217,-2.6998,-2.7452,-2.7554,-2.7349,-2.7671,-2.7803,-2.7817,-2.783,-2.7874,-2.7874,-2.7874,-2.7874,-2.7874,-2.7874,-2.7874,-2.7874,-2.7874,-2.8078,-2.8432,-5.6219,-5.6219,-5.6219,-5.6219,-5.6219,-5.6219,-5.6219,-5.6219,-5.6093,-5.5767,-5.534,-5.4813,-5.411,-5.3658,-5.3281,-5.2955,-5.2929,-5.2452,-5.1348,-5.0946,-5.0419,-4.9615,-4.959,-4.959,-4.959,-4.9264,-4.9113,-4.9113,-4.8209,-4.6822,-4.4952,-4.3328,-4.1598,-3.9757,-3.8387,-3.7777,-3.7757,-3.7467,-3.7177,-3.6929,-3.6929,-3.6825,-3.668,-3.697,-3.7074,-3.7156,-3.7715,-3.786,-3.7819,-3.8088,-3.8109,-3.7943,-3.7488,-3.8046,-3.8703,-3.8316,-3.8709,-3.9199,-3.9199,-3.9468,-3.9674,-3.9385,-3.953,-3.9736,-3.9736,-3.9951,-4.0075,-4.0075,-4.0075,-4.0075,-4.0075,-4.0075,-4.0075,-4.0075,-4.0075,-4.0075,-4.0075,-3.9865,-3.9643,-3.9269,-3.8636,-3.8167,-3.7847,-3.749,-3.7012,-3.6398,-3.4018,-3.2329,-3.1686,-2.9072,-2.7656,-2.7656,-2.7656,-2.7656,-2.7656,-2.7788,-2.77,-2.7378,-2.7773,-2.7847,-2.7671,-2.7993,-2.8063,-2.8078,-2.8271,-2.833,-2.833,-2.833,-2.833,-2.833,-2.833,-2.833,-2.833,-2.833,-2.8447,-2.8622,-5.6219,-5.6219,-5.6219,-5.6219,-5.6219,-5.6194,-5.6143,-5.6168,-5.6168,-5.6068,-5.5239,-5.4587,-5.4486,-5.3607,-5.298,-5.2929,-5.2879,-5.2427,-5.1423,-5.1297,-5.082,-4.9791,-4.969,-4.9665,-4.9665,-4.9615,-4.959,-4.959,-4.9038,-4.8422,-4.7708,-4.4721,-4.2903,-4.1952,-3.9516,-3.8345,-3.8191,-3.8191,-3.8171,-3.8129,-3.8129,-3.7881,-3.7488,-3.7488,-3.7529,-3.755,-3.755,-3.7819,-3.8191,-3.8233,-3.8502,-3.8724,-3.8419,-3.8605,-3.8827,-3.8481,-3.8688,-3.8972,-3.8972,-3.9571,-4.0282,-4.0282,-4.0282,-4.0282,-4.0282,-4.0593,-4.0882,-4.0882,-4.0882,-4.0882,-4.0882,-4.0882,-4.0882,-4.0882,-4.0882,-4.0882,-4.0882,-4.0882,-4.0503,-3.9738,-3.9303,-3.8717,-3.7935,-3.7614,-3.6745,-3.5099,-3.3581,-3.199,-3.0394,-2.8822,-2.7917,-2.7917,-2.7917,-2.7917,-2.7917,-2.8315,-2.8224,-2.7874,-2.7932,-2.7947,-2.7932,-2.833,-2.8476,-2.8491,-2.8769,-2.8886,-2.8886,-2.8886,-2.8886,-2.8886,-2.8886,-2.8886,-2.8886,-2.8886,-2.8886,-2.8886,-5.6219,-5.6219,-5.6219,-5.6219,-5.6219,-5.6068,-5.5641,-5.5942,-5.5892,-5.5039,-5.5089,-5.4863,-5.3984,-5.3683,-5.3356,-5.2955,-5.2528,-5.2176,-5.195,-5.1523,-5.1172,-5.0921,-5.0469,-5.0243,-5.0243,-4.9816,-4.959,-4.959,-4.9038,-4.8178,-4.6956,-4.5846,-4.3886,-4.1198,-4.0628,-3.9595,-3.8191,-3.8191,-3.7984,-3.7653,-3.7653,-3.7591,-3.7488,-3.7488,-3.7715,-3.8026,-3.8026,-3.8088,-3.8233,-3.8585,-3.8703,-3.8827,-3.9164,-3.9558,-3.9909,-3.9806,-4.0096,-4.0427,-4.0427,-4.0572,-4.0737,-4.0737,-4.0737,-4.0737,-4.0737,-4.082,-4.0882,-4.0882,-4.0882,-4.0882,-4.0882,-4.0882,-4.0882,-4.0882,-4.0882,-4.0882,-4.0882,-4.0596,-4.0269,-3.9737,-3.9077,-3.8601,-3.8426,-3.8373,-3.7494,-3.5521,-3.4158,-3.276,-3.1185,-2.9289,-2.8253,-2.8253,-2.8253,-2.8253,-2.8253,-2.8637,-2.8505,-2.7874,-2.8447,-2.8564,-2.8268,-2.8651,-2.8798,-2.8798,-2.8856,-2.8886,-2.8886,-2.8886,-2.8886,-2.8886,-2.8886,-2.8886,-2.8886,-2.8886,-2.8886,-2.8886,-5.6219,-5.6219,-5.6219,-5.6219,-5.6219,-5.6018,-5.5465,-5.5641,-5.5516,-5.4687,-5.4587,-5.4361,-5.3758,-5.3482,-5.3231,-5.2955,-5.2653,-5.2377,-5.2126,-5.1825,-5.1548,-5.1297,-5.072,-5.0419,-5.0419,-4.9866,-4.959,-4.959,-4.9314,-4.8693,-4.7691,-4.673,-4.5202,-4.3326,-4.2382,-4.1111,-3.9508,-3.9295,-3.8726,-3.815,-3.815,-3.8274,-3.844,-3.8233,-3.8295,-3.8502,-3.8502,-3.8647,-3.8874,-3.9034,-3.9261,-3.9447,-3.9468,-3.9798,-4.0179,-3.9902,-4.022,-4.0572,-4.0551,-4.0862,-4.1151,-4.0924,-4.1214,-4.1421,-4.0986,-4.0882,-4.0882,-4.0882,-4.1048,-4.1193,-4.1193,-4.1379,-4.1462,-4.1234,-4.1193,-4.1131,-4.0903,-4.074,-4.0453,-4.0022,-3.9441,-3.8682,-3.7566,-3.8117,-3.7196,-3.3759,-3.3631,-3.2674,-3.0268,-2.9189,-2.8651,-2.8651,-2.8651,-2.8725,-2.8886,-2.9047,-2.9032,-2.8871,-2.9032,-2.912,-2.912,-2.912,-2.912,-2.912,-2.8959,-2.8886,-2.8886,-2.8886,-2.8886,-2.8886,-2.8886,-2.8886,-2.8886,-2.8886,-2.8886,-2.8886,-5.6219,-5.6219,-5.6219,-5.6219,-5.6219,-5.6018,-5.5465,-5.539,-5.5164,-5.4511,-5.4009,-5.3658,-5.3582,-5.3181,-5.2929,-5.2929,-5.2929,-5.2729,-5.2277,-5.2251,-5.2,-5.1448,-5.087,-5.0519,-5.0419,-4.9866,-4.959,-4.959,-4.959,-4.9364,-4.8912,-4.7749,-4.6811,-4.5934,-4.4062,-4.2424,-4.0957,-4.0235,-3.9529,-3.8786,-3.8869,-3.9117,-3.9426,-3.9055,-3.8889,-3.8889,-3.8889,-3.9137,-3.9488,-3.9571,-3.9909,-4.0179,-3.9868,-4.0034,-4.0261,-3.9889,-4.0034,-4.0344,-4.0303,-4.0924,-4.1483,-4.1089,-4.17,-4.2136,-4.1276,-4.111,-4.111,-4.111,-4.1421,-4.169,-4.169,-4.2073,-4.2198,-4.1752,-4.169,-4.1545,-4.1172,-4.111,-4.0946,-4.036,-3.9847,-3.8734,-3.6663,-3.7547,-3.6349,-3.1923,-3.2657,-3.2004,-2.9042,-2.8886,-2.8886,-2.8886,-2.8886,-2.9047,-2.9369,-2.9383,-2.9573,-2.9939,-2.9676,-2.9661,-2.9851,-2.9588,-2.9456,-2.9442,-2.9178,-2.9061,-2.9047,-2.8988,-2.8973,-2.8973,-2.8915,-2.8886,-2.8886,-2.8886,-2.8886,-2.8886,-5.6219,-5.6219,-5.6219,-5.6219,-5.6219,-5.6018,-5.5465,-5.539,-5.5013,-5.3959,-5.3758,-5.3532,-5.308,-5.298,-5.2929,-5.2929,-5.2929,-5.2904,-5.2829,-5.2804,-5.2578,-5.2026,-5.1448,-5.0921,-5.0419,-4.9866,-4.959,-4.959,-4.959,-4.9565,-4.949,-4.9271,-4.8303,-4.6487,-4.4664,-4.2741,-4.0913,-3.9559,-3.8927,-3.8827,-3.922,-3.9406,-3.9468,-3.9406,-3.9385,-3.9385,-3.9385,-3.9426,-3.953,-4.0013,-4.0179,-4.0282,-4.0593,-4.0737,-4.0779,-4.0717,-4.0737,-4.0779,-4.0779,-4.1172,-4.1545,-4.1483,-4.1949,-4.2302,-4.2177,-4.2136,-4.2136,-4.2136,-4.2198,-4.2239,-4.2239,-4.2281,-4.2322,-4.226,-4.2239,-4.2219,-4.2156,-4.2136,-4.1698,-4.0484,-3.9447,-3.849,-3.7759,-3.701,-3.5499,-3.3065,-3.207,-3.0793,-2.8964,-2.8886,-2.8886,-2.8886,-2.8886,-2.9047,-2.9369,-2.9383,-2.9676,-3.0372,-3.0328,-3.0181,-2.9866,-2.9822,-2.9793,-2.9793,-2.9749,-2.9734,-2.9705,-2.9427,-2.931,-2.9281,-2.9003,-2.8886,-2.8886,-2.8886,-2.8886,-2.8886,-5.6143,-5.5968,-5.5842,-5.6168,-5.6219,-5.6018,-5.5465,-5.5139,-5.4637,-5.3808,-5.3457,-5.3181,-5.2955,-5.2929,-5.2929,-5.2929,-5.2929,-5.2929,-5.2929,-5.2929,-5.2829,-5.2578,-5.1749,-5.1172,-5.0921,-5.0042,-4.959,-4.959,-4.959,-4.959,-4.959,-4.959,-4.9117,-4.8263,-4.7118,-4.5308,-4.2971,-4.1949,-4.0761,-3.9571,-3.9847,-4.0075,-4.0261,-4.0013,-3.993,-3.993,-3.993,-4.0075,-4.0323,-4.053,-4.0593,-4.0634,-4.082,-4.0882,-4.0924,-4.1193,-4.1255,-4.1317,-4.1586,-4.1979,-4.2269,-4.2021,-4.2497,-4.2952,-4.2683,-4.2828,-4.287,-4.2426,-4.2456,-4.2621,-4.2621,-4.2849,-4.2932,-4.2663,-4.2621,-4.2464,-4.1994,-4.1879,-4.1494,-4.0218,-3.8588,-3.6995,-3.5686,-3.5071,-3.3683,-3.0956,-3.1099,-3.0577,-2.8964,-2.8886,-2.8886,-2.8886,-2.8886,-2.9134,-2.9647,-2.9647,-2.9968,-3.0612,-3.0612,-3.0539,-3.0393,-3.0217,-3.0211,-3.0211,-2.9939,-2.9866,-2.9851,-2.9705,-2.9544,-2.9354,-2.9222,-2.9047,-2.8886,-2.8886,-2.8886,-2.8915]},{"header":{"parameterUnit":"m.s-1","parameterCategory":1,"la1":30.6,"la2":28.766,"lo1":-90.7593,"lo2":-88.6598,"dy":0.0162,"dx":0.0183,"nx":116,"ny":114,"refTime":"2023-04-17T12:00:00:Z","depth":0,"parameterNumber":3,"parameterNumberName":"V-component_of_WINDS"},"data":[0.0,0.0,0.0,0.0,0.0,0.0,0.0,0.0,0.0,0.0,0.0,0.0,0.0,0.0,0.0,0.0,0.0,0.0,0.0,0.0,0.0,0.0,0.0,0.0,0.0,0.0,0.0,0.0,0.0,0.0,0.0,0.0,0.0,0.0,0.0,0.0,0.0,0.0,0.0,0.0,0.0,0.0,0.0,0.0,0.0,0.0,0.0,0.0,0.0,0.0,0.0,0.0,0.0,0.0,0.0,0.0,0.0,0.0,0.0,0.0,0.0,0.0,0.0,0.0,0.0,0.0,0.0,0.0,0.0,0.0,0.0,0.0,0.0,0.0,0.0,0.0,0.0,0.0,0.0,0.0,0.0,0.0,0.0,0.0,0.0,0.0,0.0,0.0,0.0,0.0,0.0,0.0,0.0,0.0,0.0,0.0,0.0,0.0,0.0,0.0,0.0,0.0,0.0,0.0,0.0,0.0,0.0,0.0,0.0,0.0,0.0,0.0,0.0,0.0,0.0,0.0,0.0,0.0,0.0,0.0,0.0,0.0,0.0,0.0,0.0,0.0,0.0,0.0,0.0,0.0,0.0,0.0,0.0,0.0,0.0,0.0,0.0,0.0,0.0,0.0,0.0,0.0,0.0,0.0,0.0,0.0,0.0,0.0,0.0,0.0,0.0,0.0,0.0,0.0,0.0,0.0,0.0,0.0,0.0,0.0,0.0,0.0,0.0,0.0,0.0,0.0,0.0,0.0,0.0,0.0,0.0,0.0,0.0,0.0,0.0,0.0,0.0,0.0,0.0,0.0,0.0,0.0,0.0,0.0,0.0,0.0,0.0,0.0,0.0,0.0,0.0,0.0,0.0,0.0,0.0,0.0,0.0,0.0,0.0,0.0,0.0,0.0,0.0,0.0,0.0,0.0,0.0,0.0,0.0,0.0,0.0,0.0,0.0,0.0,0.0,0.0,0.0,0.0,0.0,0.0,0.0,0.0,0.0,0.0,0.0,0.0,0.0,0.0,0.0,0.0,0.0,0.0,0.0,0.0,0.0,0.0,0.0,0.0,0.0,0.0,0.0,0.0,0.0,0.0,0.0,0.0,0.0,0.0,0.0,0.0,0.0,0.0,0.0,0.0,0.0,0.0,0.0,0.0,0.0,0.0,0.0,0.0,0.0,0.0,0.0,0.0,0.0,0.0,0.0,0.0,0.0,0.0,0.0,0.0,0.0,0.0,0.0,0.0,0.0,0.0,0.0,0.0,0.0,0.0,0.0,0.0,0.0,0.0,0.0,0.0,0.0,0.0,0.0,0.0,0.0,0.0,0.0,0.0,0.0,0.0,0.0,0.0,0.0,0.0,0.0,0.0,0.0,0.0,0.0,0.0,0.0,0.0,0.0,0.0,0.0,0.0,0.0,0.0,0.0,0.0,0.0,0.0,0.0,0.0,0.0,0.0,0.0,0.0,0.0,0.0,0.0,0.0,0.0,0.0,0.0,0.0,0.0,0.0,0.0,0.0,0.0,0.0,0.0,0.0,0.0,0.0,0.0,0.0,0.0,0.0,0.0,0.0,0.0,0.0,0.0,0.0,0.0,0.0,0.0,0.0,0.0,0.0,0.0,0.0,0.0,0.0,0.0,0.0,0.0,0.0,0.0,0.0,0.0,0.0,0.0,0.0,0.0,0.0,0.0,0.0,0.0,0.0,0.0,0.0,0.0,0.0,0.0,0.0,0.0,0.0,0.0,0.0,0.0,0.0,0.0,0.0,0.0,0.0,0.0,0.0,0.0,0.0,0.0,0.0,0.0,0.0,0.0,0.0,0.0,0.0,0.0,0.0,0.0,0.0,0.0,0.0,0.0,0.0,0.0,0.0,0.0,0.0,0.0,0.0,0.0,0.0,0.0,0.0,0.0,0.0,0.0,0.0,0.0,0.0,0.0,0.0,0.0,0.0,0.0,0.0,0.0,0.0,0.0,0.0,0.0,0.0,0.0,0.0,0.0,0.0,0.0,0.0,0.0,0.0,0.0,0.0,0.0,0.0,0.0,0.0,0.0,0.0,0.0,0.0,0.0,0.0,0.0,0.0,0.0,0.0,0.0,0.0,0.0,0.0,0.0,0.0,0.0,0.0,0.0,0.0,0.0,0.0,0.0,0.0,0.0,0.0,0.0,0.0,0.0,0.0,0.0,0.0,0.0,0.0,0.0,0.0,0.0,0.0,0.0,0.0,0.0,0.0,0.0,0.0,0.0,0.0,0.0,0.0,0.0,0.0,0.0,0.0,0.0,0.0,0.0,0.0,0.0,0.0,0.0,0.0,0.0,0.0,0.0,0.0,0.0,0.0,0.0,0.0,0.0,0.0,0.0,0.0,0.0,0.0,0.0,0.0,0.0,0.0,0.0,0.0,0.0,0.0,0.0,0.0,0.0,0.0,0.0,0.0,0.0,0.0,0.0,0.0,0.0,0.0,0.0,0.0,0.0,0.0,0.0,0.0,0.0,0.0,0.0,0.0,0.0,0.0,0.0,0.0,0.0,0.0,0.0,0.0,0.0,0.0,0.0,0.0,0.0,0.0,0.0,0.0,0.0,0.0,0.0,0.0,0.0,0.0,0.0,0.0,0.0,0.0,0.0,0.0,0.0,0.0,0.0,0.0,0.0,0.0,0.0,0.0,0.0,0.0,0.0,0.0,0.0,0.0,0.0,0.0,0.0,0.0,0.0,0.0,0.0,0.0,0.0,0.0,0.0,0.0,0.0,0.0,0.0,0.0,0.0,0.0,0.0,0.0,0.0,0.0,0.0,0.0,0.0,0.0,0.0,0.0,0.0,0.0,0.0,0.0,0.0,0.0,0.0,0.0,0.0,0.0,0.0,0.0,0.0,0.0,0.0,0.0,0.0,0.0,0.0,0.0,0.0,0.0,0.0,0.0,0.0,0.0,0.0,0.0,0.0,0.0,0.0,0.0,0.0,0.0,0.0,0.0,0.0,0.0,0.0,0.0,0.0,0.0,0.0,0.0,0.0,0.0,0.0,0.0,0.0,0.0,0.0,0.0,0.0,0.0,0.0,0.0,0.0,0.0,0.0,0.0,0.0,0.0,0.0,0.0,0.0,0.0,0.0,0.0,0.0,0.0,0.0,0.0,0.0,0.0,0.0,0.0,0.0,0.0,0.0,0.0,0.0,0.0,0.0,0.0,0.0,0.0,0.0,0.0,0.0,0.0,0.0,0.0,0.0,0.0,0.0,0.0,0.0,0.0,0.0,0.0,0.0,0.0,0.0,0.0,0.0,0.0,0.0,0.0,0.0,0.0,0.0,0.0,0.0,0.0,0.0,0.0,0.0,0.0,0.0,0.0,0.0,0.0,0.0,0.0,0.0,0.0,0.0,0.0,0.0,0.0,0.0,0.0,0.0,0.0,0.0,0.0,0.0,0.0,0.0,0.0,0.0,0.0,0.0,0.0,0.0,0.0,0.0,0.0,0.0,0.0,0.0,0.0,0.0,0.0,0.0,0.0,0.0,0.0,0.0,0.0,0.0,0.0,0.0,0.0,0.0,0.0,0.0,0.0,0.0,0.0,0.0,0.0,0.0,0.0,0.0,0.0,0.0,0.0,0.0,0.0,0.0,0.0,0.0,0.0,0.0,0.0,0.0,0.0,0.0,0.0,0.0,0.0,0.0,0.0,0.0,0.0,0.0,0.0,0.0,0.0,0.0,0.0,0.0,0.0,0.0,0.0,0.0,0.0,0.0,0.0,0.0,0.0,0.0,0.0,0.0,0.0,0.0,0.0,0.0,0.0,0.0,0.0,0.0,0.0,0.0,0.0,0.0,0.0,0.0,0.0,0.0,0.0,0.0,0.0,0.0,0.0,0.0,0.0,0.0,0.0,0.0,0.0,0.0,0.0,0.0,0.0,0.0,0.0,0.0,0.0,0.0,0.0,0.0,0.0,0.0,0.0,0.0,0.0,0.0,0.0,0.0,0.0,0.0,0.0,0.0,0.0,0.0,0.0,0.0,0.0,0.0,0.0,0.0,0.0,0.0,0.0,0.0,0.0,0.0,0.0,0.0,0.0,0.0,0.0,0.0,0.0,0.0,0.0,0.0,0.0,0.0,0.0,0.0,0.0,0.0,0.0,0.0,0.0,0.0,0.0,0.0,0.0,0.0,0.0,0.0,0.0,0.0,0.0,0.0,0.0,0.0,0.0,0.0,0.0,0.0,0.0,0.0,0.0,0.0,0.0,0.0,0.0,0.0,0.0,0.0,0.0,0.0,0.0,0.0,0.0,0.0,0.0,0.0,0.0,0.0,0.0,0.0,0.0,0.0,0.0,0.0,0.0,0.0,0.0,0.0,0.0,0.0,0.0,0.0,0.0,0.0,0.0,0.0,0.0,0.0,0.0,0.0,0.0,0.0,0.0,0.0,0.0,0.0,0.0,0.0,0.0,0.0,0.0,0.0,0.0,0.0,0.0,0.0,0.0,0.0,0.0,0.0,0.0,0.0,0.0,0.0,0.0,0.0,0.0,0.0,0.0,0.0,0.0,0.0,0.0,0.0,0.0,0.0,0.0,0.0,0.0,0.0,0.0,0.0,0.0,0.0,0.0,0.0,0.0,0.0,0.0,0.0,0.0,0.0,0.0,0.0,0.0,0.0,0.0,0.0,0.0,0.0,0.0,0.0,0.0,0.0,0.0,0.0,0.0,0.0,0.0,0.0,0.0,0.0,0.0,0.0,0.0,0.0,0.0,0.0,0.0,0.0,0.0,0.0,0.0,0.0,0.0,0.0,0.0,0.0,0.0,0.0,0.0,0.0,0.0,0.0,0.0,0.0,0.0,0.0,0.0,0.0,0.0,0.0,0.0,0.0,0.0,0.0,0.0,0.0,0.0,0.0,0.0,0.0,0.0,0.0,0.0,0.0,0.0,0.0,0.0,0.0,0.0,0.0,0.0,0.0,0.0,0.0,0.0,0.0,0.0,0.0,0.0,0.0,0.0,0.0,0.0,0.0,0.0,0.0,0.0,0.0,0.0,0.0,0.0,0.0,0.0,0.0,0.0,0.0,0.0,0.0,0.0,0.0,0.0,0.0,0.0,0.0,0.0,0.0,0.0,0.0,0.0,0.0,0.0,0.0,0.0,0.0,0.0,0.0,0.0,0.0,0.0,0.0,0.0,0.0,0.0,0.0,0.0,0.0,0.0,0.0,0.0,0.0,0.0,0.0,0.0,0.0,0.0,0.0,0.0,0.0,0.0,0.0,0.0,0.0,0.0,0.0,0.0,0.0,0.0,0.0,0.0,0.0,0.0,0.0,0.0,0.0,0.0,0.0,0.0,0.0,0.0,0.0,0.0,0.0,0.0,0.0,0.0,0.0,0.0,0.0,0.0,0.0,0.0,0.0,0.0,0.0,0.0,0.0,0.0,0.0,0.0,0.0,0.0,0.0,0.0,0.0,0.0,0.0,0.0,0.0,0.0,0.0,0.0,0.0,0.0,0.0,0.0,0.0,0.0,0.0,0.0,0.0,0.0,0.0,0.0,0.0,0.0,0.0,0.0,0.0,0.0,0.0,0.0,0.0,0.0,0.0,0.0,0.0,0.0,0.0,0.0,0.0,0.0,0.0,0.0,0.0,0.0,0.0,0.0,0.0,0.0,0.0,0.0,0.0,0.0,0.0,0.0,0.0,0.0,0.0,0.0,0.0,0.0,0.0,0.0,0.0,0.0,0.0,0.0,0.0,0.0,0.0,0.0,0.0,0.0,0.0,0.0,0.0,0.0,0.0,0.0,0.0,0.0,0.0,0.0,0.0,0.0,0.0,0.0,0.0,0.0,0.0,0.0,0.0,0.0,0.0,0.0,0.0,0.0,0.0,0.0,0.0,0.0,0.0,0.0,0.0,0.0,0.0,0.0,0.0,0.0,0.0,0.0,0.0,0.0,0.0,0.0,0.0,0.0,0.0,0.0,0.0,0.0,0.0,0.0,0.0,0.0,0.0,0.0,0.0,0.0,0.0,0.0,0.0,0.0,0.0,0.0,0.0,0.0,0.0,0.0,0.0,0.0,0.0,0.0,0.0,0.0,0.0,0.0,0.0,0.0,0.0,0.0,0.0,0.0,0.0,0.0,0.0,0.0,3.4843,3.4438,0.0,0.0,0.0,0.0,0.0,0.0,0.0,0.0,0.0,0.0,0.0,0.0,0.0,0.0,0.0,0.0,0.0,0.0,0.0,0.0,0.0,0.0,0.0,0.0,0.0,0.0,0.0,0.0,0.0,0.0,0.0,0.0,0.0,0.0,0.0,0.0,0.0,0.0,0.0,0.0,0.0,0.0,0.0,0.0,0.0,0.0,0.0,0.0,0.0,0.0,0.0,0.0,0.0,0.0,0.0,0.0,0.0,0.0,0.0,0.0,0.0,0.0,0.0,0.0,0.0,0.0,0.0,0.0,0.0,0.0,0.0,0.0,0.0,0.0,0.0,0.0,0.0,0.0,0.0,0.0,0.0,0.0,0.0,0.0,0.0,0.0,0.0,0.0,0.0,0.0,0.0,0.0,0.0,0.0,0.0,0.0,0.0,0.0,0.0,0.0,0.0,0.0,0.0,0.0,0.0,0.0,0.0,0.0,0.0,0.0,0.0,0.0,0.0,0.0,3.7028,3.5598,0.0,0.0,0.0,0.0,0.0,0.0,0.0,0.0,0.0,0.0,0.0,0.0,0.0,0.0,0.0,0.0,0.0,0.0,0.0,0.0,0.0,0.0,0.0,0.0,0.0,0.0,0.0,0.0,0.0,0.0,0.0,0.0,0.0,0.0,0.0,0.0,0.0,0.0,0.0,0.0,0.0,0.0,0.0,0.0,0.0,0.0,0.0,0.0,0.0,0.0,0.0,0.0,0.0,0.0,0.0,0.0,0.0,0.0,0.0,0.0,0.0,0.0,0.0,0.0,0.0,0.0,0.0,0.0,0.0,0.0,0.0,0.0,0.0,0.0,0.0,0.0,0.0,0.0,0.0,0.0,0.0,0.0,0.0,0.0,0.0,0.0,0.0,0.0,0.0,0.0,0.0,0.0,0.0,0.0,0.0,0.0,0.0,0.0,0.0,0.0,0.0,0.0,0.0,0.0,0.0,0.0,0.0,0.0,4.3826,4.4563,4.5093,4.4566,4.4376,4.4169,4.0531,3.8122,3.6775,3.7142,0.0,0.0,0.0,0.0,0.0,0.0,0.0,0.0,0.0,0.0,0.0,0.0,0.0,0.0,0.0,0.0,0.0,0.0,0.0,0.0,0.0,0.0,0.0,0.0,0.0,0.0,0.0,0.0,0.0,0.0,0.0,0.0,0.0,0.0,0.0,0.0,0.0,0.0,3.8364,3.9523,4.0314,4.0575,3.7137,0.0,0.0,0.0,0.0,0.0,0.0,0.0,0.0,0.0,0.0,0.0,0.0,0.0,0.0,0.0,0.0,0.0,0.0,0.0,0.0,0.0,0.0,0.0,0.0,0.0,0.0,0.0,0.0,0.0,0.0,0.0,0.0,0.0,0.0,0.0,0.0,0.0,0.0,0.0,0.0,0.0,0.0,0.0,3.5948,3.4835,0.0,0.0,0.0,0.0,0.0,0.0,0.0,0.0,0.0,0.0,0.0,0.0,0.0,4.0246,4.0954,4.2484,4.3477,4.3915,4.5363,4.5914,4.562,4.6274,4.6585,4.6543,4.5953,0.0,3.9581,3.8756,0.0,0.0,0.0,0.0,0.0,0.0,0.0,0.0,0.0,0.0,0.0,0.0,0.0,0.0,0.0,0.0,0.0,0.0,0.0,0.0,0.0,0.0,0.0,0.0,0.0,0.0,0.0,0.0,0.0,0.0,0.0,0.0,0.0,0.0,0.0,0.0,3.8389,3.9788,4.0724,4.1892,4.28,4.3292,4.0654,3.9593,3.9747,3.8028,0.0,0.0,0.0,0.0,0.0,0.0,0.0,0.0,0.0,0.0,0.0,0.0,0.0,0.0,0.0,0.0,0.0,0.0,0.0,0.0,0.0,0.0,0.0,0.0,0.0,0.0,0.0,0.0,0.0,0.0,0.0,0.0,0.0,0.0,0.0,0.0,0.0,0.0,0.0,3.615,3.696,3.5846,3.7235,3.7758,0.0,0.0,0.0,0.0,0.0,0.0,0.0,0.0,0.0,4.225,4.3394,4.4217,4.4778,4.6262,4.7242,4.7643,4.8386,4.881,4.9045,4.9555,4.9746,4.973,4.9538,4.7769,4.48,4.2322,4.0716,3.9739,0.0,0.0,0.0,0.0,3.9663,3.9711,0.0,0.0,0.0,0.0,0.0,0.0,0.0,0.0,0.0,0.0,0.0,0.0,0.0,0.0,0.0,3.5016,0.0,0.0,0.0,0.0,0.0,0.0,0.0,0.0,0.0,0.0,0.0,0.0,4.1047,4.2324,4.3311,4.4422,4.525,4.5776,4.4515,4.31,4.1565,3.9772,3.8638,0.0,0.0,0.0,0.0,0.0,0.0,0.0,0.0,0.0,0.0,0.0,0.0,0.0,0.0,0.0,0.0,0.0,0.0,0.0,0.0,0.0,0.0,0.0,0.0,0.0,0.0,0.0,0.0,0.0,0.0,0.0,0.0,0.0,0.0,0.0,0.0,0.0,0.0,3.6615,3.801,3.6572,3.8572,3.9422,0.0,0.0,0.0,0.0,0.0,0.0,4.2033,4.3429,4.4688,4.5781,4.7239,4.833,4.902,5.0091,5.0893,5.1455,5.1319,5.1485,5.1888,5.224,5.2327,5.2149,5.2141,5.1008,4.898,4.5803,4.3539,4.2069,4.1811,4.1752,4.1823,4.2225,4.2406,4.2568,0.0,0.0,0.0,0.0,0.0,0.0,0.0,0.0,0.0,0.0,0.0,0.0,0.0,0.0,3.6002,3.7833,3.8086,3.8115,0.0,0.0,0.0,0.0,0.0,0.0,0.0,0.0,0.0,4.276,4.3485,4.4792,4.6546,4.7277,4.7968,4.8579,4.7867,4.678,4.5115,4.0285,3.9337,4.0813,0.0,0.0,0.0,0.0,0.0,0.0,0.0,0.0,0.0,0.0,0.0,0.0,0.0,0.0,0.0,0.0,0.0,0.0,0.0,0.0,0.0,0.0,0.0,0.0,0.0,0.0,0.0,0.0,0.0,0.0,0.0,0.0,0.0,0.0,0.0,0.0,0.0,0.0,0.0,3.6379,3.9757,0.0,0.0,0.0,0.0,4.2208,4.4887,4.6543,4.6576,4.7968,4.8796,4.8895,5.0286,5.1746,5.3105,5.3205,5.3569,5.4302,5.3606,5.3014,5.2594,5.3414,5.3464,5.2869,5.3694,5.2719,5.0441,4.8367,4.6531,4.4994,4.4032,4.3779,4.3862,4.3137,4.2884,4.2921,0.0,0.0,0.0,0.0,0.0,0.0,0.0,0.0,0.0,0.0,0.0,0.0,0.0,3.7157,3.887,3.9973,4.1221,4.1221,3.9538,0.0,0.0,0.0,0.0,0.0,0.0,0.0,4.2063,4.485,4.5924,4.7404,4.932,4.9524,4.9786,4.9999,4.9326,4.8499,4.7417,4.3857,4.1803,4.0664,3.8248,3.7326,0.0,0.0,0.0,0.0,0.0,0.0,0.0,0.0,0.0,0.0,0.0,0.0,0.0,0.0,0.0,0.0,0.0,0.0,0.0,0.0,0.0,0.0,0.0,0.0,0.0,0.0,0.0,0.0,0.0,0.0,0.0,0.0,0.0,0.0,0.0,0.0,0.0,4.2297,4.5306,0.0,4.4986,4.6013,4.6941,4.7404,4.8895,5.0121,5.1048,5.1578,5.2307,5.3232,5.4262,5.499,5.5521,5.5984,5.5653,5.449,5.4837,5.4183,5.2657,5.3684,5.4025,5.3822,5.4254,5.3729,5.2461,5.2087,4.9804,4.6477,4.5957,4.5774,4.5918,4.6524,4.6757,4.683,0.0,0.0,0.0,0.0,0.0,0.0,0.0,0.0,0.0,0.0,0.0,3.4462,3.7012,3.916,4.096,4.2266,4.3166,4.2847,4.0902,0.0,0.0,0.0,0.0,0.0,0.0,4.2469,4.4531,4.6853,4.813,4.9524,5.1004,5.1004,5.1004,5.0975,5.054,4.9854,4.8921,4.7171,4.4747,4.192,3.9905,3.9217,3.9141,0.0,0.0,0.0,0.0,0.0,0.0,0.0,0.0,0.0,0.0,0.0,0.0,0.0,0.0,0.0,0.0,0.0,0.0,0.0,0.0,0.0,0.0,0.0,0.0,0.0,0.0,0.0,0.0,0.0,0.0,0.0,0.0,0.0,0.0,4.2282,4.5448,4.6276,4.9216,5.0796,4.9921,5.0518,5.1247,5.1943,5.2973,5.3897,5.4825,5.4891,5.5222,5.5951,5.6448,5.6812,5.7044,5.7309,5.668,5.5256,5.5866,5.5181,5.339,5.4211,5.4623,5.4659,5.4633,5.4329,5.389,5.3983,5.2001,4.8855,4.8322,4.8045,4.808,4.8749,4.9139,4.9365,0.0,0.0,0.0,0.0,0.0,0.0,0.0,0.0,0.0,0.0,3.3151,3.5072,3.887,4.0466,4.2237,4.4734,4.3776,4.276,4.2179,3.9255,0.0,0.0,0.0,0.0,4.2208,4.4705,4.6911,4.8779,5.0104,5.1062,5.1643,5.1672,5.1643,5.1614,5.1643,5.0946,4.9746,4.9775,4.8013,4.5057,4.3015,4.2112,4.1738,0.0,0.0,0.0,0.0,0.0,0.0,0.0,0.0,0.0,0.0,0.0,0.0,0.0,0.0,0.0,0.0,0.0,0.0,0.0,0.0,0.0,0.0,0.0,0.0,0.0,0.0,0.0,0.0,0.0,0.0,0.0,0.0,0.0,4.0457,4.466,4.7725,4.7883,5.1076,5.2817,5.1671,5.343,5.4953,5.5714,5.7077,5.7839,5.7839,5.7806,5.7442,5.6713,5.668,5.7044,5.774,5.7077,5.6713,5.668,5.6746,5.6098,5.4889,5.5105,5.5286,5.5467,5.4903,5.4668,5.46,5.389,5.3112,5.2261,5.1188,5.0594,5.0275,4.9577,4.9672,5.0198,0.0,0.0,0.0,0.0,0.0,0.0,0.0,0.0,0.0,0.0,3.498,3.7535,4.0931,4.3253,4.5024,4.6185,4.4836,4.3598,4.2789,0.0,0.0,0.0,0.0,0.0,4.5488,4.7114,4.8885,5.083,5.1643,5.2136,5.231,5.2775,5.2484,5.1643,5.2107,5.1846,5.1062,5.1087,5.022,4.8625,4.4959,4.3179,4.2523,0.0,0.0,0.0,0.0,0.0,0.0,0.0,0.0,0.0,0.0,0.0,0.0,0.0,0.0,0.0,0.0,0.0,0.0,0.0,0.0,0.0,0.0,0.0,0.0,0.0,0.0,0.0,0.0,0.0,0.0,0.0,4.321,4.4676,4.3419,4.7006,5.0333,5.1847,5.4953,5.7061,5.7288,5.8001,5.88,5.9529,5.9463,5.9164,5.8634,5.8071,5.7442,5.6713,5.668,5.6779,5.6978,5.7309,5.721,5.6713,5.793,5.7858,5.6612,5.6831,5.7015,5.7167,5.6493,5.619,5.6122,5.5412,5.4668,5.3822,5.2303,5.1685,5.1616,5.1856,5.197,5.1967,0.0,0.0,0.0,0.0,0.0,0.0,0.0,0.0,0.0,0.0,3.5991,3.8522,4.1744,4.3892,4.5256,4.5605,4.4254,4.284,4.1604,0.0,0.0,0.0,0.0,4.514,4.7172,4.9001,5.0627,5.202,5.2659,5.3123,5.3384,5.3762,5.353,5.2833,5.321,5.2862,5.202,5.202,5.1662,5.0827,4.8179,4.6629,4.5656,4.3521,4.3085,4.3358,4.1913,4.2302,4.3202,4.1266,0.0,0.0,0.0,0.0,0.0,0.0,0.0,0.0,0.0,0.0,0.0,0.0,0.0,0.0,0.0,0.0,0.0,0.0,0.0,0.0,0.0,0.0,0.0,0.0,4.7207,4.8925,4.8865,5.0986,5.3222,5.5083,5.6979,5.8701,6.034,6.0098,6.0304,6.1441,6.0887,6.0158,5.9396,5.8933,5.8237,5.7177,5.7144,5.7011,5.668,5.7111,5.7111,5.6713,5.8368,5.8497,5.7176,5.7775,5.7928,5.7738,5.7067,5.6799,5.6731,5.6021,5.5277,5.4431,0.0,0.0,0.0,0.0,5.2607,5.2636,0.0,0.0,0.0,0.0,0.0,0.0,0.0,0.0,0.0,0.0,0.0,3.8347,4.1337,4.2934,4.3776,4.3776,4.2715,4.1372,0.0,0.0,0.0,4.085,4.4182,4.6621,4.7956,5.0452,5.1991,5.2623,5.321,5.382,5.44,5.4487,5.4517,5.4517,5.4575,5.3965,5.2891,5.2804,5.2603,5.2214,5.1788,5.0964,4.9728,4.7219,4.692,4.7599,4.5556,4.4721,4.4365,4.307,0.0,0.0,0.0,0.0,0.0,0.0,0.0,0.0,0.0,0.0,0.0,0.0,0.0,0.0,0.0,0.0,0.0,0.0,0.0,0.0,0.0,0.0,0.0,0.0,5.0577,5.2725,5.5179,5.5658,5.6193,5.737,5.7648,5.8678,6.1206,6.036,6.0326,6.2098,6.1541,6.0821,6.0158,6.0059,0.0,0.0,0.0,5.7475,5.6812,5.6713,5.6713,5.6812,5.8335,5.8419,5.733,5.8241,5.8328,5.7726,5.7167,5.6934,5.6867,5.6156,5.5344,5.4465,5.301,5.276,5.3156,5.2364,5.2294,5.2571,0.0,0.0,0.0,0.0,0.0,0.0,0.0,0.0,0.0,3.3266,3.5287,3.7128,3.8783,4.1047,4.2469,4.2469,4.1907,4.1376,0.0,0.0,4.1175,4.392,4.5692,4.7491,4.9262,5.1323,5.2455,5.2623,5.321,5.3588,5.3733,5.4255,5.4517,5.4546,5.501,5.5097,5.4836,5.4342,5.4025,5.3818,5.3221,5.2072,5.0448,4.9169,4.8429,4.7988,4.6291,4.7021,4.838,4.5718,4.6004,4.7028,4.4358,0.0,0.0,0.0,0.0,0.0,0.0,0.0,0.0,0.0,0.0,0.0,0.0,0.0,0.0,0.0,0.0,0.0,0.0,0.0,0.0,5.023,5.3631,5.6346,5.7393,5.8471,5.8697,5.7325,5.7933,5.8881,6.0011,5.9798,6.0485,6.2548,6.1719,6.1053,6.0887,6.0324,5.9595,5.8701,5.8104,5.774,5.7574,5.6978,5.6978,5.7574,5.7912,0.0,5.8986,5.8629,5.8556,5.8687,5.8017,5.7679,5.7611,5.69,5.5818,5.4499,5.3619,5.3348,5.3411,5.3122,5.2666,5.2242,0.0,0.0,0.0,0.0,0.0,0.0,0.0,0.0,0.0,0.0,3.5096,3.6418,3.7194,3.8986,3.9886,3.9247,3.8798,0.0,0.0,4.0848,4.2466,4.5256,4.723,4.8885,5.0162,5.181,5.2623,5.2623,5.321,5.3849,5.4458,5.4807,5.5126,5.5474,5.5765,5.5707,5.5358,5.491,5.4738,5.4723,5.4097,5.3216,5.2197,5.1164,5.0831,5.0795,4.9685,4.9957,5.06,4.8509,4.8088,4.8124,4.589,4.4105,4.2582,0.0,0.0,0.0,0.0,0.0,0.0,0.0,0.0,0.0,0.0,0.0,0.0,0.0,0.0,4.6112,4.764,0.0,5.164,5.4328,5.6684,5.8231,5.856,5.9189,5.9219,5.8231,5.8256,5.8857,6.0065,5.9496,5.9977,6.2086,6.138,6.0909,6.1077,6.0755,6.0225,5.9463,5.9098,5.8734,5.8336,5.7608,5.7442,5.7806,5.8289,5.8652,5.8964,5.9041,5.9069,5.8964,5.822,5.7679,5.7273,5.6156,5.5243,5.4532,5.3788,5.3518,5.345,5.2963,5.2735,5.2654,0.0,0.0,0.0,0.0,0.0,0.0,0.0,0.0,0.0,0.0,3.4713,3.5465,3.5501,3.6554,3.6925,0.0,0.0,0.0,0.0,4.1488,4.3701,4.6127,4.8362,4.9901,5.0656,5.1722,5.2362,5.2623,5.321,5.4168,5.5416,5.5533,5.5968,5.6578,5.6633,5.6343,5.5845,5.5357,5.5301,5.5476,5.468,5.4205,5.3744,5.27,5.2657,5.3116,5.2382,5.1524,5.0704,5.0204,4.9047,4.7669,4.6762,4.5603,4.4285,4.2931,4.1844,0.0,0.0,0.0,0.0,0.0,0.0,0.0,0.0,0.0,4.4785,4.6889,4.8337,5.002,5.2566,5.408,5.5761,5.8166,5.907,5.9458,5.9308,5.9189,5.9069,5.8919,5.8441,5.8723,6.0224,5.9318,5.9474,6.1652,6.1071,6.0847,6.1508,6.1251,6.0854,6.0225,6.0092,5.9728,5.9131,5.8369,5.7939,5.7806,5.8561,5.8658,5.8155,5.8983,5.9107,5.8687,5.8152,5.7543,5.69,5.5581,5.5006,5.4938,5.4059,5.3721,5.3585,5.2638,5.2592,5.3025,0.0,0.0,0.0,0.0,0.0,0.0,0.0,0.0,0.0,0.0,0.0,0.0,0.0,0.0,0.0,0.0,0.0,0.0,4.0728,4.2744,4.4952,4.7462,4.8391,4.9407,5.0656,5.0851,5.149,5.2623,5.321,5.4168,5.5416,5.6026,5.6607,5.7216,5.7496,5.7579,5.7488,5.653,5.6297,5.6473,5.5226,5.4488,5.4082,5.3089,5.2337,5.1606,5.078,4.903,4.739,4.8879,4.8399,4.7349,4.8596,4.8009,4.6444,4.4055,0.0,4.0063,3.8175,3.8116,3.9307,4.2162,4.2521,4.3786,0.0,5.0439,5.0377,5.2962,5.4098,5.4691,5.4849,5.6398,5.7932,5.8847,6.0052,6.0685,6.0057,5.9488,5.889,5.8291,5.8171,5.8434,5.9201,5.8887,5.9582,6.2038,6.1206,6.1348,6.2964,6.1815,6.1086,6.0986,6.0357,5.996,5.9893,5.9164,5.8436,5.7806,5.7912,5.7698,5.7158,5.7453,5.7641,5.7759,5.7842,5.7848,5.7712,5.69,5.6562,5.6427,5.5006,5.4465,5.4296,5.2841,5.2333,5.236,0.0,0.0,0.0,0.0,0.0,0.0,0.0,0.0,0.0,0.0,0.0,0.0,0.0,0.0,0.0,0.0,0.0,0.0,4.0292,4.2702,4.5285,4.8217,4.932,5.0104,5.0705,5.1461,5.21,5.2623,5.321,5.3994,5.4894,5.5184,5.562,5.6229,5.6718,5.6744,5.6391,5.6109,5.5937,5.5788,5.4333,5.3621,5.3149,5.1335,4.9757,4.8475,4.862,4.7807,0.0,0.0,4.6529,4.6526,4.7194,4.655,4.5274,4.3801,4.2229,0.0,3.9481,4.0758,4.2705,4.3618,4.5155,4.7568,5.2046,5.2977,5.3622,5.626,5.7641,5.8441,5.8601,5.9638,6.0535,0.0,6.0984,6.0745,5.9668,5.859,5.7693,5.7064,5.6645,5.6825,5.7842,5.8173,5.8685,5.9513,6.0044,6.0546,6.1132,6.1122,6.1119,6.1119,6.0821,6.0655,6.0655,5.9926,5.9396,5.9065,5.9065,5.9099,5.9081,5.9159,5.8954,5.8413,5.8048,5.7881,5.7814,5.7103,5.6562,5.6055,5.5006,5.4329,5.389,5.3247,5.301,5.3042,0.0,0.0,0.0,0.0,0.0,0.0,0.0,0.0,0.0,0.0,0.0,0.0,0.0,0.0,0.0,0.0,0.0,0.0,0.0,4.1913,4.4821,4.7811,4.9349,5.0307,5.0705,5.1585,5.2187,5.231,5.3123,5.3762,5.4255,5.4604,5.4894,5.5184,5.6016,5.5983,5.5288,5.5611,5.5525,5.4952,5.3657,5.2682,5.1754,4.9522,4.7369,4.5654,4.6314,4.5563,0.0,0.0,4.3755,4.4086,4.4703,4.4352,4.3578,4.2961,4.1863,4.0846,4.0935,4.3128,4.5454,4.5818,4.8297,5.1356,5.4114,5.5341,5.653,5.8927,6.0205,6.1048,6.1306,6.1912,6.2301,6.2121,6.1553,6.0715,5.9548,5.7902,5.6526,5.5718,5.488,5.473,5.5658,5.6855,5.7631,5.7894,5.9003,5.9712,5.9756,6.0522,6.0972,6.0972,6.106,6.1119,6.1119,6.0589,6.0191,5.9993,5.9993,5.9964,5.9923,5.9806,5.9367,5.8693,5.8118,5.7881,5.7848,5.7306,5.6799,5.6224,5.5277,5.46,5.4059,5.3653,5.3518,5.3551,0.0,0.0,0.0,0.0,0.0,0.0,0.0,0.0,0.0,0.0,0.0,0.0,0.0,0.0,0.0,0.0,0.0,0.0,0.0,4.0266,4.3282,4.5866,4.7782,4.9378,5.0656,5.0763,5.1033,5.1643,5.2891,5.353,5.3559,5.4807,5.5068,5.4575,5.5776,5.5795,5.4937,5.5493,5.5212,5.4385,5.3655,5.2004,4.9796,4.8158,4.5976,4.3791,4.382,0.0,0.0,0.0,3.9997,3.9207,4.1507,4.2188,0.0,4.1615,4.0516,3.9888,4.1841,4.3788,4.6065,4.9209,5.2067,5.473,5.7334,5.8494,5.9542,6.1579,6.2028,6.2088,6.2061,6.26,6.2839,6.2211,6.1553,6.0864,6.0146,5.7842,5.5718,5.4431,5.3084,5.2306,0.0,5.47,5.6949,5.8558,5.8639,5.9104,6.0107,6.0482,6.0623,6.0623,6.0909,6.1119,6.1119,6.1086,6.0721,5.9993,5.9993,5.9352,5.8191,5.7838,5.7766,5.7915,5.7915,5.7881,5.7881,5.7881,5.7848,5.7679,5.6258,5.5683,5.548,5.4025,5.3518,5.3518,0.0,0.0,0.0,0.0,0.0,0.0,0.0,0.0,0.0,0.0,0.0,0.0,0.0,0.0,0.0,0.0,0.0,0.0,0.0,3.8756,4.1134,4.3282,4.5605,4.7433,4.874,4.9582,5.054,5.1614,5.2455,5.2891,5.2891,5.3762,5.4052,5.3878,5.473,5.4492,5.3448,5.4013,5.3678,5.2637,5.0652,4.9816,4.9225,4.5194,4.2854,4.1509,0.0,0.0,0.0,0.0,3.7535,3.8077,3.89,3.9217,3.9336,3.9252,3.9964,4.1145,4.312,4.6052,4.9374,5.2695,5.5179,5.7393,5.9608,6.0296,6.0386,6.0146,5.9757,5.9189,5.8321,5.8351,5.886,5.9937,5.9548,5.9189,5.9398,5.7902,5.5987,5.3803,5.3114,0.0,0.0,0.0,0.0,5.564,5.7762,5.8955,5.8812,6.0615,6.1445,6.0952,6.1051,6.1119,6.1119,6.1119,6.0986,6.0721,6.0886,6.0517,5.9756,5.9252,5.8875,5.8592,5.8118,5.7881,5.7881,5.7881,5.7611,5.7103,5.663,5.5818,5.4837,5.3856,5.3179,5.2706,0.0,0.0,0.0,0.0,0.0,0.0,0.0,0.0,0.0,0.0,0.0,0.0,0.0,0.0,0.0,0.0,0.0,0.0,0.0,0.0,3.861,4.0568,4.2466,4.3979,4.5024,4.6301,4.7259,4.7869,4.9175,4.9727,4.9524,5.0627,5.1004,5.083,5.2064,5.1977,5.0938,5.1395,5.0912,4.9591,4.7257,4.6137,4.5491,4.146,3.9585,0.0,0.0,0.0,0.0,3.5514,3.57,3.6576,3.6576,3.7075,3.7849,3.8911,4.0763,4.303,4.5693,4.894,5.2396,5.5478,5.7543,5.9159,6.0446,6.0565,6.0027,5.865,5.7513,5.6376,5.5299,5.473,5.5059,5.7034,5.6795,5.6825,5.8201,5.7064,5.557,5.425,5.3663,5.3351,0.0,0.0,0.0,5.4661,5.7174,5.8735,5.8843,6.0874,6.1895,6.1698,6.1315,6.1218,6.1483,6.1218,6.1161,6.121,6.0884,6.0592,6.0287,5.9472,5.8916,5.8592,5.8084,5.7881,5.7881,5.7881,5.7611,5.7171,5.69,5.5886,5.4532,5.4059,5.3044,5.1928,0.0,0.0,0.0,0.0,0.0,0.0,0.0,0.0,0.0,0.0,0.0,0.0,0.0,0.0,0.0,0.0,0.0,0.0,0.0,0.0,0.0,3.7712,3.8626,3.9382,4.0022,4.1262,4.1668,4.1087,4.3528,4.4414,4.3892,4.5721,4.6243,4.5766,4.7858,4.8296,4.7422,4.7712,4.6966,4.543,4.3528,4.1372,3.9241,3.7363,0.0,0.0,0.0,0.0,0.0,3.4534,3.4617,3.4902,3.4932,3.6084,3.7931,4.0575,4.2902,4.5442,4.9388,5.2396,5.5029,5.7633,5.9159,6.0027,5.9997,5.9458,5.853,5.7064,5.5239,5.3653,0.0,0.0,5.1708,5.3773,5.3683,5.4251,5.6885,5.5658,5.4827,0.0,0.0,0.0,0.0,0.0,0.0,5.5875,5.7095,5.8553,6.0187,6.1299,6.2126,6.2807,6.1741,6.1483,6.2221,6.145,6.121,6.1383,6.0184,5.9678,5.9737,5.8548,5.7949,5.7881,5.7881,5.7881,5.7881,5.7848,5.7848,5.7814,5.7103,5.5953,5.4702,5.4634,5.3213,5.1319,0.0,0.0,0.0,0.0,0.0,0.0,0.0,0.0,0.0,0.0,0.0,0.0,0.0,0.0,0.0,0.0,0.0,0.0,0.0,0.0,0.0,0.0,0.0,0.0,0.0,0.0,0.0,0.0,0.0,4.1976,4.186,4.2847,4.2963,0.0,4.3425,4.3222,4.2092,4.2669,4.2407,4.1436,0.0,3.8798,3.8256,0.0,0.0,0.0,0.0,0.0,0.0,0.0,3.5816,3.7441,3.8157,3.9258,4.0891,4.3879,4.6499,4.9266,5.2946,5.5478,5.7633,5.9817,5.9847,5.9219,5.874,5.7752,5.5987,5.2665,5.081,4.9134,4.698,0.0,0.0,5.2247,5.4221,0.0,5.8949,5.889,0.0,5.7986,0.0,5.7459,5.7512,5.7317,0.0,5.9383,5.9319,5.9813,6.1294,6.2897,6.3551,6.3188,6.2392,6.2022,6.2221,6.145,6.121,6.1383,6.1058,6.0531,5.9771,5.9477,5.8815,5.7881,5.7881,5.7881,5.7848,5.7306,5.7408,5.7814,5.7103,5.6562,5.6122,5.5006,5.389,5.2773,0.0,0.0,0.0,0.0,0.0,0.0,0.0,0.0,0.0,0.0,0.0,0.0,0.0,0.0,0.0,0.0,0.0,0.0,0.0,0.0,0.0,0.0,0.0,0.0,0.0,0.0,0.0,0.0,0.0,0.0,0.0,3.8696,3.8966,3.8647,3.9276,3.9131,3.8434,0.0,0.0,0.0,0.0,0.0,0.0,0.0,0.0,0.0,0.0,0.0,0.0,0.0,0.0,4.0685,4.1781,4.314,4.4959,4.812,5.0453,5.2713,5.6025,5.7932,5.9189,6.0027,5.9219,5.7752,5.5927,5.4521,5.2426,4.8402,4.6591,4.5166,4.3359,4.4167,4.6292,0.0,0.0,0.0,5.874,5.8949,5.8987,0.0,5.9737,0.0,5.9777,6.0225,6.0996,6.2266,6.1336,6.1312,6.2844,6.387,6.4332,6.4233,6.2917,6.2013,6.1715,6.1318,6.1252,6.1547,6.1213,6.0644,5.9924,5.9587,5.8886,5.7881,5.7881,5.7881,5.7814,5.7103,5.7239,5.7814,5.7103,5.6596,5.6258,5.575,5.4702,5.3416,0.0,0.0,0.0,0.0,0.0,0.0,0.0,0.0,0.0,0.0,0.0,0.0,0.0,0.0,0.0,0.0,0.0,0.0,0.0,0.0,0.0,0.0,0.0,0.0,0.0,0.0,0.0,0.0,0.0,0.0,0.0,0.0,0.0,0.0,0.0,0.0,0.0,0.0,0.0,0.0,0.0,0.0,0.0,0.0,0.0,0.0,0.0,0.0,0.0,0.0,4.3443,4.4497,4.5879,4.7686,4.9826,5.2748,5.4547,5.6161,5.8722,5.9847,6.0057,5.9398,5.8022,5.6017,5.2785,5.084,4.8581,4.4736,4.297,4.1901,4.1153,4.1841,4.3818,4.7668,0.0,5.3084,5.7723,5.7872,5.8406,6.0773,6.1346,6.1759,6.2288,6.3188,6.3968,6.463,6.3338,6.3117,6.4454,6.4531,6.4763,6.526,6.3438,6.208,6.1251,6.1251,6.1393,6.1669,6.104,6.0567,6.0178,5.9468,5.8761,5.8017,5.7915,5.7881,5.7814,5.7103,5.7171,5.7679,5.7036,5.6427,5.5919,5.6562,5.5581,5.4025,0.0,0.0,0.0,0.0,0.0,0.0,0.0,0.0,0.0,0.0,3.1549,3.1286,0.0,0.0,0.0,0.0,0.0,0.0,0.0,0.0,0.0,0.0,0.0,0.0,0.0,0.0,0.0,0.0,0.0,0.0,0.0,0.0,0.0,0.0,0.0,0.0,0.0,0.0,0.0,0.0,0.0,0.0,0.0,0.0,0.0,0.0,0.0,0.0,0.0,0.0,4.6435,4.8913,5.0502,5.3067,5.5695,5.6898,5.8667,6.0373,6.0992,6.1085,6.0775,6.0086,5.7693,5.479,5.2007,4.906,0.0,4.2581,4.1265,4.0367,3.914,4.1235,4.4287,4.7728,5.084,5.4461,5.9099,5.9638,6.0546,0.0,6.3192,6.3691,6.5469,6.5865,0.0,6.6154,6.5886,6.5544,6.526,6.5227,6.5028,6.4564,6.4167,6.3305,6.2022,6.2022,6.185,6.1465,6.1494,6.126,6.0723,6.0173,5.9505,5.8795,5.8152,5.7881,5.7814,5.7103,5.6867,5.6968,5.6867,5.6731,5.663,5.6765,5.6562,5.6156,0.0,0.0,0.0,0.0,0.0,0.0,0.0,3.2223,3.242,3.345,3.3419,3.3333,3.3575,3.3393,0.0,0.0,0.0,0.0,0.0,0.0,0.0,0.0,0.0,0.0,0.0,0.0,0.0,0.0,0.0,0.0,0.0,0.0,0.0,0.0,0.0,0.0,0.0,0.0,0.0,0.0,0.0,0.0,0.0,0.0,0.0,0.0,0.0,0.0,0.0,0.0,4.5893,5.0097,5.293,5.5997,5.8607,5.9296,6.0301,6.1377,6.21,6.1583,6.0552,5.9344,5.6316,5.2665,4.8985,0.0,0.0,3.9529,3.8841,3.8631,3.8003,4.0307,4.3269,4.6262,4.8925,5.2366,5.7363,5.8052,5.9259,6.2488,6.3795,6.4725,6.5596,6.6529,6.6916,6.6552,6.6154,6.579,6.5425,6.5425,6.5094,6.4399,6.4365,6.3835,6.2785,6.2387,6.2107,6.1949,6.1788,6.1388,6.0886,6.0338,5.9911,5.9505,5.8389,5.8118,5.8389,5.7273,5.6799,5.6765,5.6393,5.6258,5.6292,5.6664,5.6799,5.6799,0.0,0.0,0.0,0.0,0.0,0.0,0.0,3.3436,3.3538,3.4832,3.5433,3.5679,3.5409,3.4495,3.3983,0.0,0.0,0.0,0.0,0.0,0.0,0.0,0.0,0.0,0.0,0.0,0.0,3.2738,0.0,0.0,0.0,0.0,0.0,0.0,0.0,0.0,0.0,0.0,0.0,0.0,0.0,0.0,0.0,0.0,0.0,0.0,0.0,0.0,0.0,0.0,4.3987,4.8439,5.2207,5.6165,5.9473,5.9767,6.0624,6.1673,6.2577,6.1889,6.0428,5.8567,5.5029,5.081,4.6322,4.303,0.0,3.7105,3.6866,3.7255,3.7375,3.9349,4.1833,0.0,4.6441,4.9434,5.461,5.5688,5.7432,0.0,6.3797,0.0,6.5446,6.6785,0.0,6.6585,6.5823,6.5425,6.5425,6.5425,6.516,6.463,6.4597,6.4167,6.3315,6.2752,6.2372,6.2249,6.1888,6.1528,6.1122,6.0574,6.0351,6.0283,5.8761,5.8457,5.893,5.7577,5.6934,5.6731,5.6156,5.5817,5.5818,5.6528,5.6799,5.69,0.0,0.0,0.0,0.0,0.0,0.0,0.0,3.4322,3.5364,3.6435,3.7178,3.7475,3.7247,3.6347,3.5481,0.0,0.0,0.0,0.0,0.0,0.0,0.0,0.0,0.0,0.0,0.0,0.0,3.3256,3.3203,0.0,0.0,0.0,0.0,0.0,0.0,0.0,0.0,0.0,0.0,0.0,0.0,0.0,0.0,0.0,0.0,0.0,0.0,0.0,0.0,0.0,0.0,4.285,4.599,5.2092,5.8024,5.7186,0.0,0.0,6.2566,6.2168,6.1256,5.8727,5.47,5.0242,4.6232,0.0,3.902,3.6926,3.6537,3.6746,3.7315,3.8601,4.0457,4.305,0.0,4.7189,5.1917,5.4132,5.7061,6.177,0.0,0.0,6.7188,6.7486,6.7268,6.6585,6.5823,6.5425,6.5425,6.5425,6.5392,6.5326,6.5326,6.4664,6.3315,6.3249,6.2638,6.1483,6.1621,6.1797,6.1862,6.1424,6.1197,6.1095,5.9573,5.8964,5.8964,5.8118,5.7408,5.6799,5.6731,5.6292,5.5818,5.6528,5.6799,5.69,0.0,0.0,0.0,0.0,0.0,0.0,3.3616,3.4294,3.5104,3.6336,3.7285,3.7534,3.6861,3.6852,3.6446,3.5373,0.0,0.0,0.0,0.0,0.0,0.0,0.0,0.0,0.0,0.0,0.0,3.3909,3.3087,0.0,0.0,0.0,0.0,0.0,0.0,3.3011,0.0,0.0,0.0,0.0,0.0,0.0,0.0,0.0,0.0,0.0,0.0,0.0,3.6124,0.0,0.0,0.0,4.0554,4.4439,0.0,0.0,5.5755,5.8716,5.9834,6.0486,6.0198,5.7633,5.3627,4.9265,4.5109,0.0,3.7764,3.6207,3.5908,3.6207,3.7225,3.7853,3.896,4.1205,0.0,0.0,4.7459,4.9434,5.2839,5.9222,6.1897,6.4591,0.0,0.0,6.7102,6.5955,6.5591,6.5425,6.5425,6.5425,6.5425,6.5425,6.5425,6.5127,6.4564,6.4308,6.3663,6.2716,6.2654,6.2388,6.1963,6.1486,6.1298,6.1231,5.9674,5.9032,5.8964,5.8186,5.7205,5.6156,5.6156,5.5446,5.4532,5.5716,5.6156,5.6325,0.0,0.0,0.0,0.0,0.0,3.2248,3.3559,3.422,3.49,3.5862,3.6977,3.7331,3.6414,3.6594,3.6453,3.5581,3.5227,0.0,0.0,0.0,0.0,0.0,0.0,0.0,0.0,0.0,0.0,3.4004,3.3272,3.3493,0.0,0.0,3.3145,3.3593,0.0,0.0,0.0,0.0,0.0,0.0,0.0,0.0,0.0,0.0,0.0,0.0,0.0,0.0,0.0,0.0,0.0,0.0,0.0,0.0,0.0,0.0,5.144,5.4526,5.6756,5.8192,5.8559,5.6395,5.2566,4.8306,0.0,0.0,3.7519,3.5824,3.5651,3.6107,3.7199,3.7404,3.8003,0.0,0.0,4.101,4.4861,4.6713,5.0187,5.7,0.0,6.279,6.6713,6.7214,6.6804,6.5823,6.5757,6.5657,6.5425,6.5425,6.5425,6.5425,6.5425,6.5326,6.5127,6.4773,6.4271,6.3666,6.3299,6.2831,6.2453,6.1863,6.1501,6.1231,6.0148,5.9438,5.8964,5.8457,5.7476,5.6325,5.5886,5.5074,5.4262,5.5074,5.5513,5.5886,0.0,0.0,0.0,0.0,0.0,0.0,3.28,3.4214,3.5214,3.5214,3.6559,3.718,3.6387,3.5663,3.5214,3.5214,3.5467,0.0,0.0,0.0,0.0,0.0,0.0,0.0,0.0,0.0,0.0,3.3309,3.3941,3.4636,3.5363,3.4636,3.4257,3.4257,0.0,0.0,0.0,0.0,0.0,0.0,0.0,0.0,0.0,0.0,0.0,0.0,0.0,0.0,0.0,0.0,0.0,0.0,0.0,0.0,0.0,0.0,4.7588,5.1683,5.3784,5.5471,5.6466,5.5317,5.165,4.7487,4.4339,4.1398,3.8654,3.6051,3.5973,3.6593,3.7267,3.7404,3.7853,3.92,0.0,0.0,4.508,4.7321,5.0559,0.0,5.7624,5.9719,6.302,6.526,6.6519,6.6519,6.6519,6.6187,6.5459,6.5425,6.5425,6.5425,6.5425,6.5094,6.4399,6.4399,6.4261,6.3886,6.3182,6.3053,6.3463,6.2719,6.1975,6.1298,6.1298,6.0419,5.9032,5.8998,5.8558,5.7712,5.6292,5.5716,5.5615,5.4871,5.5074,5.5818,0.0,0.0,0.0,0.0,0.0,0.0,0.0,3.2972,3.3628,3.3628,3.4525,3.5097,3.48,3.4594,3.4476,3.4476,3.4988,0.0,0.0,0.0,0.0,0.0,0.0,0.0,0.0,0.0,3.3335,3.4731,3.3972,3.4478,3.6061,3.4857,3.4573,3.5047,3.4826,0.0,0.0,0.0,0.0,0.0,0.0,0.0,0.0,0.0,0.0,0.0,0.0,0.0,0.0,0.0,0.0,0.0,0.0,0.0,0.0,0.0,0.0,0.0,4.8658,5.0455,5.1444,5.0344,4.8342,4.5801,4.2721,4.0337,3.8303,3.6471,3.6258,3.6502,3.673,3.751,3.8523,3.9871,4.0636,0.0,0.0,0.0,5.1048,5.5282,6.1466,6.587,6.6916,6.7148,6.7036,6.6552,6.6055,6.5657,6.5425,6.5425,6.5425,6.5425,6.5425,6.5326,6.5094,6.4773,6.4357,6.3877,6.334,6.2946,6.2753,6.2516,6.2009,6.1298,6.1298,6.0452,5.9032,5.9032,5.8287,5.7103,5.663,5.6156,5.5715,5.5987,5.6258,5.6562,0.0,0.0,0.0,0.0,0.0,0.0,0.0,3.2248,3.2697,3.2145,3.2972,3.3628,3.3628,3.3386,3.3317,3.3628,3.4076,0.0,0.0,0.0,0.0,0.0,0.0,0.0,0.0,3.2514,3.3588,3.5394,3.451,3.5173,3.7135,3.5742,3.5331,3.5774,3.5521,0.0,0.0,0.0,0.0,0.0,0.0,0.0,3.644,0.0,0.0,0.0,0.0,0.0,0.0,0.0,0.0,0.0,0.0,0.0,0.0,0.0,3.902,4.1645,0.0,4.6247,4.7567,4.7084,4.5903,4.4263,4.1929,4.026,3.8744,3.7093,3.6784,3.6786,3.6854,3.7309,3.8125,3.9421,3.9978,4.1227,4.396,4.7401,5.1606,5.6999,6.3439,6.7546,6.7844,6.7711,6.74,6.6937,6.6254,6.5724,6.5425,6.5425,6.5425,6.5425,6.5425,6.5293,6.4995,6.4961,6.4537,6.3784,6.3567,6.3208,6.2668,6.2477,6.2009,6.1332,6.1603,6.0689,0.0,5.9302,5.8558,5.7171,5.69,5.6359,5.575,5.5919,5.6156,5.6461,0.0,0.0,0.0,0.0,0.0,0.0,0.0,3.1938,3.2317,3.0956,3.1972,3.2835,3.2835,3.2214,3.211,3.2835,0.0,0.0,0.0,0.0,0.0,0.0,0.0,0.0,0.0,3.2513,3.3878,3.5394,3.5458,3.65,3.8491,3.7135,3.6535,3.6503,3.5837,3.5521,0.0,0.0,0.0,0.0,0.0,0.0,0.0,0.0,0.0,0.0,0.0,0.0,0.0,0.0,0.0,0.0,0.0,0.0,0.0,0.0,0.0,0.0,0.0,4.2578,4.4523,4.502,4.412,4.2783,4.1709,4.0852,0.0,3.7865,3.7442,3.7487,3.7464,3.7101,3.7188,3.8467,3.8772,4.0527,4.5349,4.8318,5.2785,6.0423,6.3935,6.5922,6.6386,6.7148,6.7566,6.7499,6.6804,6.6154,6.5459,6.5425,6.5392,6.5326,6.5326,6.4995,6.4332,6.4929,6.4652,6.3515,6.3693,6.35,6.3074,6.264,6.2009,6.1434,6.211,6.1163,5.9235,5.9844,5.9268,5.7881,5.7103,5.6393,5.5716,5.4938,5.5141,5.5784,0.0,0.0,0.0,0.0,0.0,0.0,0.0,0.0,0.0,0.0,3.1834,3.2041,3.2041,3.1903,3.211,0.0,0.0,0.0,0.0,0.0,0.0,0.0,0.0,0.0,0.0,3.1878,3.2929,3.5394,3.5932,3.6975,3.8491,3.8145,3.7987,3.7986,3.7291,3.669,3.6187,0.0,0.0,0.0,0.0,0.0,0.0,0.0,0.0,0.0,3.7694,3.7962,0.0,0.0,0.0,0.0,0.0,0.0,0.0,0.0,3.7035,3.6923,3.6975,0.0,3.9687,4.026,4.0739,4.0845,0.0,3.9755,3.9357,3.8298,3.808,3.8118,3.8178,3.8905,3.9945,4.1229,4.2416,4.4105,4.6823,5.3046,5.8893,6.312,6.6651,6.7943,6.5889,6.685,6.7334,6.6817,6.6088,6.5591,6.5425,6.5425,6.516,6.463,6.463,6.4531,6.4365,6.3968,6.3468,6.2749,6.239,6.2226,6.23,6.237,6.2313,6.2144,6.2313,6.1772,6.0723,6.0283,5.9573,5.8626,5.7306,5.6697,5.6461,5.5716,5.5919,5.6562,0.0,0.0,0.0,0.0,0.0,0.0,0.0,0.0,0.0,0.0,0.0,0.0,0.0,0.0,0.0,0.0,0.0,0.0,0.0,0.0,0.0,0.0,0.0,0.0,3.2408,3.2545,3.4004,3.6817,3.688,3.7796,3.9471,3.8807,3.8523,3.8491,3.7796,3.6951,3.6117,3.6505,3.5979,0.0,3.5483,0.0,0.0,0.0,0.0,0.0,3.8072,3.8427,0.0,3.8738,3.8794,3.8794,0.0,0.0,0.0,0.0,3.7654,3.7314,3.6965,3.7693,3.8604,3.8739,3.9612,4.0299,3.9902,0.0,0.0,3.8826,3.8795,3.8821,3.8838,3.9496,4.045,4.181,4.2991,4.5243,4.9693,5.558,6.0886,6.4884,6.738,6.844,6.7512,6.7546,6.7268,6.6585,6.5823,6.5425,6.5425,6.5425,6.5094,6.4399,6.4365,6.4111,6.3415,6.3434,6.2955,6.1983,6.2245,6.2213,6.203,6.2302,6.2381,6.2381,6.2381,6.1975,6.1231,6.0419,5.9674,5.8896,5.7746,5.7103,5.6765,5.6359,5.6258,5.6359,0.0,0.0,0.0,0.0,0.0,0.0,0.0,0.0,0.0,0.0,0.0,0.0,0.0,0.0,0.0,0.0,0.0,0.0,0.0,0.0,0.0,0.0,0.0,3.2072,3.2387,3.3551,3.5458,3.8207,3.7828,3.8586,4.0419,3.9218,3.8461,3.8145,3.7575,3.6705,3.5694,3.6074,3.5123,3.3385,3.4755,0.0,0.0,0.0,0.0,0.0,0.0,0.0,0.0,3.9202,3.9315,3.9315,3.9315,0.0,0.0,0.0,0.0,0.0,3.8202,3.899,3.9599,3.8892,3.9556,4.0376,4.0276,0.0,0.0,0.0,3.9598,3.9784,3.9991,4.018,4.08,4.2329,4.3639,4.6837,5.3557,5.7522,6.1318,6.5657,6.7247,6.8208,6.8871,6.8142,6.7235,6.6419,6.5757,6.5425,6.5425,6.5326,6.4929,6.4233,6.41,6.3415,6.2056,6.2955,6.2707,6.1383,6.2427,6.2562,6.1997,6.2268,6.2381,6.2381,6.2381,6.2042,6.14,6.0486,5.9742,5.9066,5.8118,5.7273,5.663,5.663,5.619,5.5649,0.0,0.0,0.0,0.0,0.0,0.0,0.0,0.0,0.0,0.0,0.0,0.0,0.0,0.0,0.0,0.0,0.0,0.0,0.0,0.0,0.0,0.0,3.1945,3.2239,3.2804,3.3232,3.4541,3.6724,3.7828,3.8807,3.9661,3.9439,3.8428,3.6724,3.6598,3.6127,3.5411,3.4661,3.4389,3.4376,3.3789,0.0,0.0,0.0,0.0,0.0,0.0,0.0,0.0,3.9255,3.9315,3.9315,3.9315,0.0,0.0,0.0,0.0,0.0,3.8202,4.0083,4.1413,3.8937,3.9361,4.0243,3.9613,0.0,0.0,0.0,4.069,4.149,4.2713,4.3448,4.4553,4.6599,5.0144,5.4166,5.8408,6.1565,6.3769,6.4597,6.7512,6.8341,6.5425,6.6651,6.7049,6.569,6.5492,6.5425,6.5425,6.4862,6.42,6.3514,6.2884,6.2113,6.1285,6.2022,6.2082,6.1383,6.1728,6.1931,6.1997,6.2268,6.2381,6.2381,6.2381,6.2313,6.211,6.0689,6.0047,5.9742,5.7746,5.6528,5.5886,5.5886,5.5412,5.4938,0.0,0.0,0.0,0.0,0.0,0.0,0.0,0.0,0.0,0.0,0.0,0.0,0.0,0.0,0.0,0.0,0.0,0.0,0.0,0.0,0.0,3.2595,3.2684,3.3355,3.4771,3.5284,3.6595,3.8681,3.9313,3.9977,4.0609,3.985,3.8397,3.6408,3.6408,3.5694,3.4435,3.4084,3.3544,3.3025,0.0,0.0,0.0,0.0,0.0,0.0,0.0,0.0,0.0,0.0,3.9315,3.9315,3.9315,0.0,0.0,0.0,0.0,0.0,3.8791,4.0315,4.1678,4.0751,4.1939,4.2899,4.1375,4.1276,0.0,0.0,4.2104,4.3046,4.4517,4.6023,4.8167,5.151,5.4435,5.7144,5.9661,6.1152,6.2709,6.4697,6.6088,6.6651,6.6154,6.6651,6.6585,6.5492,6.5425,6.526,6.4895,6.4564,6.3868,6.2752,6.2387,6.1848,6.1119,6.145,6.1584,6.1547,6.179,6.1991,6.2229,6.2341,6.2381,6.2381,6.2381,6.2178,6.1704,6.0554,5.9877,5.937,5.7949,5.7171,5.6799,5.6021,5.6198,5.685,0.0,0.0,0.0,0.0,0.0,0.0,0.0,0.0,0.0,0.0,0.0,0.0,0.0,0.0,0.0,0.0,0.0,0.0,0.0,0.0,3.176,3.2993,3.353,3.4604,3.6345,3.7101,3.8428,4.0356,4.0514,4.0704,4.083,3.9598,3.7923,3.5903,3.5903,3.504,3.3609,3.3475,3.2851,3.2014,0.0,0.0,0.0,0.0,0.0,0.0,0.0,0.0,0.0,0.0,0.0,0.0,0.0,0.0,0.0,3.9315,3.9315,3.9348,3.9514,4.0713,4.2009,4.2406,4.3794,4.4754,4.3761,4.3429,4.3429,4.3959,4.4492,4.5317,4.6576,4.8928,5.191,5.5747,5.8038,5.9794,6.1086,6.1417,6.2577,6.5359,6.5194,6.5525,6.7168,6.685,6.622,6.5492,6.526,6.4929,6.4399,6.4034,6.3382,6.2255,6.2056,6.1649,6.1119,6.1161,6.1334,6.1628,6.1837,6.207,6.2341,6.2381,6.2381,6.2381,6.2212,6.1806,6.1231,6.025,5.9505,5.893,5.8186,5.7881,5.7749,5.64,5.7055,5.8387,0.0,0.0,0.0,0.0,0.0,0.0,0.0,0.0,0.0,0.0,0.0,0.0,0.0,0.0,0.0,0.0,0.0,0.0,0.0,0.0,3.1539,3.2323,3.4221,3.5616,3.6377,3.7101,3.8175,3.9566,4.0261,3.9977,3.8713,3.7954,3.65,3.4446,3.4446,3.4036,3.3266,3.2394,3.2448,3.3055,3.2752,0.0,0.0,0.0,0.0,0.0,0.0,0.0,0.0,0.0,0.0,0.0,0.0,0.0,3.9315,3.9315,3.9315,3.9448,4.0144,4.1839,4.3267,4.2638,4.2605,4.34,4.6013,4.6046,4.6146,4.8199,4.8663,4.8961,4.9756,5.2735,5.588,5.827,6.1616,6.4167,6.4929,6.5624,6.6154,6.6419,6.6386,6.6419,6.6585,6.6552,6.622,6.5492,6.4829,6.4432,6.4365,6.3116,6.2321,6.2221,6.155,6.1152,6.1119,6.1293,6.1383,6.1424,6.1628,6.183,6.2037,6.2302,6.2381,6.2347,6.167,6.1366,6.1197,5.9708,5.9066,5.893,5.8186,5.7881,5.7821,5.6952,5.7094,5.7775,0.0,0.0,0.0,0.0,0.0,0.0,0.0,0.0,0.0,0.0,0.0,0.0,0.0,0.0,0.0,0.0,0.0,0.0,0.0,0.0,3.1539,3.226,3.3873,3.5236,3.6377,3.7954,3.9408,4.0798,4.0672,4.0103,3.9123,3.8428,3.7006,3.4984,3.4984,3.4573,3.3851,3.2788,3.2918,3.3827,3.3276,3.3697,0.0,0.0,0.0,0.0,0.0,0.0,0.0,0.0,3.9315,3.9381,3.9846,3.9978,3.9978,3.9978,3.9978,3.9945,3.9779,4.1276,4.2936,4.3135,4.3893,4.5218,4.7703,4.8763,4.969,5.1413,5.2142,5.2669,5.3397,5.5819,5.8237,5.9993,6.2577,6.463,6.5326,6.5657,6.6022,6.6485,6.6121,6.6022,6.6485,6.6121,6.5525,6.4829,6.4498,6.3968,6.3083,6.252,6.198,6.1516,6.1251,6.1119,6.1119,6.1293,6.1383,6.1383,6.175,6.203,6.2229,6.2341,6.2144,6.1704,6.1434,6.0757,5.9844,5.9268,5.8727,5.8324,5.8489,5.8528,5.8496,5.8131,5.873,5.9572,0.0,0.0,0.0,0.0,0.0,0.0,0.0,0.0,0.0,0.0,0.0,0.0,0.0,0.0,0.0,0.0,0.0,0.0,0.0,3.0749,3.1413,3.2576,3.3382,3.4745,3.6722,3.8234,3.9755,4.1272,4.0577,3.9787,3.8839,3.8175,3.7101,3.571,3.5489,3.5292,3.5058,3.3893,3.3917,3.4722,3.4355,3.4211,0.0,0.0,0.0,0.0,0.0,0.0,0.0,0.0,3.9315,3.9415,4.0177,4.0243,4.0111,4.0343,4.0243,3.9945,3.9448,4.068,4.2307,4.3069,4.4887,4.7239,5.0154,5.1413,5.2638,5.499,5.5355,5.5355,5.5852,5.7574,5.9396,6.0854,6.3338,6.5293,6.6022,6.6121,6.622,6.6485,6.6055,6.5856,6.6154,6.5525,6.4895,6.4399,6.3902,6.3206,6.2255,6.1989,6.1616,6.1119,6.1119,6.1119,6.1119,6.1375,6.1406,6.1139,6.1575,6.1852,6.193,6.1733,6.14,6.0926,6.0689,5.9979,5.8998,5.8761,5.8355,5.7954,5.8633,5.8909,5.8976,5.9334,5.981,6.0136,0.0,0.0,0.0,0.0,0.0,0.0,0.0,0.0,0.0,0.0,0.0,0.0,0.0,0.0,0.0,0.0,0.0,0.0,0.0,3.0591,3.1153,3.3214,3.2927,3.4229,3.7415,3.7743,3.8794,4.0577,3.985,3.8838,3.751,3.6785,3.6408,3.6377,3.571,3.6003,3.683,3.5707,3.5387,3.5724,3.5854,3.5262,3.4477,0.0,0.0,0.0,0.0,0.0,0.0,0.0,3.9315,3.9415,4.0177,3.9912,3.9448,4.0177,3.9879,3.9315,3.9315,4.0348,4.1579,4.234,4.5317,4.916,5.3496,5.3964,5.4692,5.9098,5.827,5.6713,5.6713,5.7939,5.9396,6.0887,6.4133,6.6751,6.7466,6.7566,6.7347,6.6585,6.6519,6.622,6.5492,6.4796,6.4365,6.4299,6.2974,6.2221,6.2188,6.1483,6.1086,6.1086,6.1086,6.1086,6.1086,6.1465,6.1307,6.0604,6.1071,6.1148,6.0886,6.0338,6.0114,6.0047,5.9336,5.9032,5.893,5.8186,5.7881,5.7991,5.8633,5.8909,5.9078,6.0498,5.9987,5.8938,0.0,0.0,0.0,0.0,0.0,0.0,0.0,0.0,0.0,0.0,0.0,0.0,0.0,0.0,0.0,0.0,0.0,0.0,0.0,3.1286,3.1413,3.2544,3.3382,3.4524,3.5963,3.7062,3.8481,4.0164,3.9431,3.9008,3.8827,3.8666,3.828,3.7794,3.7601,3.7689,3.7875,3.6538,3.6389,3.7059,3.6674,3.6473,3.6462,0.0,0.0,0.0,0.0,0.0,0.0,0.0,0.0,0.0,4.0177,4.0547,4.0746,4.0448,4.058,4.068,4.021,4.111,4.2601,4.439,4.7206,5.0684,5.5057,5.5487,5.6084,5.9993,6.0258,5.9794,5.9794,6.0556,6.1351,6.1781,6.3637,6.526,6.5989,6.6055,6.5989,6.5757,6.5757,6.5459,6.4763,6.4498,6.3935,6.2875,6.2453,6.1757,6.0688,6.0456,6.0092,5.9562,5.9562,5.9562,5.9562,5.9931,6.0069,5.9834,5.9755,6.0212,6.1187,6.0414,6.0114,6.0047,5.9336,5.8727,5.822,5.7983,5.8173,5.8668,5.9414,5.9966,6.0498,6.1372,6.1404,6.0999,0.0,0.0,0.0,0.0,0.0,0.0,0.0,0.0,0.0,0.0,0.0,0.0,0.0,0.0,0.0,0.0,0.0,0.0,0.0,0.0,3.2866,3.3878,3.427,3.4927,3.5943,3.6685,3.7814,3.9347,3.8809,3.8801,3.9444,3.9476,3.957,3.9635,3.9372,3.9462,3.974,3.8339,3.7954,3.8301,3.7943,3.7394,3.6886,0.0,0.0,0.0,0.0,0.0,0.0,0.0,0.0,0.0,4.0177,4.0481,4.058,4.0746,4.068,4.058,4.0746,4.164,4.3102,4.5616,4.8663,5.2208,5.6581,5.8369,5.9794,6.2312,6.2146,6.1616,6.1914,6.208,6.2321,6.2619,6.3835,6.5028,6.5757,6.5856,6.5757,6.5459,6.5425,6.5028,6.4034,6.3713,6.305,6.1848,6.1483,6.0788,5.9628,5.9562,5.9363,5.8899,5.8899,5.894,5.902,5.9337,5.9404,5.918,5.9047,5.9505,6.0385,5.9573,5.9235,5.9201,5.8761,5.8321,5.7881,5.7881,5.8315,5.8943,5.9359,6.0128,6.1039,6.1387,6.1507,6.1471,0.0,0.0,0.0,0.0,0.0,0.0,0.0,0.0,0.0,0.0,0.0,0.0,0.0,0.0,0.0,0.0,0.0,0.0,0.0,0.0,3.5015,3.6345,3.549,3.5532,3.6717,3.6549,3.7039,3.8311,3.7991,3.8438,3.9592,3.9628,4.0404,4.1671,4.0956,4.117,4.1963,4.0586,3.9803,3.9481,3.9481,3.8327,3.6663,3.7264,0.0,0.0,0.0,0.0,0.0,0.0,0.0,0.0,4.0111,3.9879,3.9647,4.0845,4.0382,3.9812,4.1143,4.2104,4.3462,4.6543,5.022,5.4162,5.8336,6.1947,6.4531,6.5028,6.3703,6.2719,6.3338,6.2951,6.2719,6.3315,6.4465,6.5525,6.6121,6.622,6.5989,6.5293,6.5227,6.4664,6.3206,6.252,6.1748,6.0953,6.0291,5.9595,5.8833,5.88,5.8767,5.8701,5.8701,5.882,5.9019,5.9215,5.9041,5.8597,5.8785,5.893,5.8896,5.8186,5.7881,5.7881,5.7881,5.7918,5.7991,5.7991,5.8423,5.9111,5.9004,5.9866,6.1091,6.0954,6.0892,6.1,0.0,0.0,0.0,0.0,0.0,0.0,0.0,0.0,0.0,0.0,0.0,0.0,0.0,0.0,0.0,0.0,0.0,0.0,0.0,0.0,3.5521,3.6345,3.6717,3.6777,3.6495,3.6695,3.7042,3.7528,3.7446,3.8377,4.0216,4.0748,4.1473,4.2298,4.2133,4.2195,4.2319,4.146,4.1021,4.0945,4.0945,4.036,3.949,3.9655,3.9001,0.0,0.0,0.0,0.0,0.0,0.0,0.0,3.9481,3.9846,4.0111,3.9846,4.0315,4.1143,4.2009,4.323,4.5185,4.9359,5.4394,5.9065,6.1715,6.3448,6.41,6.3116,6.3868,6.4763,6.4929,6.4829,6.4597,6.42,6.4399,6.4465,6.4034,6.3968,6.3902,6.3769,6.3736,6.3173,6.1715,6.1417,6.0788,5.9463,5.9231,5.88,5.8071,5.8038,5.7773,5.7177,5.7144,5.726,5.7453,5.7644,5.7804,5.7823,5.8045,5.8118,5.8118,5.7949,5.7881,5.7881,5.7881,5.8209,5.8668,5.8668,5.9412,6.0524,6.0534,6.1019,6.1776,6.177,6.1725,6.1761,0.0,0.0,0.0,0.0,0.0,0.0,0.0,0.0,0.0,0.0,0.0,0.0,0.0,0.0,0.0,0.0,0.0,0.0,0.0,0.0,0.0,3.7083,3.7494,3.7584,3.7345,3.7544,3.7931,3.8535,3.8222,3.9032,4.0878,4.1607,4.2307,4.3035,4.3035,4.3035,4.2969,4.2241,4.191,4.1877,4.1513,4.1011,4.0376,4.0011,3.9415,3.8659,3.8328,0.0,0.0,0.0,0.0,0.0,0.0,0.0,3.9879,3.9846,4.0376,4.1143,4.2208,4.3827,4.6543,5.2009,5.6448,6.0059,6.2288,6.3348,6.368,6.2917,6.4133,6.5425,6.5425,6.516,6.4796,6.4432,6.4067,6.3746,6.3382,6.3315,6.3183,6.2818,6.2444,6.1815,6.0688,6.0258,5.9595,5.8469,5.8369,5.8038,5.7309,5.7243,5.7077,5.6713,5.668,5.6796,5.6987,5.7214,5.7402,5.7588,5.7808,5.7881,5.7881,5.7881,5.7881,5.7881,5.7881,5.828,5.8909,5.8909,5.9496,6.0415,6.0415,6.0611,6.0919,6.1254,6.1435,6.1471,0.0,0.0,0.0,0.0,0.0,0.0,0.0,0.0,0.0,0.0,0.0,0.0,0.0,0.0,0.0,0.0,0.0,0.0,0.0,0.0,0.0,0.0,3.7886,3.8094,3.8484,3.8594,3.9121,4.0099,3.9586,4.0248,4.1943,4.2104,4.2604,4.3449,4.3449,4.3509,4.3565,4.2936,4.2671,4.2638,4.2009,4.1309,4.0509,3.9912,3.9448,3.905,3.8427,3.8593,3.9116,3.9116,0.0,0.0,0.0,0.0,3.9415,4.0044,4.031,4.068,4.1972,4.4291,4.7835,5.393,5.6978,5.9098,6.1326,6.2278,6.2742,6.2875,6.4034,6.5061,6.5061,6.4564,6.4133,6.4034,6.3372,6.2875,6.2742,6.261,6.2278,6.1724,6.1086,6.0423,5.9694,5.9065,5.8403,5.7674,5.7608,5.7342,5.6713,5.668,5.668,5.668,5.668,5.6796,5.6987,5.7176,5.7364,5.7588,5.7808,5.7881,5.7881,5.7746,5.778,5.7881,5.7746,5.8075,5.8736,5.8699,5.9137,5.9844,5.9931,6.0012,6.0086,6.0774,6.1,6.1073,0.0,0.0,0.0,0.0,0.0,0.0,0.0,0.0,0.0,0.0,0.0,0.0,0.0,0.0,0.0,0.0,0.0,0.0,0.0,0.0,0.0,0.0,3.7801,3.8203,3.8902,3.9426,4.007,4.0852,4.1054,4.2211,4.4224,4.1785,4.1405,4.2741,4.2741,4.3082,4.3598,4.3499,4.3433,4.3433,4.3333,4.2473,4.1276,4.1177,3.9984,3.8328,3.8261,3.8261,3.8361,3.8361,3.8758,0.0,0.0,0.0,3.9315,3.9415,3.9912,4.0575,4.1342,4.5052,4.9624,5.3629,5.5852,5.7574,5.9794,6.0357,6.0622,6.1251,6.2543,6.357,6.357,6.3504,6.3249,6.2619,6.1848,6.1185,6.0523,5.9893,5.9463,5.933,5.9264,5.8899,5.8171,5.8005,5.7641,5.6879,5.6846,5.6779,5.668,5.668,5.668,5.668,5.668,5.6796,5.6987,5.7025,5.7214,5.7588,5.7808,5.7881,5.7881,5.7239,5.7306,5.7848,5.7205,5.7326,5.7941,5.7869,5.8653,5.9931,6.0475,6.1091,6.1688,6.1797,6.1833,6.1833,0.0,0.0,0.0,0.0,0.0,0.0,0.0,0.0,0.0,0.0,0.0,0.0,0.0,0.0,0.0,0.0,0.0,0.0,0.0,0.0,0.0,3.7976,3.8119,3.8476,3.9168,4.0179,4.0709,4.0655,4.1241,4.2398,4.4107,4.2437,4.2612,4.4353,4.3535,4.3325,4.3598,4.3598,4.3598,4.3598,4.3598,4.2704,4.1409,0.0,0.0,0.0,0.0,0.0,3.8825,3.8825,3.905,3.9315,3.9315,0.0,0.0,0.0,3.9812,4.084,4.2734,4.492,4.7703,5.2208,5.4096,5.5554,5.8171,5.9098,5.9496,5.9794,6.039,6.1086,6.1914,6.2047,6.1815,6.1086,6.0357,5.9761,5.9429,5.9098,5.8899,5.8899,5.8535,5.8171,5.7806,5.7409,5.7044,5.6713,5.668,5.668,5.668,5.668,5.668,5.668,5.668,5.6719,5.6834,5.6949,5.7214,5.7588,5.7403,5.7273,5.7273,5.6528,5.6799,5.7814,5.6697,5.7019,5.8356,5.7511,5.7736,5.8792,5.9867,5.9949,5.9689,6.1362,6.1688,6.1362,0.0,0.0,0.0,0.0,0.0,0.0,0.0,0.0,0.0,0.0,0.0,0.0,0.0,0.0,0.0,0.0,0.0,0.0,0.0,0.0,0.0,3.8119,3.8323,3.8697,3.9336,4.053,4.0996,4.0677,4.1024,4.2157,4.3933,4.3007,4.3899,4.6288,4.4807,4.4042,4.3893,4.3893,4.3764,4.3565,4.34,4.2539,0.0,0.0,0.0,0.0,0.0,0.0,3.9547,3.9348,3.9415,3.9547,3.9348,3.9315,0.0,0.0,0.0,4.0674,4.3164,4.4125,4.5483,4.9889,5.181,5.3268,5.5819,5.7111,5.7839,5.8038,5.8369,5.8899,5.9827,6.0291,6.0357,5.9827,5.9098,5.8601,5.8601,5.8469,5.8336,5.8336,5.7839,5.7508,5.7508,5.7011,5.668,5.668,5.668,5.668,5.668,5.668,5.668,5.668,5.668,5.6614,5.6415,5.6483,5.6683,5.7049,5.6691,5.6528,5.6494,5.5784,5.6122,5.7273,5.5987,5.6438,5.8016,5.6877,5.6776,5.7565,5.9248,5.9273,5.8653,6.1081,6.1616,6.1208,0.0,0.0,0.0,0.0,0.0,0.0,0.0,0.0,0.0,0.0,0.0,0.0,0.0,0.0,0.0,3.7383,0.0,0.0,0.0,0.0,0.0,3.7539,3.8094,0.0,3.9469,4.0104,4.0795,4.1452,4.0769,4.1903,4.4626,4.3113,4.4333,4.774,4.6313,4.5309,4.4622,4.4622,4.4257,4.3532,4.2837,0.0,0.0,0.0,0.0,0.0,0.0,3.9746,4.0243,3.9547,3.9779,4.0243,3.9514,3.9315,3.9315,0.0,0.0,0.0,4.1177,4.2572,4.4227,4.6609,4.8796,5.0783,5.2307,5.3732,5.492,5.5615,5.6879,5.7674,5.7044,5.8071,5.8999,5.8966,5.8336,5.7839,5.7839,5.7243,5.6812,5.6812,5.6779,5.6746,5.6746,5.6713,5.668,5.668,5.668,5.668,5.668,5.668,5.668,5.668,5.668,5.6349,5.5648,5.5329,5.5286,5.5499,5.5678,5.5784,5.5715,5.5006,5.5074,5.5749,5.5006,5.5142,5.5855,5.5648,5.5945,5.6791,5.894,6.0152,6.072,6.1652,6.1978,6.1942,0.0,0.0,0.0,0.0,0.0,0.0,0.0,0.0,0.0,0.0,0.0,0.0,0.0,3.5953,3.6507,3.753,3.7144,0.0,0.0,0.0,0.0,3.8286,3.8544,3.8897,3.9353,3.9612,3.9894,4.0069,3.9907,4.1013,4.3323,4.3251,4.4429,4.6522,4.5423,4.5114,4.5317,4.439,4.383,4.3565,4.33,4.2738,4.2075,4.1839,4.1309,4.0647,4.0647,4.0812,4.0945,4.0243,4.0177,4.0343,4.0111,3.968,3.9315,3.9315,3.9315,3.9514,4.0481,4.1143,4.217,4.4821,4.6444,4.8001,5.0452,5.2108,5.3334,5.4063,5.499,5.5752,5.5984,5.721,5.8038,5.7541,5.7243,5.7077,5.7077,5.6846,5.668,5.668,5.668,5.668,5.668,5.668,5.668,5.668,5.668,5.668,5.668,5.668,5.6481,5.6017,5.5984,5.5653,5.4887,5.5029,5.5149,5.5221,5.5069,5.5006,5.4972,5.4228,5.4296,5.4938,5.4194,5.5077,5.6953,5.5949,5.6252,5.7459,5.9177,5.9695,5.9669,6.1362,6.1978,6.1978,0.0,0.0,0.0,0.0,0.0,0.0,0.0,0.0,0.0,0.0,0.0,0.0,0.0,0.0,3.686,3.7642,3.7188,3.7091,3.7644,3.7265,3.7401,3.8315,3.8427,3.8678,3.9121,3.9275,3.9476,3.9656,3.9531,4.0513,4.2572,4.282,4.3965,4.5716,4.4635,4.4624,4.5336,4.4663,4.4029,4.3565,4.3333,4.2936,4.2506,4.2506,4.2042,4.1413,4.1678,4.1773,4.1674,4.0978,4.0878,4.1044,4.0812,4.0382,0.0,0.0,0.0,0.0,3.9978,4.021,4.0906,4.3065,4.4324,4.5715,4.8166,4.9856,5.1247,5.244,5.3268,5.4096,5.5019,5.6051,5.668,5.668,5.6282,5.6051,5.6316,5.6117,5.5951,5.5951,5.5951,5.5951,5.5951,5.5951,5.5951,5.5951,5.5951,5.5951,5.5951,5.5951,5.5752,5.5218,5.4986,5.4659,5.4236,5.4298,5.4412,5.445,5.4293,5.4228,5.4194,5.3721,5.3788,5.4194,5.3721,5.4838,5.6978,5.6251,5.6621,5.7795,5.9585,5.991,5.9606,6.1362,6.1978,6.1978,0.0,0.0,0.0,0.0,0.0,0.0,0.0,0.0,0.0,0.0,0.0,0.0,0.0,0.0,0.0,3.7785,3.7785,3.7643,3.7262,3.7264,3.731,3.7452,0.0,0.0,0.0,3.9127,3.9681,4.0418,3.9657,4.0385,4.2435,4.1742,4.2896,4.5495,4.414,4.3924,4.4625,4.5399,4.492,4.3565,4.2837,4.2539,4.2539,4.2539,4.2109,4.1579,4.2274,4.2539,4.244,4.1707,4.1939,4.2373,4.1612,0.0,0.0,0.0,0.0,0.0,0.0,0.0,0.0,4.121,4.2473,4.3929,4.5417,4.6874,4.8531,5.0719,5.1779,5.2705,5.4129,5.4357,5.4858,5.6316,5.5421,5.4721,5.545,5.492,5.449,5.449,5.449,5.449,5.449,5.449,5.449,5.449,5.449,5.449,5.449,5.4456,5.4456,5.4456,5.3765,5.344,5.3656,5.3166,5.3007,5.3179,5.3382,5.3518,5.3518,5.3518,5.3518,5.3518,5.3518,5.4258,5.5531,5.6355,5.704,5.7759,6.0081,6.0891,6.0856,6.1652,6.1978,6.1978,0.0,0.0,0.0,0.0,0.0,0.0,0.0,0.0,0.0,0.0,0.0,0.0,0.0,0.0,3.7744,3.7331,3.7714,3.8058,3.8202,3.8362,3.8526,3.8747,3.8848,3.926,3.992,0.0,0.0,0.0,0.0,0.0,0.0,0.0,0.0,4.2626,4.3848,4.4202,4.3881,4.4118,4.4291,4.439,4.4158,4.4092,4.4092,4.4092,4.3959,4.3727,4.34,4.3661,4.3893,4.2634,4.2307,4.2373,4.1612,0.0,0.0,0.0,0.0,0.0,4.0276,0.0,0.0,0.0,0.0,0.0,4.3962,4.5351,4.6709,4.7868,4.8696,4.9657,5.1148,5.0949,5.1247,5.3235,5.4096,5.4556,5.4754,5.4622,5.449,5.449,5.449,5.449,5.449,5.449,5.449,5.449,5.449,5.449,5.449,5.396,5.3732,5.3732,5.3036,5.2707,5.2779,5.2829,5.2938,5.2972,5.3348,5.3518,5.3518,5.3518,5.3518,5.3518,5.3518,5.3951,5.4802,5.6032,5.7204,5.8257,5.952,5.9962,6.005,6.0846,6.1471,6.1978,0.0,0.0,0.0,0.0,0.0,0.0,0.0,0.0,0.0,0.0,0.0,0.0,0.0,0.0,0.0,3.7628,3.7966,3.8266,3.8273,3.8443,3.8688,3.8901,3.9214,3.9668,4.0386,4.0027,0.0,0.0,0.0,0.0,0.0,0.0,0.0,0.0,0.0,4.3766,4.3609,4.3614,4.4026,4.4721,4.5019,4.5152,4.5218,4.5847,4.5682,4.5119,4.5019,4.5052,4.4953,4.3827,4.323,4.287,4.244,0.0,0.0,0.0,0.0,0.0,0.0,0.0,0.0,0.0,0.0,0.0,4.3035,4.4059,4.5086,4.5814,4.6576,4.7537,4.9028,4.8928,4.9061,5.0353,5.1512,5.2473,5.3069,5.3169,5.3169,5.3169,5.3434,5.3632,5.3632,5.3632,5.3632,5.3632,5.3632,5.3632,5.3632,5.3235,5.297,5.297,5.2572,5.2409,5.2409,5.2729,5.2903,5.2903,5.3314,5.3518,5.3518,5.3518,5.3518,5.3518,5.3518,5.3979,5.4892,5.5674,5.6794,5.8178,5.9545,6.0122,6.0194,6.1027,6.158,6.1978,0.0,0.0,0.0,0.0,0.0,0.0,0.0,0.0,0.0,0.0,0.0,0.0,0.0,0.0,0.0,0.0,3.8485,3.8377,3.7971,3.8121,3.8312,3.8494,3.9089,3.9723,4.0401,4.0397,0.0,0.0,0.0,0.0,0.0,0.0,0.0,0.0,0.0,0.0,4.3598,4.3598,4.4026,4.4754,4.5483,4.5847,4.6046,4.7371,4.7073,4.598,4.6576,4.6411,4.5781,4.4953,4.4257,4.3698,4.3631,4.3598,4.3466,0.0,4.2605,0.0,0.0,0.0,0.0,0.0,4.2506,0.0,4.2506,4.3002,4.3664,4.4423,4.5019,4.5881,4.7371,4.7636,4.7669,4.7736,4.8299,4.926,5.0752,5.1083,5.1149,5.1083,5.1713,5.2142,5.2142,5.2142,5.221,5.2277,5.2376,5.234,5.2274,5.231,5.231,5.231,5.231,5.2343,5.2409,5.2729,5.2903,5.2903,5.3314,5.3518,5.3518,5.3518,5.3518,5.3518,5.3518,5.4173,5.5278,5.5302,5.6226,5.779,5.9682,6.0557,6.0883,6.1471,6.1833,6.1978,0.0,0.0,0.0,0.0,0.0,0.0,0.0,0.0,0.0,0.0,0.0,0.0,0.0,0.0,0.0,0.0,3.9195,3.8921,3.8839,3.902,3.917,3.9198,3.9317,3.9727,4.0453,4.0448,4.0833,0.0,0.0,0.0,0.0,0.0,0.0,0.0,0.0,0.0,4.3598,4.3598,4.4026,4.4754,4.5483,4.6146,4.6709,4.7007,4.6941,4.6643,4.6179,4.6311,4.6477,4.5152,4.4589,4.439,4.3764,4.3598,4.3565,4.3433,0.0,0.0,0.0,0.0,0.0,0.0,4.2506,0.0,4.2638,4.2605,4.2903,4.3631,4.3433,4.3595,4.5052,4.5317,4.5516,4.6113,4.6344,4.6941,4.8431,4.9657,5.0187,4.9591,5.0187,5.0651,5.0651,5.0651,5.0883,5.1481,5.2078,5.2144,5.1547,5.1514,5.1514,5.1514,5.1514,5.1812,5.2373,5.2729,5.2903,5.2903,5.3314,5.3518,5.3518,5.3518,5.3518,5.3518,5.3518,5.3948,5.4641,5.5159,5.6489,5.8192,5.797,5.9108,6.0711,6.0267,6.0892,6.1978,0.0,0.0,0.0,0.0,0.0,0.0,0.0,0.0,0.0,0.0,0.0,0.0,0.0,0.0,0.0,0.0,0.0,0.0,0.0,3.9301,3.9373,3.9373,3.9756,4.0139,4.0512,4.0479,4.0782,4.1492,0.0,0.0,0.0,0.0,0.0,0.0,0.0,0.0,4.3598,4.3598,4.4257,4.5284,4.6046,4.6576,4.6974,4.7736,4.7769,4.7404,4.704,4.6908,4.6775,4.6046,4.5284,4.4652,4.4257,4.3926,4.3598,4.3598,4.3598,4.3499,0.0,0.0,4.3433,4.2671,4.3035,0.0,0.0,4.2771,4.3035,4.3035,4.3035,4.3267,4.4026,4.4158,4.4291,4.4655,4.5019,4.5384,4.5748,4.7404,4.8431,4.8067,4.8663,4.9094,4.9094,4.9458,4.9955,5.0684,5.1082,5.1148,5.075,5.075,5.075,5.075,5.075,5.1082,5.1846,5.2195,5.2535,5.2903,5.3314,5.3518,5.3518,5.3518,5.3518,5.3518,5.3518,5.4011,5.4918,5.5249,5.6609,5.8383,5.8383,5.9144,6.0267,6.0665,6.129,6.1978,0.0,0.0,0.0,0.0,0.0,0.0,0.0,0.0,0.0,0.0,0.0,0.0,0.0,0.0,0.0,0.0,0.0,0.0,0.0,3.9599,3.9373,3.9373,3.9985,4.027,4.027,4.027,4.0547,4.1093,0.0,0.0,0.0,0.0,0.0,0.0,0.0,0.0,4.3419,4.355,4.4368,4.5649,4.6543,4.6974,4.7239,4.8431,4.8531,4.8001,4.8001,4.7636,4.7073,4.6941,4.6113,4.5052,4.4787,4.4291,4.3764,4.3631,4.3598,4.3598,4.3598,4.3598,4.3598,4.3598,4.3598,4.3433,0.0,0.0,0.0,4.2804,4.3069,4.3433,4.3565,4.3598,4.3532,4.34,4.4026,4.4224,4.3466,4.4953,0.0,4.6444,4.7139,4.757,4.757,4.8233,4.8928,4.9525,4.9856,4.9955,4.979,4.9922,4.9988,4.9988,4.9988,5.0419,5.1315,5.1628,5.2167,5.2903,5.3314,5.3518,5.3518,5.3518,5.3518,5.3518,5.3518,5.4205,5.5402,5.5367,5.6502,5.8239,5.8891,5.9434,5.9977,6.1136,6.1725,6.1978,3.6123,3.673,0.0,0.0,0.0,0.0,0.0,0.0,0.0,0.0,0.0,0.0,4.5848,4.4773,4.4445,4.546,4.2333,4.0988,4.2781,4.0689,3.9373,3.9373,3.9481,3.9517,3.9517,3.9517,3.9553,3.9661,0.0,0.0,0.0,0.0,0.0,0.0,4.0992,4.1459,4.2775,4.3392,4.413,4.4953,4.6344,4.7305,4.7901,4.8067,4.8067,4.8001,4.8001,4.7968,4.7769,4.7106,4.6775,4.6411,4.5086,4.4622,4.4456,4.3764,4.3598,4.3598,4.3598,4.3598,4.3598,4.3598,4.3598,4.3565,4.3499,0.0,4.2771,4.3367,0.0,4.2804,4.3466,0.0,0.0,0.0,4.3234,4.3466,4.2704,4.2837,4.3495,4.4787,4.5582,4.6046,4.6046,4.6709,4.7173,4.7272,4.8498,4.8961,4.8299,4.8862,4.9226,4.9226,4.9226,4.9889,5.1282,5.1628,5.2167,5.2903,5.3314,5.3518,5.3518,5.3518,5.3518,5.3518,5.3518,5.4205,5.5402,5.5332,5.6118,5.7333,5.7442,5.8782,6.0629,6.0086,6.0774,6.1978,3.7451,3.8053,0.0,0.0,0.0,0.0,0.0,0.0,0.0,0.0,0.0,4.8835,4.9134,4.7638,4.686,4.7429,4.4526,4.288,4.3359,4.1624,0.0,4.0546,4.0187,3.9978,3.9978,3.9619,3.9373,3.9373,3.9373,0.0,0.0,0.0,0.0,0.0,4.065,4.1026,4.2045,4.3234,4.4106,4.4882,4.6318,4.7338,4.8001,4.8001,4.8001,4.8001,4.8001,4.8001,4.7968,4.7636,4.6974,4.6146,4.5516,4.4754,4.4026,4.3698,4.3598,4.3598,4.3598,4.3926,4.4158,4.3698,4.3896,4.4125,4.3698,4.3367,4.3234,4.3532,0.0,0.0,0.0,0.0,0.0,0.0,4.34,4.3499,4.3168,0.0,4.3201,4.3396,4.3694,4.4224,4.5052,4.5417,4.5781,4.6212,4.6841,4.7239,4.7371,4.7669,4.8034,4.8465,4.8465,4.8995,5.0125,5.0827,5.1598,5.2437,5.3146,5.3518,5.3518,5.3518,5.3518,5.3518,5.3518,5.4205,5.5402,5.5367,5.6083,5.7188,5.7188,5.8383,6.0122,6.0267,6.1027,6.1978,3.8542,0.0,0.0,4.0008,4.0127,0.0,0.0,4.4975,4.7249,4.8177,4.9374,5.0481,5.1379,5.0062,4.9374,5.0122,4.7429,4.5394,4.4766,4.297,4.1594,4.0876,4.0726,4.0487,4.0127,3.9828,3.9553,3.9373,3.9373,0.0,0.0,0.0,0.0,0.0,4.0562,4.1013,4.1606,4.3676,4.4848,4.547,4.6914,4.7835,4.8299,4.8067,4.8001,4.8001,4.8001,4.8001,4.8001,4.8001,4.7305,4.6378,4.6146,4.5384,4.4459,4.4291,4.4327,4.4459,4.4291,4.4754,4.5086,4.4158,4.4291,4.4489,4.3764,4.3598,4.3598,4.3598,4.3598,0.0,0.0,0.0,0.0,0.0,0.0,4.3532,0.0,4.33,4.3102,4.2539,4.2506,4.2999,4.4257,4.439,4.4622,4.5152,4.5384,4.5715,4.6278,4.6676,4.7139,4.7669,4.7901,4.853,4.9593,5.0125,5.1061,5.2404,5.291,5.3281,5.3518,5.3518,5.3518,5.3518,5.3518,5.4205,5.5402,5.5402,5.6111,5.7188,5.7188,5.8166,5.9687,6.0267,6.1136,6.1978,3.926,3.8871,3.8631,3.932,3.9403,4.0098,4.2111,4.3,4.4646,4.7878,4.7788,4.8656,5.1828,5.1528,5.2157,5.473,5.1426,4.888,4.8177,4.5065,4.2094,3.9553,4.0696,4.0756,3.9433,4.0068,4.0068,3.9373,3.9373,0.0,0.0,0.0,0.0,0.0,4.0793,4.1388,4.1657,4.519,4.6706,4.6896,4.8395,4.9061,4.8995,4.8266,4.8001,4.8001,4.8001,4.8001,4.8001,4.8001,4.7968,4.7802,4.7073,4.6841,4.6643,4.5947,4.6212,4.6643,4.5914,4.6278,4.6477,4.5019,4.4655,4.4489,4.3764,4.3598,4.3598,4.3598,4.3598,4.3598,4.3598,0.0,0.0,0.0,0.0,0.0,0.0,0.0,4.2506,4.2506,4.2506,4.2804,4.3565,4.3631,4.3631,0.0,4.4324,4.4721,4.4785,4.6113,4.6908,4.6941,4.7636,4.8763,5.0359,4.9858,5.0826,5.3179,5.2605,5.2739,5.3518,5.3518,5.3518,5.3518,5.3518,5.4205,5.5402,5.5402,5.6111,5.7188,5.7188,5.8166,5.9615,5.9651,6.0665,6.1978,0.0,0.0,3.914,3.9379,3.9373,4.0367,4.321,4.4975,4.7459,5.1648,5.2785,5.4431,5.7752,5.7483,5.7453,5.8351,5.5209,5.2725,5.1588,4.8446,4.6022,4.4706,4.3359,4.2423,4.1974,4.1849,4.1219,4.0068,4.0582,0.0,0.0,0.0,0.0,0.0,0.0,4.0724,4.0964,4.4601,4.585,4.5626,4.8095,4.9392,4.969,4.8465,4.8299,4.8663,4.8166,4.8001,4.8001,4.8001,4.7669,4.7239,4.6974,4.6576,4.6113,4.5881,4.6311,4.6841,4.6609,4.7404,4.7901,4.5914,4.5781,4.5715,4.3962,4.3598,4.3598,4.3598,4.3598,4.3598,4.3598,0.0,0.0,0.0,0.0,0.0,0.0,0.0,4.2671,4.3168,4.2804,4.2605,4.2837,4.33,0.0,0.0,4.383,0.0,4.4655,4.5616,4.6378,4.6874,4.7636,4.8596,4.9858,4.969,5.0356,5.1863,5.1692,5.1995,5.2706,5.2706,5.301,5.3518,5.3518,5.4205,5.5332,5.5367,5.6111,5.7188,5.7188,5.8166,5.9615,5.9615,6.0629,6.1978,4.0068,3.9888,3.9768,3.9768,4.0157,4.1324,4.3928,4.68,5.0182,5.4371,5.6256,5.8381,6.1493,6.1403,6.1044,6.0805,5.8441,5.5777,5.3025,5.1079,4.8985,4.6681,4.5633,4.4646,4.3678,4.3358,4.2536,4.114,4.1692,4.1348,0.0,0.0,0.0,0.0,0.0,4.0965,4.1031,4.5133,4.6181,4.5341,4.8027,4.9558,5.0088,4.8862,4.8862,4.9392,4.8663,4.8233,4.8034,4.8299,4.8067,4.7736,4.8001,4.7736,4.7371,4.7371,4.7868,4.8398,4.8133,4.8961,4.9392,4.7471,4.7139,4.6841,4.5185,4.439,4.4092,4.4357,4.3962,4.3664,4.3959,0.0,0.0,0.0,0.0,0.0,0.0,4.3168,4.2969,4.3168,4.2771,4.2605,4.287,4.3069,0.0,0.0,0.0,0.0,0.0,4.5251,4.6013,4.6477,4.7471,4.8596,4.9858,4.9422,5.012,5.1897,5.1455,5.1589,5.23,5.2604,5.2841,5.3078,5.3382,5.4205,5.5332,5.5367,5.6111,5.7224,5.7514,5.8456,5.9615,5.9615,6.0629,6.1978,3.9768,4.0068,4.0546,4.0546,4.1602,4.286,4.4257,4.8297,5.2456,5.5957,5.8171,6.0446,6.3079,6.3378,6.3079,6.2361,6.1044,5.8082,5.2965,5.3084,5.1079,4.5963,4.7429,4.716,4.4556,4.4539,4.3925,4.254,4.2601,0.0,0.0,0.0,0.0,0.0,4.1896,4.2092,4.1775,4.663,4.7605,4.6116,4.8322,4.9624,5.0154,4.9458,4.9624,5.0121,4.9359,4.8663,4.8166,4.8862,4.9127,4.9293,4.9988,5.022,5.022,5.022,5.0717,5.1149,5.0452,5.0783,5.0982,4.9525,4.863,4.7901,4.7139,4.5847,4.5052,4.5715,4.4754,4.3959,4.4589,0.0,0.0,0.0,0.0,0.0,0.0,0.0,4.3333,4.2638,4.2539,4.2804,4.3466,4.2936,4.2837,0.0,0.0,0.0,0.0,4.5019,4.5781,4.5781,4.7239,4.8763,5.0359,4.9155,5.0055,5.3078,5.1795,5.1589,5.2334,5.3078,5.3044,5.2401,5.3179,5.4205,5.5402,5.5402,5.6111,5.7261,5.8094,5.8927,5.9651,5.9724,6.0701,6.1978,4.0935,4.1803,4.2542,4.2542,4.2462,4.3339,4.6112,4.9194,5.3294,5.9099,6.2421,6.5054,6.7238,6.7478,6.6819,6.5144,6.3348,6.1313,5.8979,5.7124,5.485,5.2037,5.0511,4.8955,4.7309,4.6427,4.5061,4.3102,4.3199,0.0,4.0697,0.0,0.0,0.0,0.0,4.29,4.2428,4.5845,4.733,4.7558,4.9809,5.0518,5.0253,5.0585,5.0518,5.0121,4.9359,4.8995,4.8862,4.9061,4.9458,4.9955,5.0154,5.022,5.022,5.022,5.0717,5.1282,5.1083,5.1545,5.1744,5.0286,4.979,4.9326,4.8001,4.7404,4.704,4.6676,4.6311,4.5781,4.4854,4.4556,0.0,0.0,0.0,0.0,0.0,0.0,4.3532,4.3333,4.33,4.3168,4.2804,4.3102,4.34,4.3598,0.0,0.0,4.3598,4.5019,4.5781,4.5781,4.7239,4.853,4.9659,4.9456,5.0055,5.1562,5.1323,5.1589,5.23,5.2503,5.2807,5.3213,5.3416,5.4205,5.5402,5.5402,5.6111,5.7261,5.8094,5.9253,6.0557,6.1145,6.1652,6.1978,4.1901,4.3329,4.4784,4.5394,4.6381,4.7772,4.9583,5.1618,5.5029,6.0775,6.3887,6.6011,6.7148,6.8315,6.8196,6.6191,6.4455,6.269,6.0805,5.9249,5.7393,5.5149,5.3354,5.1648,5.0032,4.8286,4.6508,4.4688,4.421,4.3207,4.1817,0.0,0.0,0.0,0.0,4.3703,4.3195,4.5419,4.7723,4.9894,5.0215,5.0485,0.0,5.1149,5.0817,5.0187,5.0088,4.9657,4.9193,4.9823,5.032,5.075,5.1048,5.1148,5.1148,5.1148,5.1446,5.1779,5.1779,5.2111,5.2175,5.138,5.0916,5.0452,4.9624,4.8928,4.8365,4.7968,4.7338,4.6643,4.5814,4.5119,0.0,0.0,0.0,0.0,0.0,4.3598,4.3598,4.3598,4.3598,4.3433,4.3002,4.3069,4.3234,4.3565,4.33,0.0,4.3565,4.5019,4.5781,4.5781,4.7868,4.9194,4.9759,5.0293,5.0994,5.1833,5.1729,5.1894,5.23,5.2672,5.3041,5.3437,5.3744,5.4614,5.5808,5.5808,5.6545,5.784,5.8999,6.0231,6.1362,6.1833,6.1978,6.1978,4.28,4.4825,4.704,4.8087,5.1139,5.3623,5.4132,5.5508,5.7992,6.2181,6.4605,6.5862,6.5682,6.7597,6.8106,6.6191,6.4784,6.2989,6.0625,6.0326,5.9159,5.6795,5.5807,5.4431,5.2516,4.9816,4.7803,4.6465,4.51,4.412,4.3441,0.0,0.0,0.0,0.0,4.4407,4.4042,4.527,4.8083,5.1539,4.9921,4.9889,5.0884,5.0984,5.0551,5.0021,5.085,5.0386,4.9591,5.0884,5.1382,5.158,5.221,5.2409,5.2409,5.2409,5.2409,5.2409,5.2409,5.2409,5.2409,5.2409,5.1945,5.1448,5.1448,5.0452,4.9491,4.9425,4.8299,4.7272,4.7073,4.5814,0.0,0.0,0.0,0.0,4.3731,4.3664,4.3598,4.3598,4.3598,0.0,4.3598,4.3002,4.2903,4.3532,4.3002,4.2903,4.3565,4.5019,4.5781,4.5781,4.8564,5.0121,5.022,5.1227,5.2132,5.2903,5.2573,5.2436,5.2469,5.3279,5.354,5.3491,5.4209,5.5184,5.6311,5.6418,5.7343,5.8854,6.0267,6.1317,6.1978,6.1978,6.1978,6.1978,4.4107,4.6561,4.8656,4.8327,5.1917,5.5927,5.9219,6.1762,6.3977,6.5892,6.8794,7.029,6.9243,6.8555,6.7567,6.6131,6.4784,6.3588,6.263,6.1523,6.0475,5.9458,5.7214,5.5329,5.3892,5.0229,4.7675,4.6323,4.4511,4.3257,4.2592,0.0,0.0,0.0,0.0,0.0,4.5373,4.5667,4.6571,4.7914,4.9419,4.9425,4.863,4.926,4.9028,4.8564,4.9922,5.0618,5.0949,5.1216,5.1713,5.2243,5.2376,5.2409,5.2409,5.2409,5.2409,5.2409,5.2409,5.2409,5.2409,5.2409,5.231,5.221,5.221,5.2011,5.1645,5.105,5.022,4.926,4.8034,4.6609,4.5549,0.0,4.4887,4.4489,4.4489,4.3992,4.3598,4.3598,4.3598,4.3598,4.3598,4.3466,4.3466,4.3598,4.3466,4.3466,4.3598,4.5019,4.5781,4.5781,4.8067,4.9591,5.022,5.109,5.1995,5.2903,5.301,5.3146,5.3281,5.3943,5.4227,5.425,5.4944,5.5629,5.6347,5.7017,5.8492,6.0412,6.0701,6.1317,6.1978,6.1978,6.1978,6.1978,4.7878,4.9464,5.1229,5.2606,5.6137,5.9877,6.3139,6.646,6.8076,6.667,6.7567,6.7956,6.6999,6.7537,6.7448,6.6131,6.5114,6.4246,6.3588,6.2032,6.0954,6.0625,5.8411,5.6406,5.476,5.1169,4.8476,4.683,4.4926,4.3671,4.2985,0.0,0.0,4.3686,0.0,4.4765,4.6817,4.6503,4.7443,4.9177,4.9918,4.9988,4.9723,5.0088,5.0021,4.9856,5.0949,5.1545,5.1879,5.1879,5.2111,5.2409,5.2409,5.2409,5.2409,5.2409,5.2409,5.2409,5.2409,5.2409,5.2409,5.2409,5.2409,5.2409,5.2409,5.2409,5.221,5.1448,5.1015,5.0187,4.8332,4.7106,4.6245,4.5847,4.5483,4.5251,4.5251,4.4953,4.4589,4.4224,4.4158,4.4026,4.3631,4.3598,4.3598,4.3598,4.3598,4.3598,4.3598,4.5019,4.598,4.6344,4.8962,5.0523,5.0888,5.2263,5.3006,5.3041,5.328,5.3416,5.3551,5.455,5.5199,5.5536,5.62,5.7049,5.8062,5.8889,5.9844,6.0819,6.1254,6.1652,6.1978,6.1978,6.1978,6.1978,5.1917,5.2815,5.4371,5.7244,6.0625,6.3617,6.5682,6.9243,7.056,6.7448,6.649,6.5832,6.5144,6.655,6.7089,6.5892,6.5203,6.4515,6.3857,6.2121,6.1164,6.1313,5.9279,5.7334,5.5628,5.2336,4.9613,4.7519,4.5835,4.4583,4.3766,0.0,0.0,0.0,4.3123,4.479,4.741,4.7047,4.8346,5.0551,5.0154,5.032,5.0851,5.0851,5.0916,5.1148,5.1912,5.2177,5.221,5.2376,5.2409,5.2409,5.2409,5.2409,5.2409,5.2409,5.2409,5.2409,5.2409,5.2409,5.2409,5.2409,5.2409,5.2409,5.2409,5.2409,5.2243,5.1647,5.1415,5.0719,4.8829,4.7868,4.7173,4.6609,4.6245,4.6013,4.6013,4.5748,4.5384,4.4953,4.4655,4.4291,4.3863,4.3698,4.3598,4.3598,4.3598,4.3598,4.3598,4.4854,4.5881,4.6643,4.9526,5.1292,5.1758,5.3239,5.3985,5.3885,5.3585,5.3619,5.4025,5.5228,5.6137,5.6796,5.759,5.8673,5.9905,6.0557,6.0919,6.1136,6.1725,6.1978,6.1978,6.1978,6.1978,6.1978,5.4551,5.6316,5.8052,5.9548,6.3049,6.5712,6.5981,6.8854,7.0859,7.05,6.9901,6.9273,6.8615,6.7148,6.5892,6.5173,6.4485,6.3827,6.3199,6.1882,6.1373,6.1972,5.9518,5.7752,5.6944,5.3713,5.075,4.8207,4.6973,4.5677,4.4492,4.4616,0.0,4.3453,4.4812,4.5617,4.595,4.6574,4.7364,4.8365,4.8961,4.926,4.9326,4.9326,4.9723,5.0419,5.1115,5.1415,5.1514,5.2142,5.2409,5.2409,5.2409,5.2409,5.2409,5.2409,5.2409,5.2409,5.2409,5.2409,5.2409,5.2409,5.2409,5.2409,5.2409,5.2409,5.2409,5.231,5.1779,5.1015,5.0154,4.9392,4.8862,4.8796,4.7669,4.6808,4.6808,4.5649,4.5019,4.5616,4.4522,4.3959,4.4522,4.3992,4.3598,4.3598,4.3598,4.3598,4.3598,4.4357,4.5119,4.5881,4.8296,5.0559,5.2559,5.2867,5.408,5.6174,5.4189,5.3989,5.5515,5.6157,5.6846,5.767,5.8868,5.9888,6.0675,6.0774,6.1218,6.1906,6.1978,6.1978,6.1978,6.1978,6.1978,6.1978,5.9159,5.9638,6.0835,6.3707,6.5203,6.667,6.8645,7.0051,7.0769,7.041,6.9782,6.9123,6.8465,6.6969,6.5742,6.5084,6.4395,6.3737,6.3109,6.2211,6.1642,6.1523,6.0086,5.8441,5.6585,5.4072,5.1319,4.8297,4.7119,4.5865,4.4587,4.5064,4.5105,4.4831,4.5059,4.5847,4.7052,4.7841,4.889,4.9988,5.0286,5.0419,5.0419,5.0419,5.0883,5.1612,5.2307,5.2837,5.3268,5.3566,5.3367,5.3003,5.3003,5.3003,5.3003,5.3003,5.2705,5.2409,5.2409,5.2409,5.2409,5.2409,5.2409,5.2409,5.2409,5.2409,5.2409,5.2409,5.1446,5.0684,5.0817,4.9525,4.8597,4.9028,4.8233,4.757,4.757,4.704,4.6444,4.5847,4.5284,4.4854,4.4688,4.4026,4.3764,4.4224,4.383,4.3598,4.3598,4.4812,4.5839,4.6444,4.899,5.1162,5.2799,5.3957,5.5245,5.6611,5.5722,5.5852,5.6928,5.7573,5.8491,5.9645,6.0593,6.0955,6.0819,6.1326,6.1688,6.1978,6.1978,6.1978,6.1978,6.1978,6.1978,6.1978,6.275,6.275,6.3677,6.7238,6.7478,6.8016,7.053,7.0739,7.041,6.9782,6.9123,6.8525,6.8016,6.6789,6.5742,6.5084,6.4395,6.3737,6.3109,6.2271,6.1613,6.1134,6.0266,5.874,5.6496,5.488,5.2456,4.9134,4.8133,4.6897,4.5503,4.6334,4.6447,4.6016,4.6022,4.684,4.8309,4.9047,5.0023,5.0982,5.1216,5.1315,5.1315,5.1315,5.1779,5.2473,5.3169,5.3732,5.4192,5.446,5.4328,5.403,5.3798,5.3695,5.3695,5.3695,5.34,5.3003,5.3003,5.3003,5.3003,5.3003,5.3003,5.297,5.2738,5.2672,5.2638,5.2407,5.1578,5.1015,5.1547,5.0154,4.9127,4.9657,4.8961,4.8332,4.8332,4.7968,4.7371,4.6543,4.6046,4.5682,4.5384,4.4688,4.4456,4.4953,4.4556,4.4158,4.4019,4.5072,4.62,4.7333,4.9655,5.1665,5.3309,5.5037,5.6389,5.7322,5.7103,5.7489,5.8413,5.9126,6.0071,6.1181,6.1725,6.1652,6.1181,6.1761,6.1978,6.1978,6.1978,6.1978,6.1978,6.1978,6.1978,6.2014,6.4605,6.5503,6.6789,6.9482,6.9931,7.0141,7.0799,7.038,6.9752,6.9093,6.8405,6.7986,6.7956,6.6789,6.5742,6.5084,6.4395,6.3737,6.3109,6.1852,6.1134,6.1104,5.9817,5.8471,5.7124,5.6466,5.4521,5.1169,5.0648,4.9388,4.758,4.8572,4.8228,4.686,4.8288,4.9003,4.9126,4.9779,5.0151,5.0286,5.0982,5.1315,5.1315,5.1315,5.1779,5.2473,5.3169,5.3434,5.3533,5.4262,5.4953,5.545,5.4688,5.4494,5.4494,5.4494,5.4456,5.4456,5.4456,5.4456,5.4456,5.4456,5.4456,5.4258,5.3566,5.34,5.3202,5.2539,5.2409,5.2409,5.2409,5.1779,5.1282,5.1282,5.0021,4.9094,4.9094,4.7835,4.7173,4.7901,4.6676,4.6079,4.6808,4.6212,4.5781,4.5781,4.5781,4.5543,4.5027,4.4809,4.5868,4.8383,4.9922,5.1866,5.4257,5.5858,5.7425,5.884,5.8069,5.8488,5.9963,6.0681,6.1336,6.1978,6.1978,6.1978,6.1978,6.1978,6.1978,6.1978,6.1978,6.1978,6.1978,6.1978,6.1978,6.2087,6.6819,6.7208,6.7897,6.9662,6.9991,7.0201,7.0799,7.038,6.9752,6.9093,6.8405,6.7807,6.7358,6.6131,6.5054,6.4395,6.3737,6.3109,6.245,6.2002,6.1373,6.0446,5.9997,5.8919,5.7124,5.6496,5.4551,5.1229,5.0561,4.9855,4.9141,5.0634,5.0758,4.9738,5.1299,5.1405,5.0493,5.1806,5.2092,5.1711,5.1943,5.2078,5.2078,5.2078,5.2473,5.3102,5.3334,5.4063,5.492,5.5152,5.5752,5.6316,5.6051,5.5653,5.5251,5.5251,5.4887,5.449,5.449,5.449,5.449,5.449,5.449,5.4423,5.4192,5.3765,5.3235,5.2539,5.2011,5.1812,5.231,5.138,5.0717,5.1249,5.0055,4.9094,4.9094,4.8266,4.7736,4.7968,4.7603,4.7603,4.8332,4.7402,4.6902,4.7272,4.6504,4.587,4.5543,4.666,4.7621,4.8356,5.1127,5.318,5.429,5.6869,5.8663,5.9676,5.988,6.0219,6.0681,6.1372,6.1776,6.1978,6.1978,6.1978,6.1978,6.1978,6.1978,6.1978,6.1978,6.1978,6.1978,6.1978,6.2367,6.2838,6.7897,6.8166,6.8764,7.0111,6.9931,6.9901,7.0769,6.9961,6.9093,6.8675,6.8016,6.7268,6.634,6.5533,6.4844,6.4425,6.3588,6.2899,6.248,6.2002,6.1343,6.0505,5.9997,5.9009,5.7513,5.6855,5.5269,5.2695,5.1299,5.0306,4.9662,5.1109,5.1453,5.0987,5.2612,5.2753,5.1874,5.2935,5.3169,5.2738,5.2473,5.2409,5.2409,5.2409,5.2638,5.3069,5.3334,5.396,5.4787,5.5085,5.5686,5.6282,5.6282,5.6183,5.6017,5.6017,5.5686,5.5322,5.5322,5.5322,5.5322,5.5322,5.5322,5.5256,5.4953,5.4324,5.3699,5.3268,5.2605,5.2208,5.2672,5.181,5.1181,5.1647,5.0485,4.9525,4.9525,4.8663,4.81,4.8398,4.8398,4.873,4.9526,4.8861,4.846,4.8595,4.8392,4.7925,4.7263,4.8257,4.9255,5.0223,5.2809,5.4564,5.5238,5.7894,5.9506,5.9998,6.0927,6.1372,6.1401,6.184,6.1978,6.1978,6.1978,6.1978,6.1978,6.1978,6.1978,6.1978,6.1978,6.1978,6.1978,6.1978,6.2512,6.3237,6.7897,6.8465,6.9333,7.056,6.9782,6.9423,7.0649,6.9213,6.7956,6.7956,6.7358,6.646,6.5233,6.5024,6.4964,6.4964,6.3767,6.2989,6.2929,6.1762,6.1014,6.0984,5.9787,5.88,5.8141,5.7453,5.6436,5.5119,5.2793,5.0953,4.9708,5.059,5.097,5.101,5.2644,5.333,5.3272,5.3428,5.3467,5.3367,5.2672,5.2442,5.244,5.244,5.2473,5.2605,5.3268,5.3533,5.3665,5.4324,5.5052,5.5648,5.5648,5.615,5.668,5.668,5.668,5.668,5.668,5.668,5.668,5.668,5.668,5.6514,5.5786,5.5052,5.4556,5.449,5.3964,5.35,5.35,5.2937,5.244,5.244,5.1181,5.022,5.022,4.8928,4.8299,4.9094,4.9226,4.9592,5.0458,5.0559,5.0359,4.989,5.1028,5.1229,4.9989,4.9858,5.096,5.3416,5.4868,5.5982,5.687,5.8998,6.0093,6.0156,6.1401,6.1978,6.1978,6.1978,6.1978,6.1978,6.1978,6.1978,6.1978,6.1978,6.1978,6.1978,6.1978,6.1978,6.2014,6.205,6.2585,6.3382,6.7238,6.7747,6.8465,6.9303,6.9213,6.9273,7.0081,6.8914,6.7956,6.7956,6.6969,6.6131,6.5802,6.4844,6.4246,6.4246,6.3079,6.2121,6.1613,6.0805,6.0116,5.9608,5.9279,5.88,5.8141,5.7453,5.6226,5.4431,5.4043,5.3407,5.2637,5.3565,5.3713,5.325,5.4323,5.4535,5.4024,5.4152,5.3894,5.3367,5.2672,5.2705,5.3169,5.3169,5.3533,5.403,5.4195,5.4589,5.5085,5.5284,5.5852,5.6448,5.6448,5.6547,5.668,5.668,5.668,5.668,5.668,5.668,5.668,5.668,5.668,5.6514,5.5786,5.545,5.5152,5.4626,5.4357,5.4262,5.4262,5.3665,5.3169,5.3169,5.1512,5.022,5.022,4.9028,4.8596,4.979,5.0522,5.1223,5.1989,5.2195,5.2266,5.2133,5.1531,5.1765,5.3111,5.365,5.3716,5.3281,5.5826,5.7363,5.7569,5.9706,6.1016,6.1551,6.1868,6.1978,6.1978,6.1978,6.1978,6.1978,6.1978,6.1978,6.1978,6.1978,6.1978,6.1978,6.1978,6.1978,6.205,6.2693,6.3418,6.4215,6.7388,6.7986,6.8645,6.9333,6.9183,6.9123,6.9482,6.8375,6.7418,6.7119,6.646,6.5772,6.5144,6.4425,6.3887,6.3588,6.2959,6.2271,6.1613,6.0924,6.0266,5.9578,5.9249,5.88,5.8141,5.7453,5.6137,5.4221,5.4371,5.4084,5.3432,5.3638,5.3768,5.384,5.4444,5.4718,5.4737,5.4547,5.4295,5.3831,5.2804,5.2605,5.2937,5.2937,5.34,5.403,5.403,5.4456,5.5085,5.5085,5.562,5.6216,5.6216,5.6415,5.668,5.668,5.668,5.668,5.668,5.668,5.668,5.668,5.668,5.6581,5.6183,5.6382,5.6514,5.6084,5.5752,5.5521,5.5521,5.4361,5.3301,5.3003,5.1413,5.0088,4.9756,4.9061,4.9128,5.0518,5.1418,5.2387,5.363,5.3837,5.371,5.3212,5.3754,5.419,5.4395,5.632,5.68,5.5349,5.7595,5.8787,5.8787,6.0255,6.1343,6.1978,6.2367,6.2549,6.2549,6.2947,6.2911,6.2549,6.2549,6.2331,6.1978,6.1978,6.1978,6.2014,6.2404,6.2549,6.2657,6.3454,6.4251,6.5011,6.7717,6.8375,6.9034,6.9572,6.9213,6.8854,6.8854,6.7777,6.6759,6.6101,6.5922,6.5383,6.4126,6.3917,6.3647,6.3109,6.2989,6.266,6.2002,6.1313,6.0655,5.9967,5.9398,5.883,5.8291,5.7483,5.6196,5.4371,5.4371,5.4012,5.3324,5.281,5.3004,5.3833,5.4077,5.4694,5.5458,5.4919,5.4655,5.4523,5.3235,5.2771,5.287,5.287,5.3301,5.3897,5.3897,5.4328,5.4858,5.4858,5.5256,5.5786,5.5786,5.6216,5.668,5.668,5.668,5.668,5.668,5.668,5.668,5.668,5.668,5.668,5.668,5.7177,5.7608,5.7608,5.7144,5.668,5.668,5.499,5.34,5.2804,5.1313,4.9988,4.9359,4.926,4.979,5.1149,5.2177,5.3349,5.4943,5.518,5.4959,5.4228,5.6301,5.694,5.5407,5.83,5.945,5.8309,5.9488,6.0188,6.0282,6.0867,6.1501,6.2186,6.2875,6.3237,6.3382,6.407,6.4033,6.3382,6.3382,6.2983,6.234,6.234,6.234,6.244,6.3092,6.3382,6.3454,6.4287,6.5011,6.5627,6.7119,6.7687,6.8166,6.8256,6.8196,6.8136,6.8136,6.7478,6.6759,6.6101,6.5533,6.4874,6.4066,6.3528,6.3169,6.3079,6.257,6.1972,6.1313,6.0625,5.9967,5.9279,5.9159,5.9069,5.8949,5.7723,5.6406,5.5029,5.5029,5.47,5.4042,5.4192,5.4451,5.4769,5.4983,5.5595,5.6459,5.5709,5.5416,5.535,5.4527,5.456,5.5123,5.5123,5.5554,5.6183,5.6183,5.6249,5.6349,5.6349,5.6415,5.6514,5.6514,5.6614,5.668,5.668,5.668,5.668,5.668,5.668,5.668,5.668,5.668,5.668,5.668,5.6779,5.6846,5.6846,5.6779,5.668,5.668,5.5421,5.4328,5.4195,5.1943,5.0187,5.0055,5.0157,5.0457,5.1216,5.3147,5.4589,5.5043,5.5682,5.6352,5.7054,5.6979,5.755,5.9036,5.9648,6.009,6.0503,6.0736,6.1104,6.1664,6.1776,6.2248,6.3019,6.3128,6.3563,6.4215,6.4323,6.4323,6.4215,6.4215,6.4142,6.4033,6.4033,6.4033,6.4033,6.4142,6.4215,6.4287,6.512,6.5482,6.57,6.6999,6.7508,6.7867,6.7508,6.7747,6.7837,6.7508,6.7178,6.664,6.5622,6.5203,6.4635,6.3617,6.3258,6.3079,6.3079,6.248,6.1822,6.1164,6.0475,5.9787,5.9129,5.9099,5.877,5.8052,5.7094,5.6137,5.5179,5.5179,5.5029,5.473,5.4141,5.4637,5.6031,5.5038,5.558,5.721,5.6084,5.5582,5.5516,5.4787,5.4688,5.4986,5.4986,5.5487,5.6117,5.6117,5.6349,5.668,5.668,5.668,5.668,5.668,5.668,5.668,5.668,5.668,5.668,5.668,5.668,5.668,5.668,5.668,5.6779,5.7177,5.7574,5.8005,5.8403,5.8171,5.7873,5.7873,5.6051,5.449,5.449,5.2108,5.0353,5.0717,5.0922,5.1591,5.3052,5.4959,5.6545,5.754,5.7909,5.8241,5.8418,5.8874,5.9594,6.0598,6.094,6.1628,6.2803,6.2011,6.1692,6.1978,6.244,6.2838,6.32,6.407,6.4685,6.5048,6.5482,6.5446,6.5048,6.5048,6.4794,6.4396,6.4396,6.4396,6.4432,6.4867,6.5048,6.512,6.5953,6.6243,6.6351,6.6999,6.7388,6.7597,6.7089,6.7418,6.7567,6.7059,6.6849,6.634,6.5173,6.4874,6.4366,6.3199,6.3079,6.3079,6.3079,6.248,6.1822,6.1164,6.0475,5.9787,5.9129,5.9099,5.8471,5.7124,5.6645,5.5987,5.5179,5.5179,5.533,5.5471,5.4558,5.524,5.7293,5.5645,5.5977,5.7707,5.6415,5.5885,5.5819,5.5256,5.5024,5.5024,5.5024,5.5388,5.5885,5.5885,5.6216,5.668,5.668,5.668,5.668,5.668,5.668,5.668,5.668,5.6812,5.6945,5.6945,5.6945,5.6978,5.7144,5.721,5.7342,5.7906,5.8502,5.9065,5.9628,5.9297,5.8899,5.8899,5.6779,5.4957,5.4754,5.2638,5.1082,5.1514,5.2117,5.3154,5.4852,5.6634,5.826,5.9598,5.9775,5.9692,5.9525,6.0553,6.1328,6.1668,6.2107,6.3006,6.4359,6.32,6.2585,6.2585,6.3164,6.3563,6.3744,6.5011,6.57,6.5881,6.6533,6.646,6.5881,6.5881,6.5518,6.4939,6.4939,6.4939,6.5011,6.5627,6.5881,6.5953,6.6569,6.6931,6.7184,6.6999,6.7029,6.7059,6.6999,6.7029,6.7059,6.6999,6.646,6.5832,6.5054,6.4485,6.3827,6.3139,6.3079,6.3079,6.3079,6.248,6.1822,6.1164,6.0475,5.9787,5.9129,5.9099,5.8471,5.7124,5.7064,5.6406,5.5179,5.5179,5.5651,5.6493,5.6622,5.7312,5.8367,5.7773,5.7622,5.774,5.6945,5.6614,5.6614,5.6547,5.6514,5.6514,5.6514,5.6547,5.6614,5.6614,5.6647,5.668,5.668,5.668,5.668,5.668,5.668,5.668,5.668,5.7177,5.7707,5.7707,5.7707,5.7873,5.8568,5.8734,5.8734,5.88,5.8866,5.8933,5.8966,5.8933,5.8899,5.8899,5.7608,5.6316,5.5615,5.4158,5.297,5.2373,5.403,5.5355,5.5521,5.7637,5.9164,5.9499,5.9693,6.0122,6.0973,6.1114,6.1778,6.3084,6.3208,6.3579,6.4367,6.4287,6.4215,6.4215,6.4287,6.4685,6.541,6.5555,6.5989,6.6714,6.6786,6.6786,6.6714,6.6714,6.6677,6.6641,6.6641,6.6641,6.6641,6.6677,6.6714,6.6714,6.6786,6.7293,6.7945,6.6999,6.6999,6.6999,6.6999,6.6999,6.6999,6.6999,6.6789,6.6221,6.5173,6.4814,6.4246,6.3199,6.3079,6.3079,6.3079,6.248,6.2002,6.1732,6.0685,5.9787,5.9129,5.9099,5.868,5.7752,5.7304,5.6675,5.5807,5.5388,5.57,5.6559,5.6309,5.7281,5.9101,5.7632,5.7526,5.8403,5.721,5.668,5.668,5.668,5.668,5.6746,5.721,5.7077,5.6812,5.774,5.7773,5.7442,5.7906,5.774,5.7442,5.7906,5.7442,5.6779,5.7243,5.7906,5.8568,5.9032,5.8833,5.8535,5.8833,5.8899,5.9032,5.9496,5.9595,5.9728,6.0191,5.9893,5.9595,5.9595,5.8369,5.7442,5.7641,5.6051,5.499,5.5653,5.6165,5.6806,5.7737,5.9164,6.033,6.1004,6.1116,6.139,6.1923,6.1961,6.2561,6.4025,6.4961,6.5364,6.5156,6.5627,6.541,6.4396,6.4903,6.5301,6.5591,6.6098,6.6496,6.6786,6.6786,6.6786,6.6786,6.6786,6.6786,6.6786,6.6786,6.6786,6.6786,6.6786,6.6786,6.6786,6.6786,6.7329,6.809,6.6999,6.6999,6.6999,6.6999,6.6999,6.6999,6.6999,6.6819,6.637,6.5443,6.4964,6.4366,6.3468,6.3199,6.3079,6.3079,6.266,6.2301,6.2121,6.0835,5.9787,5.9129,5.9099,5.88,5.8141,5.7663,5.7094,5.6466,5.5807,5.6003,5.6897,5.6572,5.7582,5.9522,5.8134,5.8175,5.9164,5.7906,5.7376,5.7376,5.7376,5.7243,5.7077,5.7608,5.7475,5.7177,5.8171,5.8369,5.8204,5.8734,5.8568,5.8237,5.8734,5.8204,5.7541,5.827,5.8833,5.9396,6.0158,6.0158,5.986,5.9661,5.9761,6.0059,6.0556,6.0854,6.1185,6.1682,6.1384,6.102,6.102,5.9993,5.9264,5.9562,5.8336,5.7608,5.8369,5.8555,5.894,5.9698,6.0712,6.1448,6.1877,6.2037,6.2189,6.2381,6.2381,6.3045,6.4532,6.6016,6.6533,6.5989,6.6496,6.6279,6.5156,6.57,6.5989,6.5989,6.6533,6.6786,6.6822,6.7076,6.7184,6.7184,6.7438,6.7547,6.7547,6.7547,6.7547,6.7547,6.7547,6.7547,6.7547,6.7547,6.8054,6.8814,6.6999,6.6999,6.6999,6.6999,6.6999,6.6999,6.6999,6.643,6.6011,6.6011,6.4844,6.4006,6.4006,6.3468,6.3079,6.3079,6.3079,6.278,6.2121,6.0835,5.9787,5.9129,5.9099,5.88,5.8141,5.8112,5.7782,5.7094,5.6466,5.6667,5.7623,5.7966,5.8664,5.9631,5.9876,5.9993,5.996,5.9198,5.8899,5.8899,5.8899,5.8436,5.7806,5.7806,5.7806,5.7806,5.7806,5.827,5.8899,5.8933,5.8899,5.8899,5.8899,5.8899,5.9065,5.9794,6.0026,6.0191,6.092,6.1649,6.2056,6.1285,6.1649,6.2221,6.2221,6.2785,6.3315,6.3315,6.3315,6.3315,6.3315,6.2719,6.1989,6.1251,6.1119,6.0854,6.0125,6.1285,6.1956,6.1218,6.2124,6.2505,6.181,6.2144,6.2415,6.2415,6.2454,6.3045,6.4532,6.6016,6.6822,6.6822,6.6822,6.6822,6.6822,6.6822,6.6822,6.6786,6.6822,6.6822,6.6858,6.7655,6.8017,6.8054,6.885,6.9207,6.9207,6.9207,6.9207,6.9207,6.9207,6.9207,6.9207,6.9207,6.9714,7.0372,6.6999,6.6999,6.6999,6.6999,6.6999,6.6999,6.6999,6.6819,6.652,6.6071,6.5652,6.5054,6.4096,6.3827,6.3558,6.3109,6.3079,6.26,6.1493,6.0565,5.9787,5.9129,5.9099,5.9009,5.883,5.8351,5.8022,5.7812,5.6705,5.707,5.8639,5.8293,5.9024,6.0642,6.02,5.9993,5.996,5.9198,5.8601,5.8138,5.8138,5.8005,5.7839,5.8369,5.8568,5.8701,5.9761,5.9926,5.9761,6.0258,6.0092,5.9595,5.9065,5.996,6.1152,6.0854,6.1483,6.2345,6.2577,6.2775,6.2818,6.2089,6.2453,6.2984,6.2984,6.315,6.3315,6.3315,6.3315,6.3315,6.3315,6.315,6.2917,6.2676,6.261,6.2543,6.2345,6.2846,6.313,6.2855,6.2849,6.2997,6.3497,6.3182,6.3235,6.3903,6.4931,6.5751,6.6216,6.7127,6.7655,6.7655,6.7655,6.7655,6.7655,6.7655,6.7366,6.6822,6.7945,6.8199,6.7692,6.8488,6.8814,6.885,6.9098,6.9207,6.9207,6.9207,6.9207,6.9207,6.9207,6.9207,6.9207,6.9207,6.9714,7.0372,6.6999,6.6999,6.6999,6.6999,6.6999,6.6999,6.6999,6.6999,6.6849,6.646,6.5951,6.5323,6.4485,6.3947,6.3498,6.3109,6.3079,6.251,6.1194,6.0715,6.0086,5.9129,5.9099,5.9099,5.9099,5.871,5.853,5.853,5.7453,5.7435,5.8319,5.8421,5.8997,5.9925,6.0256,6.0456,6.0423,5.996,5.9496,5.9098,5.9098,5.8933,5.8701,5.9164,5.933,5.9463,6.0357,6.0589,6.0523,6.0953,6.0986,6.0721,5.9993,6.0887,6.2089,6.1318,6.1947,6.2884,6.2884,6.3315,6.3647,6.3183,6.3415,6.3746,6.3746,6.3935,6.4133,6.4133,6.4133,6.4133,6.4133,6.4133,6.4133,6.4133,6.4133,6.4133,6.4133,6.4264,6.4218,6.4081,6.3826,6.3835,6.4252,6.3964,6.4106,6.4994,6.6227,6.7024,6.7374,6.8076,6.8452,6.8452,6.8452,6.8452,6.8452,6.8778,6.8561,6.7764,6.8742,6.8923,6.8488,6.9285,6.9678,6.9714,6.9973,7.0118,7.0118,7.0118,7.0118,7.0118,7.0118,7.0118,7.0118,7.0118,7.0408,7.0842,6.6999,6.6999,6.6999,6.6999,6.6999,6.6969,6.6909,6.6939,6.6939,6.6819,6.5832,6.5054,6.4934,6.3887,6.3139,6.3079,6.3019,6.248,6.1283,6.1134,6.0565,5.9338,5.9219,5.9189,5.9189,5.9129,5.9099,5.9099,5.8441,5.7835,5.7363,5.8545,5.8781,5.8409,6.0271,6.1069,6.1119,6.1119,6.1086,6.102,6.102,6.0622,5.9993,5.9993,6.0059,6.0092,6.0092,6.0523,6.1119,6.1185,6.1616,6.2122,6.1483,6.1781,6.2288,6.1583,6.1914,6.252,6.252,6.3481,6.4465,6.4465,6.4465,6.4465,6.4465,6.4962,6.5425,6.5425,6.5425,6.5425,6.5425,6.5425,6.5425,6.5425,6.5425,6.5425,6.5425,6.5425,6.5293,6.4847,6.4929,6.4917,6.4562,6.466,6.5113,6.5838,6.6624,6.7446,6.8266,6.8944,6.9316,6.9316,6.9316,6.9316,6.9316,7.0082,7.0077,6.9207,6.9352,6.9388,6.9352,7.0118,7.048,7.0517,7.1205,7.1494,7.1494,7.1494,7.1494,7.1494,7.1494,7.1494,7.1494,7.1494,7.1494,7.1494,6.6999,6.6999,6.6999,6.6999,6.6999,6.6819,6.6311,6.667,6.661,6.5592,6.5652,6.5383,6.4336,6.3977,6.3588,6.3109,6.26,6.2181,6.1912,6.1403,6.0984,6.0685,6.0146,5.9877,5.9877,5.9368,5.9099,5.9099,5.8441,5.8444,5.9032,5.8812,5.9174,6.0084,6.0518,6.0826,6.1119,6.1119,6.0788,6.0258,6.0258,6.0158,5.9993,5.9993,6.0357,6.0854,6.0854,6.0953,6.1185,6.1748,6.2089,6.2288,6.2676,6.3305,6.3868,6.3703,6.4167,6.4697,6.4697,6.4929,6.5194,6.5194,6.5194,6.5194,6.5194,6.5326,6.5425,6.5425,6.5425,6.5425,6.5425,6.5425,6.5425,6.5425,6.5425,6.5425,6.5425,6.5603,6.5713,6.5808,6.5521,6.5531,6.6221,6.6297,6.6439,6.6631,6.7952,6.907,6.9838,7.0061,7.0149,7.0149,7.0149,7.0149,7.0149,7.0879,7.0553,6.9207,7.0408,7.0698,7.0185,7.0915,7.1277,7.1277,7.1422,7.1494,7.1494,7.1494,7.1494,7.1494,7.1494,7.1494,7.1494,7.1494,7.1494,7.1494,6.6999,6.6999,6.6999,6.6999,6.6999,6.6759,6.6101,6.6311,6.6161,6.5173,6.5054,6.4784,6.4066,6.3737,6.3438,6.3109,6.275,6.2421,6.2121,6.1762,6.1433,6.1134,6.0446,6.0086,6.0086,5.9428,5.9099,5.9099,5.877,5.8677,5.8893,5.9012,5.9309,5.9633,5.983,6.0238,6.0836,6.0509,6.0642,6.1053,6.1053,6.1251,6.1516,6.1185,6.1285,6.1616,6.1616,6.1848,6.2212,6.2619,6.2984,6.3282,6.3315,6.3846,6.4299,6.4011,6.4365,6.4929,6.4895,6.5392,6.5856,6.5492,6.5955,6.6287,6.5591,6.5425,6.5425,6.5425,6.569,6.5922,6.5922,6.622,6.6353,6.5989,6.5922,6.5823,6.5459,6.5514,6.5692,6.5955,6.5804,6.6163,6.725,6.7029,6.7277,6.8456,6.8954,6.9672,7.0878,7.0906,7.0915,7.0915,7.0915,7.1096,7.1494,7.1893,7.1857,7.1458,7.1857,7.2074,7.2074,7.2074,7.2074,7.2074,7.1675,7.1494,7.1494,7.1494,7.1494,7.1494,7.1494,7.1494,7.1494,7.1494,7.1494,7.1494,6.6999,6.6999,6.6999,6.6999,6.6999,6.6759,6.6101,6.6011,6.5742,6.4964,6.4366,6.3947,6.3857,6.3378,6.3079,6.3079,6.3079,6.2839,6.2301,6.2271,6.1972,6.1313,6.0625,6.0206,6.0086,5.9428,5.9099,5.9099,5.9099,5.883,5.8291,5.9097,5.9246,5.8793,5.914,5.9752,6.0579,6.0216,6.0869,6.2221,6.2354,6.2752,6.3249,6.2652,6.2387,6.2387,6.2387,6.2785,6.3348,6.3481,6.3868,6.4299,6.3802,6.4067,6.4432,6.3835,6.4067,6.4564,6.4498,6.5492,6.6386,6.5757,6.6573,6.7268,6.6055,6.579,6.579,6.579,6.6287,6.6717,6.6717,6.7168,6.7367,6.6817,6.6717,6.6485,6.5889,6.579,6.5846,6.6024,6.6153,6.6584,6.7525,6.7216,6.7827,6.9847,6.9637,7.0025,7.1431,7.1494,7.1494,7.1494,7.1494,7.1893,7.269,7.2726,7.3197,7.4102,7.345,7.3414,7.3885,7.3233,7.2907,7.2871,7.2219,7.1929,7.1893,7.1748,7.1712,7.1712,7.1567,7.1494,7.1494,7.1494,7.1494,7.1494,6.6999,6.6999,6.6999,6.6999,6.6999,6.6759,6.6101,6.6011,6.5562,6.4306,6.4066,6.3797,6.3258,6.3139,6.3079,6.3079,6.3079,6.3049,6.2959,6.2929,6.266,6.2002,6.1313,6.0685,6.0086,5.9428,5.9099,5.9099,5.9099,5.9069,5.8979,5.9111,5.9251,5.9501,5.9812,6.0198,6.0656,6.1501,6.1995,6.2288,6.2917,6.3216,6.3315,6.3216,6.3183,6.3183,6.3183,6.3249,6.3415,6.4034,6.4299,6.4465,6.4962,6.5194,6.526,6.516,6.5194,6.526,6.526,6.5889,6.6485,6.6386,6.697,6.7533,6.7334,6.7268,6.7268,6.7268,6.7367,6.7433,6.7433,6.7499,6.7566,6.7466,6.7433,6.74,6.7301,6.7268,6.7219,6.7045,6.68,6.65,6.6064,6.7112,6.8012,6.8361,6.9565,7.0609,7.1463,7.1494,7.1494,7.1494,7.1494,7.1893,7.269,7.2726,7.345,7.4938,7.483,7.4468,7.3921,7.3812,7.374,7.374,7.3631,7.3595,7.3523,7.2834,7.2545,7.2472,7.1784,7.1494,7.1494,7.1494,7.1494,7.1494,6.6909,6.67,6.655,6.6939,6.6999,6.6759,6.6101,6.5712,6.5114,6.4126,6.3707,6.3378,6.3109,6.3079,6.3079,6.3079,6.3079,6.3079,6.3079,6.3079,6.2959,6.266,6.1672,6.0984,6.0685,5.9638,5.9099,5.9099,5.9099,5.9099,5.9099,5.9099,5.9188,5.9334,5.9103,5.9718,6.0944,6.1037,6.2024,6.3481,6.3769,6.4133,6.4432,6.4034,6.3902,6.3902,6.3902,6.4133,6.4531,6.4862,6.4962,6.5028,6.5326,6.5425,6.5492,6.5922,6.6022,6.6121,6.6552,6.7181,6.7645,6.7247,6.8009,6.8738,6.8307,6.8539,6.8606,6.7731,6.7943,6.8208,6.8208,6.8572,6.8705,6.8274,6.8208,6.8122,6.7862,6.7841,6.7711,6.7433,6.7345,6.7432,6.7649,6.8277,6.906,6.9939,7.0261,7.0745,7.1463,7.1494,7.1494,7.1494,7.1494,7.211,7.3378,7.3378,7.4175,7.5768,7.5768,7.5587,7.5225,7.479,7.454,7.454,7.4102,7.3921,7.3885,7.3523,7.3124,7.2653,7.2327,7.1893,7.1494,7.1494,7.1494,7.1567]}]]